GFSCGP_925_thetae_000.txt.gz
Theta_e
317 319 317 317 318 320 321 321 322 323 324 325 325 326 326 325 323 323 321 321 322 321 321 323 324 322 323 324 326 328 328 328 330 329 329 330 330 330 329 330 329 328 328 327
317 315 316 318 320 319 319 322 322 322 323 323 324 325 326 325 324 322 322 322 321 323 324 325 324 323 323 325 326 328 329 329 330 328 330 331 330 330 330 330 329 329 328 327
315 319 318 317 317 321 320 321 324 324 324 324 324 325 325 327 325 324 323 322 322 323 324 325 324 323 324 326 327 329 329 329 329 330 330 330 329 329 329 330 329 328 327 326
313 316 318 316 316 319 321 322 323 326 326 326 324 327 323 325 324 323 321 321 322 322 323 324 324 322 324 325 326 329 329 329 328 328 329 331 331 330 330 329 328 328 326 325
314 314 315 315 315 318 321 321 323 324 325 323 324 322 322 322 324 324 322 322 322 322 323 324 324 323 324 325 327 328 329 328 329 329 330 331 329 330 329 328 327 327 327 326
313 314 314 314 317 318 321 322 322 323 324 326 325 324 326 323 324 324 322 323 322 321 322 323 325 324 324 327 326 329 327 327 330 331 330 329 328 328 327 328 327 327 326 327
315 314 314 315 316 317 321 321 324 324 325 328 323 324 325 324 324 323 320 322 322 322 324 326 325 323 324 324 327 327 327 328 328 329 330 329 328 327 326 327 327 326 326 327
315 316 315 316 316 315 316 317 325 326 326 325 324 325 324 322 322 322 321 323 323 322 325 325 325 323 324 325 326 326 327 326 326 328 329 330 328 325 324 326 327 326 326 326
315 316 317 316 316 316 316 319 319 323 324 324 323 324 325 323 322 326 327 326 324 323 324 325 324 322 322 324 325 326 328 326 324 329 329 330 328 326 324 326 326 325 325 325
315 317 317 317 316 315 315 317 321 319 325 326 324 325 326 322 324 328 328 326 324 324 325 325 323 321 321 324 325 325 327 325 326 328 328 330 330 329 327 326 326 324 325 325
314 316 319 317 316 315 314 317 321 321 321 325 323 323 321 321 321 329 327 326 325 325 326 325 322 322 322 323 322 321 326 325 326 328 328 329 330 330 330 326 325 325 326 326
314 314 317 318 318 316 315 316 320 324 323 321 322 323 323 321 323 327 326 326 324 325 325 324 322 322 321 321 321 325 326 325 324 326 326 328 330 330 329 327 326 326 327 326
316 315 320 323 318 319 316 319 320 318 320 322 322 321 324 325 327 328 327 325 324 324 324 323 322 321 321 321 322 325 325 324 323 325 326 329 330 329 330 327 327 328 327 328
314 315 317 320 321 320 320 319 322 320 321 322 322 324 327 329 331 329 327 325 324 326 326 324 322 320 321 322 323 323 325 325 324 325 325 330 329 328 329 327 326 327 328 328
310 319 317 317 320 323 323 321 324 323 322 323 322 323 323 326 331 330 328 325 325 326 325 325 323 320 319 322 323 324 325 323 324 323 327 329 329 328 329 325 326 327 327 328
310 319 318 319 318 319 320 324 324 324 323 322 323 324 322 326 329 328 328 326 325 326 326 325 324 321 319 321 323 324 325 323 323 323 326 327 328 329 329 324 327 328 328 328
311 317 321 321 321 319 320 322 325 323 324 323 323 321 321 323 330 330 327 326 326 325 325 325 325 323 320 320 323 324 324 321 323 322 324 325 325 328 329 325 328 328 326 327
311 313 315 320 320 327 324 323 324 324 323 322 321 321 322 324 324 329 327 326 325 325 325 325 325 323 320 321 323 324 324 320 323 322 322 323 322 326 326 327 327 325 324 324
310 312 319 320 322 324 328 325 324 323 323 321 322 320 320 322 326 328 327 326 325 324 324 324 325 324 320 321 322 323 322 319 322 322 321 321 321 328 325 327 328 326 323 322
313 312 323 326 322 326 326 325 324 322 326 321 321 321 320 328 331 329 326 326 324 323 324 324 325 322 321 321 322 322 320 317 320 322 321 320 321 329 328 325 326 324 321 321
324 325 323 325 323 329 325 326 325 326 325 323 322 322 321 325 326 327 327 326 325 324 323 325 325 322 322 321 322 322 319 316 318 321 322 320 320 326 329 326 326 326 323 321
320 322 324 323 327 333 321 326 329 322 325 325 321 320 321 321 320 321 326 328 327 325 323 325 325 323 321 322 322 322 319 319 318 319 320 321 320 323 327 328 326 325 327 325
319 319 319 320 327 316 319 319 315 313 317 326 325 323 322 322 322 324 324 327 328 326 325 327 326 323 322 322 322 322 322 320 319 319 319 320 321 323 325 328 327 327 325 326
313 313 316 315 321 314 314 313 314 313 313 318 322 322 321 322 321 323 326 327 328 327 327 327 326 323 323 322 322 322 324 322 320 319 320 318 320 323 325 328 328 328 329 329
312 313 313 314 315 313 316 313 313 313 312 313 319 322 322 321 320 324 326 327 329 328 328 328 326 325 324 323 323 323 323 324 321 320 320 318 319 325 328 329 329 329 329 327
314 313 314 315 313 312 312 312 314 313 312 312 313 321 320 324 320 324 326 327 329 329 328 328 328 326 326 324 323 323 324 325 323 321 320 318 321 327 328 329 328 328 327 325

GFSCGP_925_thetae_003.txt.gz
Theta_e
314 317 318 318 315 316 315 316 317 318 320 323 322 323 324 324 322 322 322 321 320 320 318 318 319 320 320 323 324 326 327 328 328 329 327 330 329 329 329 329 329 329 328 327
314 316 319 318 317 315 316 317 319 320 321 322 321 322 322 322 322 322 323 320 320 321 321 320 318 319 322 323 326 327 327 327 328 328 327 330 330 328 328 329 329 329 328 327
312 315 318 321 317 318 317 317 318 320 321 322 322 323 323 323 322 322 321 320 320 321 322 322 319 319 323 325 327 327 327 328 329 328 329 329 328 329 328 329 329 328 327 326
312 313 316 318 316 316 319 319 320 320 322 325 322 325 322 321 322 321 321 319 320 320 322 322 320 319 322 325 326 327 328 328 327 328 327 329 329 328 328 328 327 327 325 326
311 313 313 316 316 316 318 319 321 321 321 322 323 323 322 320 322 321 319 318 317 319 321 322 321 320 323 325 326 328 328 328 328 329 330 330 329 328 328 327 327 326 326 325
310 313 313 314 317 317 316 319 319 319 321 324 323 323 324 322 322 322 321 320 321 319 321 321 320 322 323 324 326 328 329 327 328 329 330 329 327 327 327 327 326 326 326 326
312 312 313 314 316 315 315 318 320 320 324 326 322 323 324 322 321 321 321 321 319 320 322 322 321 320 322 324 326 328 326 327 329 330 330 328 328 326 326 326 326 325 326 326
314 315 313 314 314 315 315 318 322 325 324 324 322 325 325 321 322 320 320 319 320 321 323 323 321 320 321 323 326 326 326 327 329 328 329 327 327 324 324 325 326 325 325 325
314 314 314 314 314 314 315 319 319 320 322 323 323 322 322 321 320 323 322 322 321 322 323 323 322 320 322 323 326 326 326 325 325 327 329 328 327 324 324 325 325 325 324 324
313 314 314 314 314 314 313 314 316 315 320 323 324 324 324 322 324 326 325 322 321 322 323 323 321 320 322 324 325 325 327 326 324 329 328 328 328 327 324 325 324 324 323 323
311 314 315 315 315 314 312 314 315 318 320 323 324 324 319 320 321 325 323 322 322 324 324 324 320 320 322 324 324 325 326 326 325 328 327 328 329 328 327 325 323 323 323 323
314 311 313 315 316 315 314 314 314 317 319 319 322 325 322 318 317 323 323 323 322 323 324 322 320 319 318 321 323 322 324 326 326 327 328 328 329 328 326 325 323 324 324 324
314 314 314 316 315 314 313 313 313 314 317 320 322 324 323 320 317 324 323 323 323 323 322 320 319 319 318 319 319 322 325 325 325 326 326 328 329 328 327 326 325 326 324 326
309 314 315 315 316 316 317 315 314 316 318 319 321 321 325 325 325 325 324 323 323 325 324 322 321 319 318 319 320 324 324 323 323 324 327 328 328 328 327 326 327 326 326 326
308 311 318 315 314 319 319 318 316 317 317 319 320 319 321 326 325 325 323 322 324 325 324 323 322 319 318 319 320 323 325 324 323 323 326 328 327 327 326 325 325 326 327 326
307 309 316 321 315 314 316 319 318 319 318 320 319 320 318 323 325 327 325 324 325 326 325 324 322 320 319 320 321 322 324 325 323 322 327 328 327 327 324 325 326 325 326 327
309 311 311 320 318 316 316 317 318 320 320 320 320 319 319 325 328 328 325 325 325 326 325 324 323 320 319 321 322 322 324 324 323 322 326 325 326 327 324 326 326 326 327 327
309 309 310 314 319 319 317 317 317 321 321 319 319 319 321 323 328 327 326 325 324 325 325 324 323 321 320 321 322 324 324 323 322 321 325 325 325 326 326 326 327 326 324 327
314 309 311 318 318 320 324 326 324 321 321 321 320 319 320 322 325 328 325 325 324 323 324 323 324 322 320 320 322 323 323 322 322 321 323 323 322 326 326 325 326 324 323 325
311 309 312 319 319 320 326 322 321 323 322 322 326 325 320 323 327 326 324 324 322 321 323 323 323 323 320 320 321 322 320 320 320 321 321 321 320 324 324 325 326 324 322 324
315 314 313 315 319 329 320 320 318 324 322 315 321 325 319 323 323 324 324 324 322 321 322 323 323 322 320 320 320 320 318 319 321 321 320 320 321 326 325 324 326 324 321 321
315 319 323 322 324 331 315 317 319 315 313 313 314 321 322 321 321 323 325 324 322 320 320 322 322 322 320 320 320 320 317 321 320 320 320 319 320 326 326 324 326 322 320 319
316 314 319 318 321 316 313 314 313 312 312 312 313 314 320 321 317 322 324 324 323 321 321 323 323 321 320 320 320 320 320 319 319 320 320 320 320 320 327 325 324 323 321 320
311 311 316 314 318 315 313 313 312 313 312 312 312 313 319 320 319 318 324 325 324 322 321 323 323 320 319 319 320 321 320 319 317 318 319 320 319 318 323 328 325 325 326 322
312 312 311 313 314 312 313 310 310 312 312 312 312 313 316 317 323 318 321 325 326 324 322 323 323 321 320 320 320 320 321 319 316 317 318 319 319 318 321 326 327 325 326 325
312 312 312 313 311 310 311 310 310 313 312 312 312 313 315 314 320 323 320 323 326 325 324 324 324 322 321 320 320 320 321 320 317 316 316 316 318 320 322 325 326 326 326 326

GFSCGP_925_thetae_006.txt.gz
Theta_e
309 312 315 314 315 315 314 313 313 314 317 318 318 319 320 321 320 318 319 320 319 319 316 316 317 318 320 321 322 324 325 326 326 326 328 327 329 328 328 328 329 329 329 328
313 312 312 315 315 316 315 314 314 316 319 319 319 320 319 319 320 319 320 320 320 318 319 318 316 318 320 322 324 325 325 326 326 328 327 328 329 328 328 328 329 329 328 328
309 311 313 316 317 316 315 316 316 316 319 319 320 320 320 320 320 319 318 319 318 317 319 319 316 318 320 322 324 325 326 327 327 328 326 328 328 328 328 327 328 328 327 326
309 310 312 316 319 318 318 317 317 319 320 319 319 323 320 319 321 319 318 317 318 318 320 318 316 318 321 322 325 326 326 327 328 327 327 327 328 328 327 327 327 327 325 325
308 310 311 315 318 319 319 318 318 320 320 319 320 320 320 319 320 320 319 318 316 316 320 318 317 320 322 324 326 326 327 327 327 327 328 329 329 327 327 326 326 326 325 325
308 310 310 312 316 316 316 316 317 317 317 320 319 320 320 320 321 320 319 319 320 318 319 317 318 321 323 325 326 327 327 328 327 328 329 329 327 326 326 326 326 325 325 326
310 308 311 311 311 315 315 313 315 318 319 321 319 320 319 319 319 319 320 318 319 320 320 319 320 319 320 323 326 327 328 326 327 328 329 328 327 325 325 325 326 325 325 326
312 312 310 312 312 313 316 315 315 318 322 324 320 324 323 320 320 319 319 318 319 321 320 320 320 319 320 323 326 326 326 326 328 329 329 327 327 324 324 324 326 324 325 325
313 313 312 312 313 313 315 314 315 319 320 321 321 321 321 320 320 319 319 320 320 321 320 320 319 319 320 323 325 327 325 325 328 327 328 327 327 324 324 324 324 324 324 325
311 313 312 312 312 313 312 313 316 315 320 323 321 322 323 322 320 322 322 320 320 320 321 320 319 319 321 323 326 325 325 325 325 325 328 327 327 325 324 324 323 324 323 324
310 311 314 312 312 312 311 313 313 315 315 321 322 322 318 321 319 321 320 319 320 322 322 321 319 319 321 323 325 325 325 324 323 327 327 327 328 327 324 324 322 323 323 323
312 310 312 313 312 313 313 313 313 316 318 317 320 322 319 318 317 317 319 320 320 321 321 321 319 318 319 322 323 323 324 325 324 327 326 327 328 327 326 324 323 324 323 323
311 311 313 313 313 312 312 313 313 312 313 317 320 320 319 320 320 318 320 321 321 321 320 319 318 317 318 320 321 322 323 325 324 326 326 327 328 327 326 324 323 324 324 324
308 309 314 314 313 313 313 313 313 312 312 316 320 319 319 324 320 321 321 321 321 322 322 321 319 317 317 319 320 320 322 324 324 325 325 327 328 327 326 325 326 325 325 325
307 310 313 313 316 315 316 314 313 312 313 314 315 317 316 318 321 321 320 321 323 323 322 322 321 318 316 317 319 320 324 323 323 323 327 328 327 327 325 326 325 325 325 326
306 310 310 313 316 317 316 313 313 313 313 313 317 316 315 318 322 323 323 324 325 324 324 323 321 319 317 317 318 321 324 323 322 322 326 327 326 326 325 325 325 326 325 326
308 309 310 311 312 315 314 315 313 314 313 314 316 316 318 325 325 324 323 324 325 325 324 323 322 320 319 318 319 320 323 324 322 322 326 327 326 325 325 325 325 326 326 326
311 311 311 310 316 317 317 320 314 315 322 321 316 317 317 321 325 323 323 323 324 324 324 323 322 320 319 320 320 321 322 323 322 322 325 325 326 324 325 325 325 325 326 326
312 316 313 313 317 317 326 320 319 323 324 316 321 325 325 322 324 327 323 322 323 324 324 323 322 320 320 321 322 321 321 323 321 321 323 324 324 326 325 326 326 323 326 325
312 311 312 314 319 320 319 315 316 321 324 314 314 315 318 322 325 325 323 323 321 322 323 322 321 320 319 320 322 321 321 321 320 321 321 324 322 326 324 326 326 322 323 325
314 314 311 312 313 323 316 314 315 324 318 313 313 313 314 322 321 320 319 323 322 322 323 322 321 320 320 320 321 320 320 320 323 322 321 322 321 325 325 324 325 323 321 324
315 316 321 318 322 328 315 313 316 314 312 313 312 312 313 313 318 319 319 323 321 321 322 321 321 321 320 320 320 320 319 323 322 321 321 320 320 324 323 323 324 323 321 323
316 314 315 318 319 314 313 314 313 313 311 311 311 312 312 313 317 318 318 321 321 321 322 322 322 321 319 319 320 319 320 321 321 321 320 320 319 322 324 324 325 321 320 320
311 311 314 314 312 312 312 313 311 311 310 311 311 312 313 313 314 319 316 321 321 321 321 321 321 320 318 318 320 323 320 321 321 320 320 319 318 320 325 324 324 323 319 318
309 310 311 312 312 311 312 310 311 311 310 311 311 312 314 314 314 315 321 321 321 320 321 321 321 320 319 318 319 320 321 320 319 320 319 319 319 318 323 325 324 323 322 322
309 310 313 313 311 311 311 310 310 310 311 310 311 313 314 315 317 322 323 318 322 320 320 321 321 320 319 319 319 320 320 320 318 317 318 318 318 317 318 323 324 324 324 324

GFSCGP_925_thetae_009.txt.gz
Theta_e
309 312 316 314 316 318 319 321 322 322 319 318 318 319 322 322 323 324 324 325 326 328 327 322 322 322 323 324 325 327 328 326 325 326 327 329 330 330 330 328 328 330 330 329
310 313 314 315 314 315 317 319 320 318 317 318 319 320 322 322 322 323 325 326 327 328 327 324 322 322 324 325 327 328 328 325 326 327 328 329 330 330 330 328 329 330 330 329
312 314 312 313 314 315 316 316 318 318 318 318 319 320 320 321 323 323 323 325 326 327 328 327 323 323 325 325 327 328 328 326 326 326 327 327 328 329 330 330 330 329 328 327
311 312 312 312 314 316 317 316 316 317 318 319 321 322 322 321 322 322 323 326 327 327 325 326 324 324 325 326 327 328 328 326 326 327 328 330 332 332 330 330 329 328 325 327
311 311 312 313 314 316 316 316 317 318 320 321 321 322 321 322 322 323 323 324 327 324 325 326 325 324 324 326 327 328 329 328 328 327 329 330 332 330 329 329 329 328 327 327
311 311 311 313 314 316 317 318 320 320 320 321 320 322 322 322 322 322 324 326 325 326 326 324 324 324 325 327 328 328 329 330 328 329 328 331 331 330 329 329 329 328 328 326
310 310 311 311 314 316 319 320 319 319 321 321 320 322 322 321 321 322 324 327 326 328 326 325 326 326 326 327 328 328 329 329 329 330 330 330 330 328 329 329 328 328 328 326
313 312 311 312 313 316 320 319 320 323 323 321 322 322 321 323 323 322 324 326 326 328 327 326 326 327 327 328 328 328 329 329 329 330 331 329 328 327 327 327 328 327 327 327
316 315 312 313 313 315 318 320 319 318 323 324 325 325 325 325 325 327 326 324 327 329 327 326 326 326 327 328 329 329 329 329 330 331 330 328 328 324 327 326 326 326 326 327
314 317 314 312 313 313 314 316 318 318 318 319 320 325 327 328 327 327 327 327 328 328 327 326 326 326 326 328 329 329 328 328 330 329 330 329 328 326 327 326 326 327 326 327
313 314 316 313 314 314 314 318 317 318 318 319 318 319 327 329 329 328 328 328 328 329 327 326 326 326 326 327 328 328 327 327 327 328 330 329 329 327 327 326 326 325 326 326
314 317 316 316 315 315 315 316 318 317 320 318 322 321 325 328 327 326 326 327 327 328 327 326 326 326 326 326 328 327 327 327 326 329 329 329 330 328 327 326 326 325 325 325
314 316 317 317 316 315 316 316 318 320 321 319 318 320 324 328 327 326 327 326 327 328 328 327 326 327 326 326 327 325 327 327 326 328 328 331 330 329 329 326 326 326 326 326
311 312 317 317 317 317 316 316 316 318 319 320 320 318 321 322 326 327 327 328 328 329 328 327 327 327 326 325 325 324 325 327 326 327 328 331 330 329 328 326 326 326 327 327
311 314 313 314 314 316 316 315 315 317 317 318 320 320 319 324 323 326 328 328 329 329 328 328 328 328 326 325 324 324 324 325 326 326 329 330 330 328 327 328 327 327 327 328
310 314 313 315 314 315 317 317 316 315 316 316 317 318 319 320 323 326 329 328 329 330 329 328 328 327 326 325 323 323 325 325 325 326 329 328 329 327 328 327 327 327 328 329
312 312 314 317 315 317 317 318 317 316 316 316 317 319 318 320 324 328 330 329 330 330 329 328 328 328 325 324 323 323 326 324 325 325 329 328 328 327 327 327 327 328 328 329
312 314 314 318 319 319 322 321 321 317 321 321 320 320 325 327 327 325 327 330 330 330 329 329 328 328 325 324 323 323 326 325 324 325 328 328 328 327 327 327 328 328 328 329
311 315 318 317 323 325 324 319 320 322 323 318 320 320 320 321 326 327 327 328 330 332 330 330 328 327 326 324 323 323 324 325 325 324 327 327 328 327 327 328 328 326 327 327
312 314 316 317 325 324 321 317 315 322 327 317 317 319 319 320 324 327 321 324 327 330 330 329 327 327 326 325 324 324 324 324 325 324 325 326 327 327 328 329 326 324 327 326
317 317 316 316 320 324 316 316 317 330 322 316 316 317 318 320 323 320 320 324 326 329 329 328 327 327 326 326 325 325 324 325 325 324 323 325 326 328 328 329 326 323 325 325
318 320 319 318 324 327 315 314 319 316 315 315 316 316 317 318 318 319 321 323 326 328 329 327 327 327 326 325 325 325 325 325 325 324 323 324 326 327 327 328 327 324 326 325
317 314 317 317 319 314 314 314 312 312 314 313 314 315 317 318 320 320 321 323 325 327 329 327 327 327 326 325 325 326 325 324 324 324 323 323 324 326 327 327 327 325 325 324
312 311 315 315 314 313 313 312 311 312 312 313 312 314 317 318 319 321 323 325 324 327 328 327 328 328 326 324 325 326 325 323 323 324 325 323 322 325 326 326 326 325 323 323
312 312 313 314 312 312 312 311 311 311 311 311 311 313 316 318 319 321 322 328 326 326 327 327 328 327 326 324 325 325 325 323 323 325 324 323 322 323 326 327 326 326 325 324
311 313 315 315 310 311 310 310 310 310 310 310 311 313 315 318 319 321 324 328 328 326 326 327 327 327 326 325 325 325 324 323 324 325 324 323 321 321 325 327 324 325 325 322

GFSCGP_925_thetae_012.txt.gz
Theta_e
313 314 318 320 320 321 323 325 326 326 326 326 326 326 326 327 325 325 326 326 326 327 329 329 330 329 330 331 331 332 335 338 337 334 330 329 329 331 332 332 334 334 333 333
314 316 317 319 320 320 322 324 326 326 326 326 326 325 325 325 325 325 326 325 327 328 328 331 331 330 330 331 332 333 335 336 334 330 328 328 329 331 331 332 334 334 333 332
316 316 316 317 319 320 320 322 323 323 323 324 324 324 324 324 325 324 325 326 328 327 327 332 332 331 331 331 333 334 335 334 331 330 332 333 333 333 332 333 333 333 333 332
314 316 316 317 319 319 321 320 319 320 322 324 322 325 325 324 324 324 325 326 327 327 330 332 333 332 332 332 332 333 334 333 332 332 330 330 329 329 331 332 332 331 331 329
315 314 316 317 318 318 320 318 319 320 321 322 322 323 323 324 325 325 326 327 328 327 331 332 332 331 331 331 332 333 333 333 333 331 330 331 331 331 332 331 332 331 331 330
314 314 315 316 317 317 318 318 319 320 321 323 322 323 324 325 326 326 326 325 326 331 332 332 331 330 331 331 332 332 333 332 332 332 332 333 334 333 332 331 331 330 331 330
315 314 314 315 317 317 317 320 323 324 325 324 323 323 324 327 327 325 325 328 332 333 333 333 333 332 331 331 331 332 332 332 332 332 332 334 335 334 333 332 330 331 330 330
314 318 314 315 316 317 318 321 321 323 323 323 323 324 325 325 324 327 324 326 330 334 334 333 333 332 331 331 331 330 331 331 331 331 333 334 334 331 331 331 329 330 330 329
316 318 315 314 315 318 320 321 321 320 323 325 325 326 327 326 326 325 329 328 331 334 334 333 332 332 330 331 331 331 331 330 330 330 334 334 334 332 331 331 330 329 330 328
317 321 317 314 315 317 320 321 322 320 324 323 321 326 329 328 327 326 327 330 333 334 333 333 332 332 331 331 331 331 330 329 330 333 333 333 333 332 331 330 329 329 329 328
316 319 319 316 315 317 319 322 321 322 320 323 323 323 323 327 328 330 331 333 334 334 333 332 332 331 331 331 332 332 329 329 330 332 332 332 332 332 331 330 328 329 329 328
315 320 322 317 316 317 318 320 322 321 322 321 321 321 326 328 329 330 331 333 334 334 332 332 332 331 331 331 331 330 328 328 330 331 331 332 331 332 331 330 329 328 328 328
314 319 322 320 318 317 318 317 320 321 323 324 321 322 323 328 330 330 332 333 334 333 332 332 332 331 332 331 330 327 327 327 329 330 331 332 332 331 331 330 330 328 327 327
314 318 321 321 319 319 319 318 319 322 322 322 321 320 322 328 328 329 332 333 333 333 332 332 332 331 331 330 328 326 326 327 328 329 330 332 331 331 331 330 329 328 327 327
314 317 319 318 318 319 319 318 319 321 322 322 321 321 321 325 325 328 329 332 333 333 333 333 332 332 332 329 327 325 326 327 327 328 330 331 333 332 330 330 329 328 328 329
314 319 318 319 317 318 319 318 319 319 321 320 320 321 322 322 323 324 328 331 334 334 333 332 332 332 332 329 326 324 325 326 327 328 330 331 331 330 330 329 329 330 330 330
316 318 319 319 317 318 320 319 318 319 319 320 321 321 321 322 322 324 328 330 332 334 333 332 332 333 331 328 324 324 325 325 326 328 330 331 330 329 329 329 329 330 330 331
313 318 319 318 318 321 325 323 321 320 323 322 321 321 322 325 325 325 327 327 329 333 333 333 333 333 329 326 324 324 325 324 325 327 329 330 329 329 329 329 329 330 331 332
311 316 319 323 321 321 324 323 324 324 325 323 324 324 324 324 324 326 328 330 329 332 334 333 332 331 329 326 324 324 325 323 325 326 329 329 329 330 330 331 332 332 331 331
313 314 319 322 322 325 326 321 320 324 329 322 323 324 325 325 325 328 327 326 330 333 334 334 332 331 329 326 324 324 325 323 324 325 328 330 329 329 330 330 330 332 332 331
320 318 318 322 326 326 320 321 321 330 327 321 322 323 324 327 327 326 325 326 327 331 334 333 332 332 329 326 325 325 325 324 324 324 327 329 330 330 331 331 330 330 329 329
320 321 319 320 325 328 318 319 326 321 320 320 320 321 322 324 325 326 326 327 327 331 333 333 333 332 329 326 326 325 325 323 323 323 325 327 329 329 331 332 330 329 328 331
320 316 320 318 320 317 316 317 316 316 318 318 319 319 321 324 325 326 327 328 328 330 333 332 333 332 329 327 325 325 325 323 323 323 324 325 327 329 330 331 331 329 328 327
314 313 316 315 315 315 314 314 314 314 315 316 316 318 320 323 325 326 328 328 331 329 332 332 332 333 329 327 325 325 325 323 323 324 324 324 325 329 330 329 329 327 327 324
314 314 315 314 315 315 313 314 313 313 313 314 316 317 319 322 324 326 328 330 331 331 330 332 333 333 330 327 326 325 325 324 324 324 325 324 324 325 330 328 329 327 327 325
311 313 315 316 314 314 314 313 312 313 313 314 315 316 318 320 323 324 327 332 333 332 329 332 332 332 330 327 326 325 324 324 324 325 325 324 322 324 325 329 329 328 327 326

GFSCGP_925_thetae_015.txt.gz
Theta_e
317 317 318 319 322 323 325 326 327 327 328 328 328 329 329 328 328 328 329 330 330 328 329 329 328 332 334 334 337 340 340 342 347 345 341 336 334 333 332 332 333 335 335 333
318 318 319 318 320 321 322 324 326 327 328 329 329 329 329 329 329 328 328 329 329 328 329 329 329 336 335 336 337 338 340 343 345 342 338 333 332 332 332 332 334 335 334 334
317 319 317 317 318 321 323 324 325 326 327 328 329 329 329 328 328 327 327 327 328 329 329 330 330 337 336 337 337 338 340 343 341 337 334 332 332 334 334 331 333 335 334 333
315 316 318 318 318 319 322 323 324 325 327 328 327 331 328 328 327 327 327 327 328 328 329 330 330 338 337 337 338 339 341 340 336 333 334 335 333 331 331 333 331 334 332 332
315 316 317 319 319 319 321 322 324 325 325 326 325 327 326 326 327 327 327 327 328 328 329 329 334 337 336 337 338 339 339 337 335 335 333 333 330 330 332 331 333 334 333 332
313 315 316 317 318 319 319 321 323 325 325 327 325 326 327 326 326 327 328 328 328 329 330 332 337 336 336 336 338 338 337 336 336 334 334 334 333 332 331 332 333 333 333 333
311 314 316 317 317 319 320 323 325 327 328 329 325 326 326 326 326 327 328 328 328 332 335 337 337 337 336 336 337 337 336 336 334 333 334 334 334 335 335 334 332 333 332 333
310 311 314 317 318 319 320 323 325 329 328 326 325 326 326 326 327 326 327 327 334 336 336 337 336 337 336 336 335 335 335 335 333 333 333 333 334 333 332 333 332 331 333 332
315 311 313 316 317 318 320 323 323 326 326 328 327 326 327 328 329 327 328 327 334 337 337 337 337 337 335 335 334 334 334 333 333 332 333 333 334 333 334 334 332 331 332 330
318 315 313 316 317 317 320 321 323 327 328 328 327 328 326 329 328 327 329 329 332 337 337 337 337 336 334 334 333 334 333 333 332 332 332 333 333 333 333 333 332 330 331 329
314 322 321 317 319 318 319 321 322 324 325 327 328 326 326 329 329 328 328 331 336 337 337 336 336 335 334 334 334 334 333 331 331 332 331 332 332 333 332 332 330 331 329 328
315 319 327 320 319 318 319 321 323 326 327 324 325 327 328 327 329 332 332 335 337 336 336 335 335 335 334 334 334 334 331 330 331 331 331 331 332 333 333 331 330 330 329 328
316 320 323 328 322 318 319 320 323 325 327 325 325 325 327 329 331 331 332 335 336 336 335 335 335 335 335 335 334 331 330 329 330 331 331 331 332 334 333 331 330 329 328 328
313 318 323 330 322 318 320 320 323 325 327 326 325 325 328 330 331 332 334 336 335 335 335 335 335 335 335 334 332 329 328 328 330 330 330 332 333 333 333 330 330 328 327 327
315 318 318 322 323 323 319 320 321 324 325 326 325 323 326 329 330 330 334 335 335 335 335 335 335 335 335 333 329 327 328 328 329 330 330 332 333 333 330 330 329 328 327 328
314 319 316 317 321 324 320 320 320 321 323 324 323 323 323 324 326 327 331 333 335 335 334 335 334 334 334 331 328 327 328 327 328 329 331 332 331 330 330 330 330 329 328 329
315 319 319 321 322 324 322 322 320 321 323 323 323 323 324 324 326 330 330 331 334 335 334 335 334 335 333 330 326 327 327 327 328 329 331 331 330 330 330 330 330 330 330 330
313 315 319 323 322 327 321 322 321 321 322 323 323 323 326 326 326 326 329 331 330 334 335 335 334 335 332 329 326 326 327 326 328 330 331 330 330 330 330 330 331 331 332 333
311 314 320 324 327 326 324 324 324 321 327 326 325 324 327 326 327 327 330 331 333 335 335 335 334 334 331 328 326 326 326 326 328 330 331 330 330 331 331 331 332 332 334 334
314 316 319 323 326 329 329 324 324 327 332 326 326 327 327 327 328 334 330 329 331 336 335 336 334 334 331 327 326 326 326 325 327 330 330 330 331 331 331 332 333 333 333 332
317 319 320 323 328 329 324 324 323 328 332 325 325 327 327 329 330 329 329 330 330 332 336 335 334 335 331 327 326 326 326 325 326 329 331 330 331 331 332 331 332 332 332 331
320 324 321 322 328 332 321 323 328 326 324 324 324 324 326 327 328 328 329 330 330 332 335 335 335 335 331 327 326 326 327 325 326 327 330 331 331 331 333 332 330 330 331 332
321 317 321 318 318 318 317 318 318 321 321 321 322 322 323 326 328 329 330 331 331 331 334 335 335 335 331 328 326 327 327 325 326 326 329 331 332 331 333 332 329 329 330 332
314 313 317 317 316 316 316 315 316 317 318 319 320 321 323 325 328 329 330 332 332 333 334 335 336 336 333 328 327 326 326 325 326 326 328 329 331 331 332 331 329 327 327 329
313 313 315 317 314 316 316 315 315 316 317 318 319 320 321 324 326 328 330 334 334 334 332 334 336 336 333 329 327 326 326 325 325 326 326 328 329 330 331 330 329 328 326 325
312 313 316 317 313 313 314 315 314 315 317 317 317 319 320 322 324 326 328 330 333 335 333 334 335 335 334 330 327 326 326 325 325 327 327 327 327 329 331 330 330 327 327 325

GFSCGP_925_thetae_018.txt.gz
Theta_e
314 316 318 318 319 322 323 325 325 328 328 329 331 330 330 331 329 331 331 331 330 331 333 331 331 330 330 336 337 340 342 348 351 351 349 347 343 337 335 333 334 334 335 335
314 318 319 317 318 319 320 323 324 326 326 328 329 330 331 331 331 332 333 333 333 332 331 331 332 330 338 337 340 343 345 349 350 350 347 345 340 336 335 333 334 334 335 335
314 316 317 318 318 319 320 322 324 324 325 326 328 330 331 330 331 331 331 331 331 331 331 331 332 336 339 340 341 342 343 349 349 347 344 340 336 336 334 335 335 335 335 335
312 314 315 318 319 318 321 320 321 323 325 328 327 331 333 333 332 331 331 331 331 332 332 333 334 345 341 341 341 341 345 348 346 343 341 336 335 336 335 333 334 336 336 333
309 312 315 315 319 319 320 319 320 322 324 327 326 329 329 329 330 329 330 330 330 331 331 331 331 343 340 340 341 342 346 345 343 339 335 336 337 335 334 332 335 333 335 333
310 310 311 316 316 318 319 319 320 322 324 328 329 329 329 329 328 329 330 329 330 330 332 332 341 340 341 341 342 344 343 342 337 339 337 334 333 335 335 332 335 334 333 334
312 310 310 311 315 317 319 323 324 325 327 329 326 328 330 329 328 328 329 329 330 336 335 342 342 341 341 341 342 342 341 340 337 337 336 336 336 335 335 335 333 334 334 333
316 319 310 312 314 317 319 323 324 326 326 327 325 329 328 329 329 329 327 328 334 339 341 341 341 341 339 341 341 340 340 339 337 336 335 335 335 334 335 333 333 333 333 333
318 318 316 311 314 317 319 319 322 325 325 326 328 328 330 329 329 328 328 329 339 339 340 340 340 339 339 340 340 339 339 338 336 336 336 334 334 335 335 335 333 333 332 330
314 315 315 317 312 315 318 319 322 324 328 332 329 329 329 331 330 330 328 333 340 340 339 340 339 340 339 338 339 338 337 336 336 334 335 334 332 333 333 333 332 332 330 330
311 313 313 315 317 315 318 319 321 325 327 329 331 329 334 332 329 331 329 331 340 340 339 340 339 339 338 338 338 338 337 336 334 334 333 332 332 332 332 331 331 332 330 328
313 316 321 320 319 314 318 319 322 324 327 327 329 329 330 329 331 332 330 336 339 339 338 338 338 338 337 337 337 336 335 333 333 333 332 332 332 332 332 332 331 329 328 328
314 318 320 320 319 321 320 319 322 325 329 330 328 329 329 328 330 332 335 339 339 339 338 338 338 338 337 337 336 335 333 332 332 332 331 331 333 334 334 330 330 329 328 327
312 316 317 323 322 323 326 319 321 326 326 328 328 328 329 330 332 333 339 339 338 338 338 338 338 337 337 336 335 333 331 330 331 332 331 332 334 334 333 331 329 330 329 328
313 319 317 315 316 319 323 323 320 325 325 328 328 326 331 334 333 334 339 338 337 337 337 338 338 338 338 337 333 330 329 330 330 332 333 332 334 334 330 329 330 327 328 327
315 318 317 319 315 317 321 322 323 321 323 326 327 325 331 331 331 334 338 337 336 337 336 337 337 338 337 335 331 329 329 330 330 334 334 332 333 333 329 329 329 328 328 328
312 318 320 319 318 319 324 325 324 322 326 327 327 328 330 332 333 334 336 337 336 336 336 336 336 337 336 333 329 329 329 329 330 333 332 333 331 331 330 330 329 328 329 329
311 314 318 324 321 325 324 324 324 323 327 327 326 328 329 330 328 330 333 337 335 336 336 337 337 338 335 330 329 329 329 328 329 332 331 330 330 330 330 330 330 330 330 331
311 313 319 322 325 325 327 328 327 325 330 329 330 329 329 328 328 334 331 331 333 337 338 337 336 336 334 330 328 328 328 328 329 332 331 331 330 331 331 331 331 331 330 332
314 314 318 321 322 337 330 326 326 328 333 328 329 330 330 328 327 335 331 331 332 335 339 337 336 336 334 330 327 329 328 328 330 332 331 331 331 331 331 331 332 332 331 332
318 318 320 319 322 327 323 323 325 332 334 327 328 328 329 332 331 330 330 331 331 333 337 336 337 337 334 330 327 329 328 328 329 331 331 332 331 334 334 333 333 333 332 331
319 322 322 320 322 327 317 323 328 329 327 325 325 326 328 329 329 330 330 331 332 332 336 337 338 338 333 330 328 329 328 327 328 331 331 333 332 333 332 332 332 332 332 331
319 317 317 319 318 314 316 319 318 321 323 323 324 324 327 329 330 331 331 332 331 332 335 336 337 337 332 330 328 329 328 327 328 331 333 333 331 335 333 331 332 331 332 332
314 313 316 319 316 315 317 317 318 319 321 321 322 323 325 327 328 330 332 334 332 333 333 336 338 338 334 330 328 329 328 327 327 332 335 334 332 336 334 332 329 330 332 334
314 313 314 317 314 315 315 316 316 317 318 319 320 321 323 325 326 328 330 333 335 334 333 336 338 339 335 331 329 329 328 326 328 330 334 335 334 334 333 332 329 329 328 329
312 313 316 316 314 314 315 315 315 316 317 318 318 320 321 323 325 327 327 328 330 335 335 335 339 339 336 331 329 328 328 327 329 330 332 333 333 332 333 332 327 327 325 324

GFSCGP_925_thetae_021.txt.gz
Theta_e
309 309 313 313 314 317 319 321 322 322 322 324 325 325 326 326 325 325 325 326 326 326 325 326 330 331 328 333 334 337 340 348 349 349 347 346 345 342 340 336 335 335 335 336
311 311 312 314 315 316 317 317 318 321 323 323 324 325 326 327 326 325 325 326 326 326 327 326 327 327 332 336 340 344 346 351 350 349 348 345 344 338 337 334 333 334 336 335
308 313 313 314 315 316 316 317 317 318 321 321 321 322 322 323 324 326 326 324 326 325 325 324 323 325 338 339 343 345 351 351 350 348 347 346 341 338 336 334 333 333 334 335
307 309 314 313 315 316 316 317 318 319 320 321 321 323 322 322 324 325 326 325 326 324 324 325 324 335 339 341 343 345 352 350 350 347 346 342 338 337 336 334 335 335 335 334
307 308 309 312 313 315 317 318 317 319 318 318 320 322 322 324 325 323 324 324 324 324 324 325 326 337 341 341 341 343 350 348 347 345 342 340 336 336 334 335 334 336 335 333
309 309 308 308 309 314 315 317 317 317 317 318 319 322 322 322 323 325 325 324 324 323 324 329 338 339 340 342 343 347 347 345 342 341 336 334 334 335 336 334 335 334 334 333
313 312 309 309 308 309 313 313 317 319 319 320 318 321 323 323 324 324 324 324 328 332 337 339 339 339 340 342 344 345 343 341 339 336 335 335 334 335 335 334 334 334 334 332
311 315 314 314 308 308 308 313 315 320 321 319 319 322 322 323 324 324 324 323 336 338 337 338 338 338 340 341 342 341 340 337 338 336 335 335 334 333 333 333 332 333 332 332
316 314 314 312 313 310 309 310 314 316 319 319 320 321 321 321 322 324 324 325 336 337 338 338 336 337 340 340 339 340 337 336 337 334 336 334 334 334 335 333 332 332 332 330
313 314 311 311 311 313 311 312 315 315 318 321 322 321 323 325 324 325 325 335 336 337 337 336 336 337 338 339 339 339 337 336 336 335 334 334 335 333 333 333 332 332 330 331
310 312 311 311 310 313 313 310 312 315 316 320 322 323 323 325 326 326 327 336 336 336 337 336 337 337 337 338 338 338 337 336 335 336 333 331 331 332 331 331 331 330 329 330
313 315 316 313 312 312 314 316 313 316 318 319 321 324 326 329 328 323 329 336 335 336 335 336 337 335 336 336 338 337 336 336 333 335 333 330 332 331 331 330 330 330 327 327
313 313 316 315 311 314 317 318 313 315 319 318 322 321 322 323 330 333 336 336 336 336 335 336 335 335 334 335 336 336 335 333 332 334 330 331 332 332 332 330 329 328 327 328
312 312 314 317 317 316 319 319 319 320 318 320 323 322 320 325 331 336 336 336 335 335 336 335 334 334 334 335 335 335 333 332 333 330 330 333 333 332 332 329 329 327 327 327
312 315 314 315 316 316 316 316 317 318 321 319 319 323 324 332 333 336 335 335 335 335 336 335 334 334 333 333 334 333 332 331 332 333 331 332 332 332 331 329 328 329 328 328
313 317 316 317 316 316 314 315 315 316 318 321 319 321 327 331 333 336 335 335 335 336 335 334 334 334 334 333 330 331 330 330 333 332 333 334 333 331 328 328 327 327 328 328
309 315 316 319 318 317 316 314 314 316 318 321 319 321 332 333 334 335 334 334 335 336 335 334 334 334 332 330 330 329 330 331 333 333 332 335 330 328 327 328 327 328 328 327
308 311 315 322 320 318 315 323 318 318 320 327 323 330 332 330 332 331 331 331 333 334 334 333 333 332 331 330 328 329 330 329 332 333 332 333 331 329 329 328 328 329 329 329
308 313 317 321 322 319 320 324 324 326 333 331 330 330 333 332 330 330 330 331 331 333 332 332 333 332 330 329 328 329 328 329 330 332 331 331 330 330 331 329 330 329 330 330
313 312 317 320 321 326 324 318 318 322 336 331 329 330 332 331 335 331 329 330 331 329 332 333 333 331 328 328 328 329 328 328 329 331 330 330 330 331 330 330 330 330 331 331
316 317 319 319 321 320 318 316 316 334 333 331 328 329 330 330 328 327 328 329 330 330 331 334 333 330 328 327 327 328 327 327 329 331 331 330 330 329 330 331 331 331 332 331
317 318 321 319 321 323 313 317 327 325 324 328 325 327 328 329 329 329 329 330 330 329 331 334 332 330 329 326 327 328 326 327 329 331 331 331 331 332 332 332 332 332 331 331
317 315 314 318 317 315 314 318 319 321 323 322 323 324 325 327 327 328 330 331 330 331 329 335 333 330 328 326 326 329 326 326 329 331 332 333 333 332 331 332 332 331 331 331
313 313 311 316 315 315 316 315 316 317 318 318 319 321 322 324 325 327 329 329 329 330 331 335 332 329 328 326 326 327 326 326 330 333 332 333 333 331 330 330 332 332 331 332
313 313 314 315 316 315 315 315 315 316 317 316 317 319 322 322 324 324 325 328 325 326 331 333 333 330 329 327 326 327 325 325 331 333 332 333 334 331 330 329 330 330 332 332
311 313 314 316 314 314 315 314 314 314 316 316 317 319 319 320 322 322 323 324 324 328 331 333 335 331 330 328 327 326 326 325 331 334 332 332 335 334 332 330 326 327 325 330

GFSCGP_925_thetae_024.txt.gz
Theta_e
307 306 308 309 311 313 317 318 319 319 319 320 321 322 322 322 323 322 322 323 324 324 323 324 324 325 328 329 328 330 335 340 341 343 346 343 344 344 344 342 340 339 339 334
308 308 308 310 312 313 313 315 317 316 317 320 320 321 321 322 323 323 323 323 322 322 322 323 324 327 328 328 329 332 335 341 344 344 344 344 341 340 338 336 336 335 334 335
307 309 310 310 311 313 314 314 315 316 316 315 316 318 319 319 319 320 321 322 321 322 323 323 323 323 324 331 335 336 339 345 347 346 344 344 341 337 336 335 335 335 334 336
305 305 306 308 311 311 314 314 315 315 316 317 317 319 318 318 319 319 320 319 319 321 321 322 322 321 331 335 342 346 347 348 348 347 345 342 337 335 335 334 333 336 336 335
305 306 306 307 309 312 312 315 315 316 316 315 316 317 318 319 320 320 320 321 320 320 321 321 319 325 335 341 347 349 349 349 347 347 345 343 338 337 337 335 334 335 334 334
306 306 306 306 307 307 309 313 314 315 314 316 316 316 317 317 319 320 320 320 321 320 319 319 330 337 338 342 349 349 349 348 347 346 344 342 338 335 335 335 335 335 334 333
311 311 309 308 308 308 307 309 312 315 316 318 316 316 317 317 318 319 319 320 320 321 330 336 337 338 340 343 345 345 346 344 343 340 338 335 335 335 335 334 335 334 333 333
308 308 312 313 311 307 305 306 311 315 318 317 316 317 317 317 317 318 319 320 331 335 335 336 337 338 341 342 342 340 340 339 338 335 335 334 334 334 334 333 333 333 333 332
314 313 311 310 310 309 310 306 307 311 313 316 317 317 317 317 317 317 318 330 335 334 336 337 338 339 339 338 339 338 338 336 335 335 334 333 333 333 332 332 332 332 331 332
310 312 310 310 309 309 311 311 310 309 314 315 318 318 318 320 319 319 318 332 335 336 336 337 338 338 337 337 338 336 337 334 335 334 334 333 334 333 332 331 330 330 331 328
310 310 310 311 310 309 310 311 308 309 312 316 318 318 316 317 319 322 320 335 337 337 336 337 337 336 336 337 336 335 335 334 335 334 333 333 332 331 331 330 330 330 329 329
311 311 315 311 309 311 311 311 313 312 310 314 316 318 317 318 318 321 334 337 336 335 335 337 336 335 336 335 335 335 335 334 335 333 332 333 331 331 330 330 330 329 329 330
311 309 311 308 310 314 313 316 317 314 311 313 316 317 317 317 320 327 335 335 336 335 337 336 336 336 335 335 334 335 335 334 334 332 332 331 331 330 330 330 329 328 326 327
311 309 311 308 312 313 315 316 315 317 318 314 314 316 316 317 321 334 335 336 335 337 337 336 336 335 334 334 334 334 335 333 333 334 331 330 331 331 331 329 327 327 327 327
311 313 312 313 313 314 317 316 315 316 317 319 318 318 317 317 319 334 335 335 336 337 336 335 335 334 333 333 333 333 333 332 333 331 331 332 332 331 330 329 328 326 326 327
311 311 314 313 314 315 316 316 315 314 315 315 316 318 318 333 332 334 336 336 337 337 336 335 334 334 333 332 332 332 331 331 333 332 332 332 332 330 329 328 328 328 328 326
311 312 314 314 316 316 318 316 315 313 316 318 319 318 319 336 337 333 335 336 336 336 335 334 334 333 333 332 331 330 330 330 332 332 333 332 330 329 327 327 327 327 327 328
308 308 314 314 316 319 316 319 322 316 315 317 327 323 322 329 334 334 332 333 335 335 334 334 333 332 332 331 330 330 329 331 332 333 335 331 328 327 327 327 326 328 328 329
307 309 313 316 314 318 322 319 321 324 328 330 331 330 332 331 330 332 332 331 333 333 333 332 333 332 329 328 328 328 330 332 332 332 334 331 329 328 328 327 327 328 328 329
313 308 312 316 319 319 321 314 315 318 331 329 329 329 331 331 333 333 328 330 328 330 329 331 332 330 328 326 328 327 328 330 332 332 332 330 329 329 330 328 329 329 329 329
315 316 314 315 312 318 312 312 314 329 333 325 328 328 331 331 330 328 328 330 329 328 330 331 330 328 326 326 327 326 326 327 331 331 330 330 329 330 329 329 330 330 331 330
316 316 319 319 319 320 312 315 325 323 322 323 324 326 331 330 329 328 329 330 330 329 331 331 328 326 325 326 326 324 325 327 330 330 330 329 330 329 329 330 330 331 331 331
316 313 314 314 314 309 312 318 316 317 318 320 321 323 327 327 326 327 325 325 327 331 331 330 327 325 325 326 326 324 326 326 330 329 329 330 331 330 330 330 332 331 331 330
312 311 309 312 315 314 314 315 316 316 316 317 319 321 321 323 323 324 323 324 328 330 332 330 327 326 324 325 326 326 326 326 330 330 330 331 331 332 332 332 331 331 330 329
312 312 313 314 315 315 315 315 315 316 316 317 317 317 319 318 319 320 321 322 324 325 329 331 328 326 324 325 326 326 325 327 330 331 331 332 332 331 331 331 331 330 330 330
310 312 313 315 313 314 315 315 315 316 316 315 316 316 316 316 316 317 318 319 323 323 324 329 329 327 325 324 325 327 325 326 330 330 331 331 331 329 329 329 330 330 331 331

GFSCGP_925_thetae_027.txt.gz
Theta_e
305 305 307 309 310 312 312 315 317 317 316 317 318 318 319 318 319 319 320 320 321 321 320 321 323 324 324 324 325 327 326 329 338 342 341 340 340 340 340 340 340 338 339 337
306 307 308 308 309 310 310 312 313 315 316 316 317 319 318 318 319 320 320 320 320 320 320 320 320 322 324 325 326 327 327 329 336 340 341 341 340 339 341 341 340 341 340 340
306 307 308 308 309 310 310 312 313 314 315 315 314 316 315 316 318 319 319 319 319 319 319 319 319 321 324 324 326 327 328 332 338 341 343 341 339 339 339 340 341 339 339 336
304 304 305 306 307 308 308 311 313 314 314 315 314 317 315 315 315 316 317 316 315 317 318 318 319 318 320 324 325 331 334 338 343 342 343 340 337 335 334 337 337 334 335 335
304 305 305 305 306 307 309 310 312 313 314 313 314 314 315 314 315 315 316 315 317 317 316 317 317 316 319 323 330 340 342 344 345 344 343 339 335 335 335 335 335 334 334 335
305 305 305 304 305 307 308 311 310 311 312 314 314 315 315 314 315 315 316 316 317 316 315 315 319 324 332 338 344 345 345 345 345 344 342 340 337 334 333 333 335 335 335 334
310 306 306 306 305 306 307 305 310 313 314 317 314 315 315 315 315 315 315 315 315 315 315 322 335 334 338 342 343 344 344 342 344 343 341 340 338 337 335 334 334 333 333 332
313 311 308 312 308 308 304 304 308 315 316 314 314 316 315 314 314 315 315 314 314 319 330 333 334 336 339 340 341 342 341 340 342 341 339 339 337 335 334 334 334 334 333 332
313 312 310 310 310 309 310 305 305 306 310 311 314 314 315 315 315 315 314 314 317 326 332 335 336 337 338 337 338 340 337 335 335 335 334 334 334 334 333 333 333 332 332 331
310 311 309 310 309 308 308 309 306 305 311 314 314 315 316 316 316 316 315 315 321 332 335 337 337 335 336 335 336 338 336 334 333 333 333 333 333 333 332 332 332 332 331 330
309 309 309 310 308 306 309 311 309 306 308 313 315 316 314 315 315 315 315 316 330 334 336 338 336 334 335 334 334 333 333 333 332 332 332 332 332 332 331 330 330 330 328 327
310 310 313 310 308 308 309 310 311 309 309 309 312 313 314 313 313 314 324 324 334 334 336 336 335 334 334 332 333 332 333 333 333 332 332 331 331 330 329 330 330 329 329 329
310 308 310 307 311 312 311 313 311 314 312 315 311 313 313 313 313 319 328 335 335 336 336 335 335 335 333 332 332 332 333 333 332 332 331 330 330 330 329 330 329 328 328 329
310 307 309 308 309 310 312 314 315 315 315 315 314 312 312 312 315 315 334 334 335 337 337 336 335 334 333 332 332 332 333 333 332 331 331 331 330 329 329 329 329 327 326 326
309 311 310 310 311 312 313 314 315 315 315 317 316 316 314 315 316 316 330 333 336 337 337 336 335 334 333 332 332 333 333 333 332 331 330 330 330 330 329 329 327 327 326 327
311 310 312 311 311 310 316 313 314 315 315 314 315 315 315 316 326 332 332 336 338 337 337 336 335 334 333 332 332 332 332 332 333 333 331 330 331 330 329 328 327 327 326 327
310 310 311 310 309 312 315 314 314 315 313 313 315 315 316 318 321 333 334 336 337 337 336 335 335 334 332 332 331 331 332 331 332 332 332 331 330 329 328 328 327 327 327 327
308 311 311 311 311 313 315 319 319 317 312 312 314 314 323 322 321 333 332 333 336 335 334 334 333 332 332 332 331 332 331 330 332 332 332 331 329 328 328 327 327 326 328 329
308 308 310 311 314 314 317 319 318 320 321 326 328 328 329 327 330 334 332 332 332 333 333 332 332 332 331 331 331 330 329 329 332 334 333 329 328 326 327 327 325 327 327 328
312 308 310 313 315 319 321 315 312 315 322 323 324 326 326 328 334 332 333 331 330 329 329 331 332 332 330 329 330 328 329 330 331 333 332 329 327 326 327 327 326 328 328 328
315 311 312 311 314 316 314 311 312 324 323 321 323 322 324 329 327 327 330 330 330 327 329 331 331 329 329 328 328 327 328 329 331 332 332 330 328 327 328 328 328 329 329 329
315 315 317 314 317 319 310 309 322 321 319 320 319 320 323 327 326 328 330 330 330 328 329 330 329 328 326 327 327 325 326 330 331 331 331 330 328 329 329 328 329 330 330 330
315 310 313 313 314 307 307 310 309 318 318 319 320 319 322 323 323 323 325 328 329 331 330 330 329 324 324 325 326 324 328 328 330 330 330 329 329 329 328 329 330 330 330 330
312 310 309 311 311 309 312 316 315 317 318 318 318 322 321 321 320 320 322 324 325 331 330 328 325 324 323 325 325 327 326 326 329 329 329 329 329 329 329 330 330 330 330 329
312 313 312 310 313 313 315 316 315 316 316 318 319 319 318 318 318 320 322 322 322 323 328 326 326 325 324 324 325 326 325 326 329 329 329 329 330 329 330 330 331 330 330 329
311 311 314 314 313 314 315 315 315 316 316 315 316 317 316 317 318 318 320 321 321 322 324 327 327 325 323 324 325 325 325 326 329 329 329 330 330 330 330 330 330 330 330 330

GFSCGP_925_thetae_030.txt.gz
Theta_e
304 304 305 308 310 311 310 312 315 315 315 316 316 317 317 316 316 317 317 318 319 319 319 318 320 322 323 323 322 323 323 324 328 337 339 338 338 338 338 338 338 337 335 333
303 304 305 307 308 309 309 309 310 312 313 314 314 314 314 314 315 316 317 317 316 316 316 317 319 321 321 321 321 324 324 324 331 337 338 339 338 337 338 339 339 338 336 334
304 305 306 307 307 308 309 309 310 312 313 313 313 315 315 314 313 314 315 315 316 317 316 317 318 317 320 320 322 322 324 323 329 338 339 340 339 338 338 339 339 338 338 337
303 303 304 305 307 307 307 310 311 313 313 315 313 316 314 314 314 313 313 314 315 315 316 316 316 316 318 320 321 322 324 326 329 336 339 339 338 336 338 339 339 339 339 339
306 304 304 304 304 306 307 308 308 309 311 312 313 313 314 312 312 312 313 313 313 313 313 313 314 315 317 318 319 323 330 334 337 339 340 340 338 337 338 340 340 338 338 338
308 305 304 304 304 305 306 308 309 310 310 312 311 313 313 312 312 312 312 312 312 312 312 312 312 317 325 331 332 337 339 340 340 341 340 339 337 336 335 335 335 335 333 335
311 306 306 305 304 304 305 306 309 311 312 312 311 312 312 311 312 312 312 312 312 312 312 312 314 330 334 337 337 340 341 340 341 340 338 337 337 337 336 335 334 333 333 334
314 310 308 308 305 304 303 303 308 314 314 309 313 314 313 312 312 312 312 311 310 310 310 317 331 334 338 337 338 339 340 338 339 338 336 336 336 335 334 334 334 334 334 333
314 313 311 311 310 308 307 304 304 305 307 308 311 311 312 313 313 312 312 312 311 310 311 330 334 337 337 338 338 339 338 337 337 336 335 335 335 334 333 333 333 333 332 332
310 311 310 311 311 309 307 307 305 302 308 312 311 311 313 313 313 314 313 312 312 316 331 334 335 336 334 335 336 337 337 336 335 335 336 335 333 333 333 333 332 332 331 331
308 308 308 309 308 305 308 308 309 303 306 311 314 312 311 312 312 312 312 316 324 325 334 336 335 334 332 334 333 332 333 332 332 333 333 332 332 332 332 332 331 331 330 328
309 309 312 310 307 307 307 309 309 309 309 306 309 309 309 310 311 311 314 331 331 333 334 335 334 333 331 330 331 331 331 332 332 332 332 331 331 331 330 330 329 329 327 327
309 308 309 307 311 309 310 311 309 310 311 311 310 309 309 309 312 312 313 331 333 334 334 334 335 334 331 330 330 330 331 331 331 331 331 331 330 329 329 329 329 327 328 328
309 306 307 306 308 309 311 311 311 314 314 310 310 311 311 311 312 313 317 327 334 336 336 335 336 333 331 330 330 330 330 331 331 330 329 329 329 329 329 329 328 328 328 328
307 309 308 309 309 310 311 312 312 312 314 316 314 315 314 312 313 313 319 324 335 337 338 336 335 333 330 330 330 331 331 331 331 330 329 329 329 329 329 328 328 326 325 326
308 310 309 309 309 310 312 310 311 311 312 313 314 314 312 312 312 315 322 330 337 337 337 336 334 333 332 331 330 330 331 331 330 330 330 329 329 329 328 327 326 326 326 328
310 311 309 308 308 309 308 307 308 309 312 312 315 312 311 313 316 318 327 331 336 337 337 335 335 334 332 331 331 330 331 331 331 331 330 329 329 329 328 327 326 326 326 327
312 310 308 308 305 306 306 311 315 312 312 312 311 311 313 317 322 324 325 330 335 336 336 334 333 332 331 331 331 331 330 331 332 332 331 330 330 328 327 327 327 326 326 327
308 309 310 307 309 310 310 315 318 318 317 316 313 311 314 324 326 330 331 330 332 332 332 332 332 331 331 331 331 331 329 329 331 332 331 331 328 328 327 326 326 326 327 328
310 308 309 311 312 314 315 314 312 314 319 322 323 324 325 324 332 332 331 330 329 329 330 330 331 331 331 330 331 330 328 329 331 332 331 329 328 326 326 327 325 327 327 327
313 312 311 311 312 311 313 310 309 322 320 321 321 320 321 324 326 326 330 330 330 329 328 330 330 329 330 330 329 328 328 328 330 332 331 328 327 326 326 326 326 327 327 328
314 315 313 313 314 314 308 307 317 317 319 319 320 321 320 320 323 327 328 330 330 330 328 330 330 328 329 329 328 327 327 329 330 331 331 328 327 326 327 327 327 328 328 327
313 310 311 312 313 308 305 306 307 308 311 320 320 320 320 321 321 322 326 329 329 329 329 330 330 326 327 327 328 326 328 329 330 331 330 329 327 327 328 328 329 329 328 328
310 307 308 309 309 308 309 309 316 316 317 319 319 321 319 319 321 322 323 322 323 329 330 329 327 325 324 326 327 329 328 328 330 330 329 329 328 328 328 328 329 328 328 328
312 312 312 311 311 311 309 313 314 315 315 316 315 317 318 317 319 321 322 322 323 324 328 327 326 326 324 325 326 327 326 328 329 329 329 328 328 328 328 329 329 329 328 329
311 312 314 315 313 312 313 313 314 312 315 315 315 315 315 317 318 319 319 320 322 324 325 325 325 324 324 324 325 325 326 327 328 328 328 328 328 328 328 328 328 329 329 329

GFSCGP_925_thetae_033.txt.gz
Theta_e
307 307 307 309 311 313 314 314 316 316 317 318 319 320 321 320 321 322 322 323 323 324 323 322 323 322 322 321 322 322 322 322 323 336 338 339 339 339 338 338 337 337 337 337
307 307 307 307 308 311 313 313 314 314 315 316 319 320 319 319 319 320 321 321 321 322 322 324 323 323 323 323 321 321 321 321 325 336 339 340 340 339 339 338 339 339 338 337
309 308 306 307 308 310 311 313 314 314 315 315 316 319 319 319 319 319 319 320 320 322 323 324 325 324 324 325 322 322 320 321 324 335 340 340 339 336 339 340 340 339 338 337
307 308 306 307 307 309 311 311 312 314 315 318 316 319 319 319 319 318 319 319 320 320 320 322 324 327 325 324 324 319 319 321 329 338 340 340 341 339 339 339 340 340 338 338
309 307 306 307 307 307 309 310 310 311 312 314 315 317 317 317 317 318 319 318 319 320 320 320 321 323 322 322 320 319 323 329 334 339 340 341 341 341 341 340 339 339 339 338
310 309 308 307 306 306 307 309 310 311 312 314 314 315 317 316 317 317 317 317 318 318 318 319 319 318 319 324 334 336 337 339 338 339 340 342 342 340 340 341 341 340 339 339
311 311 310 309 307 307 307 308 310 311 314 315 313 314 316 316 316 316 317 317 318 319 321 322 322 321 327 336 339 337 340 340 340 340 340 341 341 341 341 341 339 337 337 337
316 315 308 309 308 307 307 308 310 309 311 312 311 314 315 315 316 317 316 318 319 320 321 321 320 330 337 340 339 340 342 341 340 340 339 339 340 341 341 339 337 336 336 336
315 312 310 311 311 308 308 308 309 310 311 311 311 312 313 313 315 316 317 320 324 325 326 322 331 339 340 340 340 343 342 341 340 338 338 338 338 338 337 337 336 335 335 335
311 313 310 310 310 311 310 309 309 309 310 311 312 312 313 314 314 317 319 323 327 336 328 334 337 340 339 340 342 342 341 340 338 338 337 337 337 336 335 335 335 335 334 334
310 311 309 309 310 312 312 312 310 310 310 312 314 315 316 317 316 317 317 322 333 337 335 337 337 338 339 342 341 340 338 338 337 337 336 335 335 335 334 335 334 334 333 333
310 313 312 308 308 309 309 310 312 313 311 310 311 313 315 316 315 316 316 317 327 336 334 336 338 339 340 341 339 339 338 337 336 335 335 335 334 334 334 334 333 332 332 330
310 311 311 308 312 311 310 310 312 314 313 314 312 312 314 314 314 316 316 316 320 336 337 337 337 339 341 340 338 337 336 335 334 334 334 334 333 333 333 332 331 331 330 330
310 311 310 311 309 310 311 311 311 312 315 313 313 313 313 313 315 315 316 317 321 337 337 337 338 340 341 339 336 335 334 333 333 333 332 332 332 332 332 331 330 330 330 330
310 311 310 310 310 310 310 310 311 311 311 314 313 313 313 314 316 315 316 318 319 332 338 338 338 340 339 338 335 334 333 333 332 330 331 332 331 331 331 330 329 329 330 329
311 313 310 310 309 308 308 308 309 310 311 312 312 313 313 314 314 315 315 316 319 329 337 337 337 338 339 337 335 334 333 332 331 331 331 331 331 331 331 330 329 328 328 331
312 313 312 310 308 308 310 309 309 309 310 311 312 311 311 313 315 316 319 322 323 330 339 338 339 340 338 336 335 334 332 331 332 331 332 331 331 331 330 328 329 329 330 329
312 312 311 310 310 310 307 311 312 314 316 316 313 311 312 312 314 316 318 322 326 334 338 341 340 339 337 335 334 334 332 331 331 332 332 332 331 330 329 328 329 329 327 327
309 311 312 310 311 308 309 315 316 316 316 316 313 313 313 313 314 321 321 327 333 336 338 340 338 337 336 335 334 333 332 332 332 333 333 332 331 330 329 329 330 328 326 327
309 309 310 310 311 312 315 314 311 312 319 317 315 314 314 315 325 323 328 334 335 337 338 339 337 336 336 335 334 332 331 332 333 334 333 331 329 329 329 329 329 327 327 329
314 313 311 310 313 313 312 310 309 319 321 318 320 322 323 323 324 327 329 334 336 337 337 337 336 336 335 333 333 333 332 332 332 334 333 330 329 328 329 329 329 329 330 330
314 316 315 314 314 315 307 307 315 314 310 311 313 322 323 324 324 325 328 334 335 335 336 336 337 336 335 333 332 332 333 332 332 334 332 330 329 328 329 329 329 330 331 330
315 310 313 312 314 309 307 303 303 305 306 309 312 322 323 326 326 327 331 333 334 333 335 335 336 335 333 333 332 332 332 332 332 334 332 331 329 329 330 330 331 331 331 330
310 307 308 309 311 310 311 309 313 317 315 317 318 320 321 323 325 327 328 331 332 332 334 334 334 335 333 332 332 332 332 331 332 333 331 331 330 330 330 331 331 331 331 330
313 312 312 311 311 310 311 311 313 314 315 314 316 316 318 323 325 325 327 328 329 330 332 333 333 334 334 332 332 331 330 331 332 333 330 331 330 331 331 331 331 332 331 331
312 312 313 314 312 312 312 313 311 313 314 313 313 313 312 316 321 325 326 327 328 330 330 331 332 333 333 332 332 331 330 330 332 332 331 331 331 331 331 329 327 329 329 328

GFSCGP_925_thetae_036.txt.gz
Theta_e
311 311 310 310 310 310 312 315 317 317 318 319 321 321 322 323 324 325 326 327 328 328 328 326 325 325 325 326 328 330 332 335 336 334 338 340 341 342 342 341 342 342 342 341
310 311 311 309 309 310 311 314 317 317 317 319 320 321 321 322 323 324 325 326 326 326 326 326 325 324 325 327 330 332 334 335 338 335 339 341 342 342 343 342 343 342 342 342
309 310 310 309 309 309 310 311 314 316 317 319 320 321 322 322 323 323 323 324 324 324 325 325 326 325 325 327 329 331 333 335 338 337 342 344 345 344 344 342 343 343 343 341
310 308 309 310 310 309 310 310 311 313 316 318 319 322 321 321 322 322 323 323 323 324 324 324 325 326 325 325 327 329 333 333 336 341 341 344 344 343 342 344 342 342 341 341
310 310 310 310 310 309 309 310 310 313 315 316 317 319 320 321 321 322 323 322 323 323 323 324 324 324 323 323 325 327 330 331 335 340 341 345 343 344 345 343 339 340 341 340
311 311 312 312 310 309 309 309 309 313 315 318 318 319 320 320 320 321 321 321 321 321 321 322 322 322 322 323 324 326 333 337 340 342 344 345 345 345 345 345 343 344 343 342
311 312 312 312 311 310 309 309 310 311 315 316 316 317 318 320 319 319 319 320 321 321 323 324 325 325 325 326 328 336 340 342 343 343 344 345 347 346 347 346 345 345 344 343
314 312 314 311 311 310 310 309 309 311 313 313 314 317 317 317 318 318 318 320 321 322 324 326 329 327 324 327 336 341 341 343 344 345 346 347 347 347 347 346 346 344 342 341
313 312 310 312 313 311 311 312 311 310 310 315 313 315 316 317 317 319 319 323 326 330 333 334 332 329 334 340 343 345 345 345 345 346 347 347 347 347 346 344 342 341 339 340
310 314 310 312 310 311 312 310 316 311 314 313 313 315 316 317 316 317 319 323 325 336 337 336 335 337 342 344 347 346 346 346 346 346 346 346 346 345 344 342 338 338 339 338
309 311 311 310 311 311 311 314 315 315 311 311 314 315 316 317 319 320 320 321 322 334 339 340 340 342 343 347 347 347 347 346 346 345 344 344 343 342 340 339 339 340 339 338
309 312 312 310 309 310 311 314 315 322 315 312 315 318 319 320 319 320 320 320 321 334 338 338 340 343 347 346 346 346 345 345 344 343 343 342 339 339 339 339 339 338 337 334
311 311 312 310 313 312 311 310 311 313 316 321 314 317 319 318 317 318 319 319 320 327 339 339 341 344 344 345 345 345 344 343 342 340 339 339 339 339 338 338 337 335 333 331
310 313 312 313 311 310 311 311 311 312 315 314 315 316 317 318 317 317 319 318 318 321 340 340 341 343 343 343 343 342 340 339 338 337 337 338 337 337 336 335 335 333 331 331
311 315 312 311 311 310 310 310 310 311 312 313 313 315 315 316 316 317 318 316 317 320 332 340 340 342 341 341 340 339 337 336 335 334 333 333 334 334 334 333 332 331 331 331
312 316 313 313 311 310 310 309 309 309 310 312 312 312 313 313 313 314 315 316 317 320 325 340 339 341 341 339 339 337 335 334 330 330 332 333 334 334 333 332 332 331 330 330
313 312 314 315 311 311 311 310 309 309 310 311 312 311 312 312 313 314 314 316 319 319 324 340 339 341 342 338 337 336 333 330 330 331 332 333 333 333 333 331 330 330 331 331
312 313 314 314 313 313 309 310 311 313 313 312 312 312 314 314 313 313 314 316 318 320 326 341 341 342 340 337 336 334 330 330 331 331 332 332 333 332 331 330 329 330 331 331
309 311 314 314 313 311 309 312 315 317 317 316 316 316 316 315 314 314 315 316 321 325 334 341 341 340 338 337 336 332 329 330 331 332 332 332 332 331 330 329 330 330 331 331
311 311 314 312 315 315 316 315 312 314 318 318 317 317 317 314 315 315 321 334 335 338 339 341 340 339 338 336 334 330 331 331 332 332 332 332 330 330 330 329 330 331 330 329
315 314 315 314 315 314 313 311 310 319 320 318 318 318 323 319 316 318 323 326 332 339 340 340 339 338 337 335 333 329 331 332 331 333 332 332 329 328 329 330 331 331 331 331
316 318 319 317 318 318 310 308 314 315 313 313 314 314 319 323 322 322 324 329 331 339 340 339 339 337 336 335 331 329 332 331 332 333 332 331 329 329 330 330 331 331 332 332
318 313 315 314 316 312 311 307 305 305 306 310 314 314 318 324 325 326 330 332 336 338 339 338 338 336 334 332 328 331 332 332 333 332 331 331 330 330 331 331 332 333 333 333
314 308 310 310 314 312 313 311 310 313 315 313 313 315 322 325 327 328 332 333 335 337 338 337 335 334 332 329 329 331 333 332 333 333 331 331 331 331 331 331 333 334 333 333
314 313 312 314 314 314 311 312 311 313 314 314 316 316 319 323 328 329 331 334 335 336 338 336 333 331 330 329 330 331 332 332 333 334 332 331 331 332 332 332 332 334 333 331
314 314 315 318 314 313 312 311 309 311 313 313 313 314 314 319 325 328 331 333 334 335 335 337 334 331 328 327 330 331 331 332 333 333 332 329 330 331 331 331 330 329 329 329

GFSCGP_925_thetae_039.txt.gz
Theta_e
313 314 315 314 313 313 313 312 313 316 318 319 319 321 322 323 324 325 328 329 331 331 331 330 330 331 330 330 331 334 335 336 335 335 337 335 338 340 344 344 344 344 346 345
311 312 312 313 313 312 311 313 314 314 315 319 320 321 321 323 323 324 325 327 329 329 330 331 330 329 330 331 332 332 335 337 339 336 337 336 339 341 344 344 344 346 346 346
311 311 311 311 311 312 311 312 312 313 315 317 320 321 322 322 322 323 323 324 326 327 329 330 330 331 330 331 332 332 335 337 340 338 336 341 344 346 345 346 346 346 346 344
310 310 310 310 310 311 312 312 311 312 313 315 318 323 322 322 323 323 324 324 325 326 326 327 328 332 330 330 329 330 333 337 340 342 337 342 345 345 346 347 347 344 344 344
309 310 311 311 311 312 311 311 311 311 312 314 314 318 319 321 323 323 324 324 325 325 327 327 327 327 326 327 329 330 333 338 339 340 340 342 346 344 345 346 348 344 344 343
311 312 313 311 312 312 313 311 311 312 312 314 314 317 318 320 321 322 323 324 324 324 325 325 325 326 325 324 325 329 334 337 339 338 344 347 347 347 347 347 344 343 342 341
311 311 313 313 315 313 312 311 311 311 312 313 314 318 318 319 320 321 322 323 324 324 324 324 324 325 325 325 324 326 329 334 337 340 344 346 349 351 351 346 343 344 343 344
312 315 312 311 315 315 314 311 311 311 311 311 313 315 317 319 321 321 321 321 321 324 324 324 326 326 327 326 326 327 331 340 343 345 347 348 349 349 350 346 347 346 345 345
313 313 310 311 314 312 314 313 313 315 314 315 313 314 317 317 319 320 321 322 323 325 327 329 330 332 332 326 327 336 340 342 345 346 347 349 349 349 348 350 348 346 345 345
310 311 310 312 313 313 313 315 318 316 314 313 313 315 317 316 318 320 321 324 325 325 333 336 335 334 331 335 343 344 344 346 347 348 349 349 351 350 350 347 346 344 343 341
309 311 311 311 312 315 314 315 315 318 316 315 313 317 317 319 318 320 321 323 324 330 340 340 341 341 344 344 347 348 347 347 347 348 350 349 349 348 346 344 342 342 340 339
311 313 313 311 311 313 311 311 314 317 315 318 317 316 317 321 323 321 322 322 323 334 341 340 342 344 346 346 347 348 347 348 348 347 347 347 346 344 342 341 340 339 338 337
315 313 315 312 310 315 315 314 314 315 316 320 322 322 320 322 322 322 322 321 321 325 342 343 343 348 346 346 346 347 346 346 346 345 345 344 342 341 340 340 339 337 336 334
311 315 314 314 311 314 315 314 313 317 318 317 317 316 317 318 320 320 320 320 319 323 343 343 344 346 346 345 345 344 343 343 343 342 341 341 340 340 339 338 337 335 333 333
312 315 313 313 312 311 311 311 310 311 311 313 313 312 315 317 319 319 318 317 319 321 332 343 342 345 346 346 343 342 341 340 339 339 339 339 338 337 336 334 333 333 332 332
313 317 314 313 312 312 311 311 310 310 310 310 310 311 312 313 315 315 316 316 317 321 325 342 342 343 343 343 341 339 338 337 336 336 335 334 333 333 334 334 333 332 331 330
315 314 314 315 312 312 314 311 310 310 310 310 310 311 312 313 314 315 316 316 317 319 321 341 342 342 342 340 339 338 336 334 332 332 332 333 333 334 334 333 332 331 330 330
313 314 313 316 315 316 311 310 311 311 312 313 313 311 312 313 313 315 315 316 316 318 321 340 341 341 341 339 337 335 332 331 331 331 332 332 333 333 332 331 330 331 332 333
312 314 315 317 319 314 313 317 317 318 317 315 316 317 315 316 317 317 317 316 317 320 328 337 340 342 339 338 336 332 331 331 331 331 332 332 331 331 331 331 331 331 332 332
313 312 316 316 320 318 317 315 314 315 319 320 320 319 317 317 318 316 317 325 330 331 333 340 341 340 338 338 334 331 331 330 331 331 333 332 331 330 330 330 330 331 332 331
318 315 316 315 317 316 315 311 309 319 319 315 316 319 321 324 323 321 320 324 326 331 331 340 341 340 338 336 332 331 330 332 332 332 332 332 330 330 330 331 331 330 331 330
320 320 322 321 321 323 312 312 313 315 313 311 314 317 320 321 322 325 323 325 330 333 340 340 341 341 337 335 331 331 332 333 333 333 332 331 330 330 330 330 332 332 333 333
319 316 316 316 318 314 313 312 310 309 308 309 311 314 318 322 322 324 326 329 333 334 340 340 337 337 336 333 330 331 333 333 333 333 331 330 330 329 330 332 332 334 335 335
315 310 312 314 314 314 314 310 309 309 312 318 316 315 318 318 326 329 329 332 334 338 338 337 337 337 335 331 329 332 332 333 333 331 330 330 331 332 332 333 334 335 337 335
316 315 315 316 314 313 312 312 310 309 311 314 315 317 319 321 327 330 331 334 334 337 339 336 335 334 332 329 330 332 333 333 332 330 330 331 331 332 334 333 334 336 332 331
315 316 317 316 314 313 313 312 309 310 312 312 313 315 317 320 324 329 329 333 334 338 339 334 331 330 329 329 331 332 333 333 332 331 330 331 330 332 333 332 330 329 329 330

GFSCGP_925_thetae_042.txt.gz
Theta_e
313 313 314 315 316 315 315 314 314 315 315 315 316 320 321 323 323 323 326 328 328 329 331 333 331 335 334 334 334 334 335 333 336 342 340 341 342 340 342 344 344 345 348 348
312 312 313 313 313 314 314 314 314 314 314 315 316 317 319 322 322 324 326 326 327 330 332 331 332 336 335 336 335 335 335 335 333 335 337 339 339 338 340 343 345 345 348 348
311 311 311 312 312 312 313 314 314 313 313 313 314 316 319 319 323 323 324 326 328 328 329 331 335 336 337 334 334 335 334 333 331 331 338 340 335 338 346 346 346 346 347 348
311 310 310 310 311 311 311 311 312 313 313 312 313 316 319 319 322 323 323 325 326 327 327 327 330 335 335 333 332 335 334 332 331 333 344 342 343 344 345 347 348 348 347 347
310 310 311 312 311 312 312 312 313 312 313 313 312 313 315 317 319 322 325 325 326 326 327 326 325 328 329 328 327 328 330 334 335 339 340 343 346 345 345 348 349 348 347 347
310 311 312 313 313 314 314 314 314 313 314 314 312 313 315 316 318 319 322 325 325 326 326 327 328 326 325 325 328 331 333 331 336 337 344 344 347 345 348 349 350 346 345 344
310 311 312 314 314 313 316 315 317 314 315 314 312 313 316 316 316 317 320 323 324 325 328 328 328 328 328 327 326 327 335 338 341 342 347 341 345 344 353 351 348 345 344 343
310 311 312 313 312 313 314 318 321 315 312 311 312 313 314 315 316 318 320 321 323 325 326 327 328 330 328 328 328 328 330 340 343 343 341 345 341 352 353 347 345 344 343 342
310 311 310 310 311 313 315 312 316 318 317 319 312 311 312 314 316 316 320 321 324 324 325 328 328 328 329 328 332 329 331 333 334 340 345 349 350 352 350 347 344 344 343 344
311 312 310 310 310 314 316 313 316 319 321 315 313 311 312 314 317 316 319 323 323 326 327 330 333 336 335 335 333 331 332 342 347 348 350 351 353 352 351 348 349 347 347 345
312 311 313 313 312 311 314 315 315 317 317 316 316 314 316 322 321 319 320 322 325 325 325 331 338 339 337 341 345 345 344 348 349 348 349 351 351 352 352 350 347 346 345 344
313 315 315 312 311 311 312 312 317 313 315 316 315 317 318 318 316 315 316 324 323 326 338 338 339 346 343 343 346 349 349 348 349 349 350 352 350 349 347 345 345 343 342 340
315 314 315 312 311 314 315 315 314 316 318 318 319 317 316 316 314 315 318 322 322 323 342 340 340 343 345 347 346 348 348 348 349 349 348 348 346 344 343 343 341 340 338 338
312 315 315 316 313 314 316 314 314 315 319 318 317 317 317 316 315 316 317 319 320 322 340 341 345 347 348 346 347 348 347 347 346 345 346 344 344 344 343 341 340 339 336 334
313 316 314 313 312 312 314 315 314 314 313 314 311 311 313 317 315 315 315 318 318 320 336 342 346 348 347 344 345 345 346 345 345 344 344 344 343 342 341 339 337 334 334 331
315 319 315 315 312 311 312 311 311 311 310 310 310 310 311 313 314 315 317 316 317 318 324 340 341 344 342 343 343 343 343 342 342 342 342 342 340 339 337 335 332 332 333 331
315 317 316 317 312 315 316 312 314 312 311 310 309 312 314 311 313 316 315 316 317 317 319 336 339 342 344 343 341 340 340 340 339 338 337 335 334 333 332 332 332 332 330 330
315 315 316 318 315 316 314 314 316 316 315 316 316 316 315 316 316 313 314 316 316 317 319 333 341 342 342 340 338 338 337 336 335 334 333 333 334 333 333 332 334 329 329 331
314 315 318 316 316 316 315 318 316 316 316 314 318 319 317 316 317 319 319 318 318 319 333 336 341 340 341 339 336 335 334 333 332 332 334 334 334 333 332 333 331 331 333 332
316 314 317 316 319 319 318 314 312 314 317 316 316 318 320 321 317 319 324 325 324 329 330 336 338 340 342 338 334 334 333 333 332 333 334 333 333 332 332 332 331 332 332 333
321 316 316 317 319 317 314 313 310 318 317 314 313 313 315 320 321 323 323 324 326 329 332 331 338 339 340 337 334 334 333 333 334 333 332 332 332 332 331 330 330 332 332 332
319 318 317 319 319 321 314 312 314 314 311 310 310 311 313 315 318 321 321 325 329 330 333 335 338 340 339 336 334 334 336 334 333 332 331 333 330 329 332 329 330 331 332 332
320 318 319 317 318 315 314 313 310 311 309 309 310 316 315 316 318 321 323 329 331 332 335 337 338 341 339 333 333 337 335 334 334 333 332 331 331 331 333 330 330 332 331 333
316 313 314 317 314 315 313 312 312 309 309 310 314 318 318 321 321 322 324 330 332 335 334 338 340 338 336 333 336 336 334 334 334 333 332 330 331 333 330 332 333 333 333 335
318 316 317 316 314 314 312 312 311 309 310 311 313 314 317 318 320 322 325 331 333 335 335 338 338 336 335 332 335 335 334 333 334 332 332 332 332 332 333 331 333 331 332 333
317 317 318 318 314 311 311 312 311 309 310 311 312 313 314 316 319 323 326 330 332 335 336 337 337 334 331 331 335 335 333 332 332 333 332 332 333 333 333 330 327 328 329 331

GFSCGP_925_thetae_045.txt.gz
Theta_e
309 308 308 310 311 312 312 313 314 314 313 312 311 312 313 314 314 317 319 319 321 325 325 325 326 327 330 333 333 332 334 335 337 340 345 343 341 341 345 346 344 346 347 349
308 308 310 310 310 311 311 311 311 313 314 312 312 312 312 313 313 315 317 319 319 323 324 324 324 325 326 331 337 338 335 335 336 336 340 340 340 343 343 339 337 342 344 348
308 309 310 310 309 309 309 310 310 311 312 312 312 312 311 312 313 314 316 318 320 320 322 323 325 327 330 332 339 337 335 334 334 333 338 338 337 337 339 343 341 341 344 349
309 309 309 309 310 310 309 311 312 313 311 310 312 312 311 311 312 313 314 316 316 317 320 321 322 324 329 339 339 336 335 333 332 331 330 330 338 340 337 335 341 344 346 349
309 309 309 310 312 313 313 313 314 314 313 312 311 310 311 311 312 312 312 313 315 317 319 321 319 319 323 328 337 335 333 333 332 331 332 332 336 338 338 340 348 347 348 348
309 309 311 312 313 314 313 313 313 313 312 314 312 312 312 310 311 312 312 314 314 315 319 319 319 321 321 324 325 329 334 335 333 332 332 334 340 342 343 347 349 348 347 348
308 308 309 313 313 312 311 313 319 314 312 314 312 313 312 310 311 313 313 313 314 313 317 319 319 320 321 322 324 325 327 332 333 333 333 334 338 341 343 350 349 348 347 347
309 311 309 313 313 311 310 315 315 318 319 319 313 314 311 311 311 315 315 314 314 315 315 317 319 320 321 323 323 324 324 328 334 337 339 339 339 342 348 350 348 347 346 345
311 311 311 310 310 310 310 315 316 318 317 318 314 313 312 315 317 316 315 315 315 315 317 317 318 320 321 322 323 323 324 325 331 337 340 340 342 342 350 350 347 346 345 343
312 314 311 310 311 311 310 312 315 317 320 317 313 312 315 319 317 315 314 314 316 318 321 318 318 319 321 323 326 327 328 335 341 342 341 343 344 344 350 348 346 344 342 341
312 313 313 311 311 310 311 316 316 316 316 316 315 314 320 317 315 314 314 314 316 319 320 323 321 331 334 332 333 331 333 337 339 340 340 343 348 352 349 346 343 342 342 343
313 314 314 313 311 311 312 315 315 318 319 317 317 315 316 314 313 314 314 315 315 317 318 320 324 336 342 341 343 340 343 346 346 347 348 349 349 352 348 346 347 344 346 345
314 313 315 312 310 313 314 312 312 314 314 316 317 316 315 315 314 313 314 316 317 318 318 319 328 330 339 340 347 348 347 348 348 346 348 351 350 350 348 348 347 346 344 342
312 314 314 315 313 312 314 313 313 313 314 315 315 315 315 316 315 315 316 316 317 315 316 319 319 329 339 340 346 346 348 349 347 348 349 346 344 345 345 344 342 340 339 338
315 316 314 315 315 314 313 313 312 313 313 315 313 313 311 315 316 315 315 316 316 315 314 316 325 336 338 343 346 346 346 346 346 344 344 343 343 342 340 340 338 338 335 333
314 316 316 316 315 314 314 313 313 313 313 315 314 315 314 314 313 313 314 313 313 314 315 321 337 338 341 339 344 345 345 345 345 344 343 343 341 340 339 338 335 333 332 332
309 313 315 314 314 314 312 314 316 316 315 315 316 315 315 316 314 313 312 313 312 313 315 322 337 338 334 336 342 343 344 343 343 342 341 341 340 339 337 332 330 330 332 331
312 314 314 316 315 316 312 316 315 315 314 315 314 316 318 319 319 319 316 318 318 315 328 333 336 335 335 337 341 342 342 341 340 339 338 337 336 334 330 330 331 331 331 332
313 314 314 313 313 315 314 316 315 315 314 316 315 314 315 315 316 319 319 319 322 325 326 327 334 328 327 331 338 337 336 335 335 333 334 333 331 330 332 333 331 331 331 333
316 315 316 314 315 312 317 314 313 312 315 314 311 311 311 312 316 318 316 316 320 322 326 330 332 334 330 335 334 334 333 332 332 333 333 332 332 332 332 332 332 332 331 331
317 316 314 315 316 315 313 313 311 314 316 310 309 309 309 311 311 312 312 314 319 321 326 331 331 333 338 334 333 331 331 331 334 334 333 333 332 331 332 331 332 331 332 332
316 315 316 317 317 313 312 312 314 313 310 310 310 310 310 311 311 312 312 316 320 324 328 331 331 334 337 333 332 331 332 333 333 333 332 332 332 332 331 331 331 332 332 332
313 316 315 315 314 314 312 312 312 311 312 311 310 310 312 315 315 313 314 319 322 326 331 332 334 336 337 334 333 333 333 332 332 332 332 332 332 331 330 330 332 332 332 332
314 312 313 314 313 313 313 312 309 311 311 310 310 311 313 315 317 318 319 320 322 326 331 333 336 334 334 334 333 333 333 333 332 332 332 331 333 332 330 330 330 330 332 331
312 315 316 316 313 313 313 310 310 311 310 309 310 312 313 314 314 316 318 319 323 327 331 332 335 336 334 334 334 333 334 332 332 332 332 332 333 331 331 331 331 332 331 332
316 317 316 314 312 312 310 309 311 310 309 309 311 312 313 313 314 316 319 321 325 329 332 333 335 334 335 334 334 334 333 332 331 331 332 333 332 330 330 328 327 330 331 332

GFSCGP_925_thetae_048.txt.gz
Theta_e
307 306 306 308 308 311 311 311 310 310 311 311 310 311 311 310 311 310 311 312 314 316 318 321 325 326 325 327 333 332 332 332 338 347 349 349 348 348 346 344 345 347 348 348
306 306 308 309 309 308 307 308 308 309 310 310 310 311 311 310 310 309 310 311 312 314 316 318 320 324 324 325 327 330 334 339 347 345 344 347 347 344 340 339 339 342 344 346
307 307 309 309 308 309 308 308 312 312 313 311 309 310 309 310 310 310 310 310 311 313 316 317 320 322 323 323 324 326 331 335 346 344 348 348 346 342 343 343 342 341 342 343
307 307 308 308 308 312 312 313 313 313 312 312 311 313 311 310 310 310 309 308 309 311 312 314 316 317 322 327 328 328 332 336 344 346 343 342 339 339 338 337 337 336 340 341
308 308 308 308 312 312 311 313 312 313 312 311 312 310 311 309 310 310 310 309 309 309 308 311 313 317 319 322 327 327 330 337 339 340 337 337 338 336 333 334 334 334 334 339
307 308 310 311 312 312 313 311 311 312 311 313 312 311 311 310 310 310 312 313 312 313 311 311 313 317 318 320 326 331 336 337 336 335 336 335 335 333 333 334 337 340 342 347
307 307 310 312 311 311 310 309 310 313 310 313 311 312 311 310 313 314 315 314 313 313 313 315 315 312 315 317 321 329 335 335 334 334 333 332 331 330 331 334 341 345 348 348
307 310 309 313 311 309 308 309 309 315 315 316 314 314 312 315 315 314 313 312 312 313 314 316 317 317 313 316 319 322 329 333 333 332 331 332 334 334 333 337 342 346 347 347
310 312 311 310 310 310 310 312 311 311 317 320 314 311 310 315 314 313 312 312 311 311 313 315 317 318 322 316 317 319 321 325 328 331 332 333 334 336 336 340 345 346 346 347
311 312 311 311 310 309 309 309 311 311 317 319 314 312 311 317 315 313 312 311 311 311 312 314 316 317 320 325 319 319 320 321 324 326 330 333 337 338 340 344 347 347 346 346
312 312 312 311 310 310 309 311 315 314 317 318 317 311 315 316 314 312 312 311 311 312 313 315 315 316 318 322 328 321 320 320 323 329 333 338 341 343 344 346 348 347 345 344
312 312 313 313 311 311 310 312 314 315 319 319 319 315 310 313 312 311 311 312 312 313 314 315 314 314 319 320 325 332 325 328 331 335 339 344 344 344 344 346 347 345 342 341
312 310 315 310 310 310 312 312 313 312 312 315 316 312 312 313 314 311 311 313 314 314 315 314 313 314 316 320 325 336 335 337 339 341 341 342 345 346 346 346 344 341 341 342
311 313 312 314 314 313 313 313 313 311 312 313 313 312 311 311 313 312 313 313 312 312 314 314 314 314 314 318 327 339 342 342 342 344 346 347 349 347 346 344 343 343 343 343
313 317 314 314 314 314 315 315 315 314 311 313 313 312 311 312 313 312 313 312 313 313 314 314 314 314 314 317 329 336 345 346 346 346 346 345 346 345 345 344 343 343 343 339
313 316 316 317 314 313 314 314 313 313 312 314 314 314 312 311 313 312 312 312 312 313 315 314 313 316 326 325 335 333 343 344 344 343 342 342 341 341 340 342 341 339 338 335
311 313 314 315 313 314 315 315 316 316 314 314 315 312 311 315 314 314 313 315 320 321 323 325 329 332 333 336 330 328 335 343 342 342 341 341 340 338 337 336 335 332 332 332
312 310 315 315 311 316 315 314 313 314 313 313 313 314 311 310 310 310 311 318 316 315 319 324 329 329 328 329 327 325 335 342 342 341 340 339 338 336 333 333 332 332 332 332
309 312 314 315 312 312 315 315 316 316 313 312 313 311 310 309 309 310 315 311 311 312 316 322 328 329 329 327 327 326 331 341 340 339 338 337 336 331 330 330 331 332 332 331
313 313 314 314 314 310 314 315 312 312 315 313 310 310 310 309 310 311 309 310 311 311 315 322 327 329 327 326 325 325 338 336 335 334 334 333 331 329 330 331 331 331 331 332
316 317 316 315 314 313 313 314 311 311 313 311 309 311 310 311 311 310 310 311 311 311 317 324 329 331 328 328 331 334 333 333 333 332 331 330 330 331 331 331 331 332 331 331
309 313 313 316 316 312 311 310 311 312 310 310 309 311 310 310 311 312 315 314 312 314 320 324 329 329 329 327 331 329 332 332 332 331 331 331 331 332 331 331 331 331 331 330
310 312 314 314 312 312 310 308 309 310 311 310 311 310 309 311 312 314 314 316 316 318 321 324 330 331 327 327 332 331 331 332 332 331 331 331 331 331 331 331 331 331 331 328
309 310 312 313 314 312 311 311 310 308 310 311 309 309 310 312 313 314 313 314 316 317 320 325 331 326 328 332 332 330 331 331 331 331 331 331 331 331 331 331 331 331 329 328
308 312 312 311 313 312 311 311 308 309 310 309 308 309 311 312 314 314 314 315 317 319 322 327 331 333 332 332 331 331 331 331 330 330 330 331 330 330 330 330 329 330 330 330
313 315 315 316 314 311 310 307 308 309 310 308 309 310 310 311 312 313 314 316 320 323 325 330 330 332 331 333 332 331 331 331 330 331 330 330 327 327 326 326 325 329 330 330

GFSCGP_925_thetae_051.txt.gz
Theta_e
306 304 307 307 307 309 309 310 308 308 308 309 308 309 309 309 309 308 308 309 310 311 312 314 316 319 327 333 335 337 338 337 337 339 341 340 337 337 336 341 343 343 343 344
304 306 306 307 308 308 307 307 309 309 312 311 311 311 310 308 308 308 308 309 309 309 311 312 314 316 320 324 332 334 334 335 334 334 341 343 343 344 343 345 346 346 347 347
306 307 307 308 307 310 310 312 312 312 312 311 310 310 309 309 308 308 308 308 307 308 309 310 311 313 315 319 322 326 328 328 332 333 341 345 346 346 346 346 346 346 347 343
306 306 308 307 307 311 310 312 312 312 312 311 311 310 309 310 309 308 307 306 306 306 306 307 308 309 311 313 317 320 324 328 327 331 338 343 344 344 343 344 344 342 339 337
307 308 307 308 309 311 309 312 311 311 311 311 311 311 309 308 309 309 309 309 311 310 310 311 311 312 313 314 315 317 322 325 326 329 339 344 344 342 342 342 340 339 339 341
306 307 308 309 311 310 311 310 307 309 309 312 310 310 310 307 307 307 313 313 312 311 311 311 313 314 316 317 316 315 320 328 331 331 336 344 343 340 338 337 337 336 335 335
306 307 310 311 310 308 308 306 307 309 310 313 310 312 310 310 311 314 314 312 311 310 310 311 311 313 315 316 319 317 316 328 333 333 338 341 340 339 339 336 333 333 334 336
306 309 308 312 309 308 308 307 306 309 311 308 309 313 311 314 313 313 313 311 310 310 308 309 310 312 314 316 320 320 315 317 328 334 336 338 339 338 336 334 332 331 332 333
310 311 310 310 309 309 309 311 308 306 311 313 311 311 309 313 313 312 311 311 309 308 308 309 309 311 314 316 317 319 322 320 318 329 335 335 337 335 333 331 330 331 334 339
310 312 310 310 310 309 308 307 309 308 315 315 313 312 312 309 310 312 312 310 308 308 309 311 311 311 313 315 315 319 322 327 320 320 330 332 332 332 333 333 333 336 339 343
311 310 311 311 310 309 308 309 312 310 313 314 314 312 309 311 312 312 311 310 308 308 310 311 311 311 313 314 314 318 320 326 325 318 323 330 331 332 333 334 335 338 342 344
311 310 313 312 311 310 309 309 311 314 313 314 315 314 310 310 308 310 310 310 309 310 311 311 311 312 313 312 313 316 320 326 330 319 321 327 330 333 336 338 338 342 344 344
311 309 314 310 309 309 311 312 313 313 313 315 313 311 309 309 310 309 311 311 310 310 310 311 311 312 312 312 314 316 321 331 334 322 325 332 336 338 340 342 344 345 344 344
311 309 311 313 311 310 313 312 313 313 316 313 313 311 311 310 310 310 312 311 310 310 315 313 312 312 311 312 314 316 321 334 334 333 335 339 340 341 342 343 344 344 343 341
310 314 313 313 312 313 313 314 314 315 313 316 313 312 310 310 309 312 312 312 313 317 319 317 319 317 316 315 319 320 325 340 340 340 342 343 343 342 342 343 343 342 341 341
311 313 312 313 312 312 313 314 314 314 314 314 313 313 310 310 310 310 310 310 311 319 317 315 317 323 326 323 329 326 334 344 344 342 342 343 343 343 344 342 341 341 342 342
307 310 315 314 313 313 315 315 316 315 315 315 316 313 311 311 311 309 309 309 312 313 313 314 314 319 324 327 328 331 333 339 342 341 341 341 341 341 342 341 341 339 339 338
308 312 314 313 310 313 311 314 314 314 314 312 313 312 312 311 309 308 308 311 311 311 312 313 313 316 323 327 327 328 331 332 339 340 340 339 338 337 335 334 335 336 336 334
306 310 316 312 311 311 311 315 315 313 313 311 313 312 311 309 309 308 309 309 309 310 311 312 312 315 325 327 327 328 327 326 333 339 338 337 335 334 333 332 331 331 331 330
312 314 314 312 314 310 308 315 312 311 313 313 310 309 309 309 310 309 308 309 310 311 313 313 312 318 326 327 326 327 326 327 329 337 337 333 333 332 331 331 331 331 331 329
312 312 314 313 316 311 312 313 312 314 310 309 308 309 310 311 310 309 309 310 311 313 314 313 317 324 325 324 327 327 327 333 336 337 333 331 331 331 331 331 331 331 329 328
306 308 314 315 313 310 312 312 314 311 311 310 308 309 310 311 310 309 310 311 312 313 315 316 319 325 325 323 326 327 329 334 333 332 331 330 329 329 329 330 330 330 329 327
310 310 312 311 308 310 312 312 311 310 310 309 309 310 310 309 310 310 311 312 313 313 314 316 321 325 325 325 326 326 330 331 330 329 329 330 330 330 330 330 329 328 328 326
308 306 308 311 313 312 312 312 309 308 307 308 309 309 308 309 310 312 311 312 313 314 316 318 322 326 326 325 326 330 330 330 329 329 329 330 330 330 330 330 329 328 327 325
308 308 311 313 311 312 312 311 307 306 306 308 309 308 308 310 311 311 312 312 314 315 317 320 324 330 330 331 330 331 330 330 329 329 329 328 329 329 328 328 328 328 329 328
307 311 313 313 313 313 313 310 305 305 307 309 307 308 308 309 310 310 311 312 314 317 320 324 329 328 327 331 330 331 330 330 330 328 328 327 327 326 324 324 324 328 329 329

GFSCGP_925_thetae_054.txt.gz
Theta_e
304 304 305 307 306 307 308 309 308 307 308 309 309 309 309 308 308 307 308 308 309 310 311 311 312 313 314 315 320 332 338 346 346 343 341 340 337 337 335 336 336 337 335 337
303 305 305 306 307 307 306 307 310 309 309 310 308 309 308 308 307 308 308 308 307 307 308 310 310 311 311 312 313 318 328 335 341 342 340 341 340 339 337 335 338 336 340 340
305 306 306 307 307 309 309 311 311 311 310 309 308 306 308 308 308 308 307 307 306 306 306 307 309 310 311 312 313 313 316 319 331 334 337 340 340 341 341 341 339 340 339 341
305 306 307 307 307 308 309 311 311 310 308 308 309 309 306 306 307 308 307 305 305 306 309 309 310 310 313 314 316 315 315 316 318 324 331 337 340 340 340 340 341 342 343 345
306 307 307 307 307 309 307 311 310 310 309 310 309 309 308 306 306 305 305 306 309 310 309 309 310 310 312 313 315 317 317 316 316 319 325 330 336 337 339 340 341 342 343 343
305 306 306 306 310 309 308 308 305 305 307 309 308 309 307 307 307 308 308 310 310 309 309 309 309 310 310 311 313 316 319 321 317 319 324 330 337 338 338 339 340 342 342 341
306 306 309 310 309 307 305 305 306 306 306 308 308 308 308 308 308 308 310 310 309 308 308 307 307 308 309 310 312 314 318 319 322 317 327 329 333 337 337 338 338 340 338 337
308 309 309 311 309 308 307 306 304 307 310 306 307 309 308 308 309 311 311 310 310 309 306 306 306 307 308 310 311 313 316 316 319 324 320 329 332 338 340 338 337 339 336 332
310 311 309 309 308 308 308 308 305 303 307 311 308 308 309 308 309 312 310 310 309 307 307 307 307 307 308 310 311 312 314 315 317 321 325 322 331 335 338 338 338 339 337 332
309 311 310 310 309 308 307 306 307 306 312 314 310 310 310 309 309 309 308 308 307 307 307 308 308 309 310 311 311 313 314 314 317 318 325 325 324 332 335 336 336 336 334 332
309 309 310 310 310 308 308 308 310 306 309 315 313 309 307 308 306 308 309 309 308 308 308 308 308 310 310 310 311 312 313 313 315 319 325 325 322 328 333 335 335 334 332 332
310 308 312 311 309 308 307 308 308 309 308 313 305 312 309 308 307 308 307 307 309 310 309 307 308 310 310 312 311 311 313 312 314 319 326 328 321 325 330 332 333 333 334 337
309 308 311 308 307 307 311 311 312 313 314 315 315 312 307 308 309 308 309 309 310 309 307 312 314 314 314 316 317 312 312 312 316 320 331 325 321 327 330 331 333 335 338 341
311 307 309 309 308 307 310 310 310 312 316 313 314 312 310 309 309 308 309 309 308 308 309 315 313 313 313 313 318 314 313 317 320 327 332 322 325 330 332 334 335 337 340 342
308 312 311 311 311 312 312 312 312 313 314 316 313 312 311 310 309 310 308 308 309 309 309 315 314 313 312 313 315 322 326 325 325 335 331 329 332 334 336 337 338 340 342 343
309 309 311 310 310 311 312 312 312 312 313 314 314 315 312 311 310 310 309 309 309 309 311 313 312 314 313 313 315 319 326 328 336 337 336 337 337 338 339 340 341 341 341 342
309 307 310 311 311 311 312 312 313 314 315 315 316 312 310 312 312 310 309 308 309 309 311 311 312 314 314 314 315 318 325 327 338 339 340 340 338 338 339 341 340 340 340 339
306 308 312 313 309 314 309 313 314 314 314 314 311 311 311 311 309 309 308 308 308 309 309 310 311 312 313 313 316 319 326 328 335 340 339 339 339 338 338 339 338 337 338 339
305 310 314 316 313 310 310 314 314 313 313 312 311 311 309 308 308 308 308 308 308 308 308 309 310 312 314 314 315 322 327 326 329 337 338 338 338 337 336 334 333 333 335 334
307 309 314 313 314 313 308 314 312 311 315 312 310 311 311 309 308 309 309 308 309 308 309 310 311 313 314 315 317 325 326 325 327 338 338 337 335 334 333 332 331 332 332 330
313 312 314 311 312 311 309 312 310 317 312 310 311 310 310 310 309 309 309 309 309 309 310 311 312 314 315 318 322 326 327 326 327 337 335 333 333 332 331 331 331 329 327 326
304 306 305 309 309 308 311 311 314 312 310 311 310 308 308 309 310 308 308 309 310 311 311 312 313 314 316 318 324 326 328 328 329 334 332 332 331 331 331 329 327 326 325 324
305 306 310 310 305 305 310 311 311 311 312 309 307 306 308 310 309 309 309 310 311 311 311 312 314 317 318 322 323 326 326 330 331 331 330 330 330 330 329 328 326 325 325 324
307 304 305 309 308 310 310 310 310 310 309 305 305 305 309 308 308 309 310 310 311 311 312 313 315 318 321 324 325 324 328 330 331 330 330 329 329 329 328 327 327 326 325 324
306 306 306 308 309 310 312 311 310 308 304 304 307 307 307 308 308 309 309 310 310 312 313 315 318 320 323 326 326 327 327 330 328 329 329 328 329 327 325 326 327 327 326 327
305 308 312 312 310 312 311 310 308 305 305 306 306 307 307 307 307 308 308 309 311 312 314 317 321 327 329 330 328 327 328 329 328 327 328 327 325 323 322 322 322 324 326 325

GFSCGP_925_thetae_057.txt.gz
Theta_e
307 310 311 310 311 310 310 310 310 311 311 311 311 311 311 311 311 312 312 312 313 314 314 313 314 314 314 313 313 314 332 345 346 344 340 336 333 332 332 327 324 325 334 333
308 309 309 308 308 309 310 310 311 311 311 310 310 311 311 311 311 312 313 313 313 313 312 313 313 315 316 315 314 315 316 323 341 346 345 343 341 337 333 334 329 334 337 336
308 308 308 308 309 310 311 311 311 310 311 310 311 309 310 309 311 311 312 312 312 312 312 313 315 316 317 318 316 316 316 316 318 334 343 344 343 342 341 339 336 335 336 336
309 308 308 309 309 310 310 311 311 310 310 308 310 307 310 310 310 311 311 313 312 313 312 315 315 315 315 315 314 313 315 317 318 317 330 340 343 344 343 342 339 342 338 338
309 309 309 309 309 311 309 311 311 310 311 311 309 311 310 311 310 311 312 313 314 315 315 315 315 313 312 313 314 312 312 316 318 319 320 329 340 342 343 343 342 342 341 341
309 308 309 309 310 310 310 310 310 309 311 310 310 311 310 310 311 311 311 313 315 315 315 314 313 313 313 313 313 314 315 313 317 318 324 325 329 336 338 340 341 340 341 342
308 308 310 311 311 310 310 311 310 309 309 309 312 310 310 311 311 310 311 312 315 315 315 315 314 314 313 314 315 315 315 316 315 317 318 327 329 330 334 337 339 339 341 343
311 311 310 311 310 310 310 311 311 310 309 309 309 310 311 311 311 312 313 314 315 315 313 314 314 313 313 314 315 315 315 316 318 319 318 323 329 332 334 337 337 337 337 339
313 312 310 310 311 311 311 313 310 313 312 313 311 311 311 311 311 312 313 313 314 313 313 314 314 313 313 315 316 316 315 316 317 319 320 322 326 333 334 338 338 337 337 339
312 314 311 311 310 310 311 311 315 315 315 313 311 311 312 311 311 311 311 312 312 312 314 315 314 312 313 316 316 317 317 316 317 318 319 321 324 331 333 336 340 338 339 340
311 313 311 311 312 311 311 312 313 313 314 314 313 312 312 312 311 312 312 312 312 313 314 314 314 313 315 316 318 319 321 319 316 317 318 321 324 329 333 334 336 339 340 340
312 314 313 311 310 310 311 312 313 316 315 316 317 314 311 312 311 312 312 312 311 313 313 313 313 313 317 316 315 317 318 321 318 316 317 320 324 328 331 333 334 337 339 340
313 313 313 309 311 311 313 312 312 314 315 316 317 314 311 312 313 312 312 312 312 313 313 313 313 313 316 315 314 315 316 319 323 321 321 321 325 329 332 332 334 337 339 340
311 313 312 312 309 311 313 311 312 314 317 314 314 314 313 313 313 313 313 313 313 313 313 312 312 313 316 315 315 315 315 317 321 327 328 325 327 331 333 332 335 337 339 341
312 314 313 312 311 311 313 313 313 314 314 315 314 314 313 313 314 314 313 313 313 312 312 312 312 314 314 314 315 315 315 317 320 325 328 330 331 333 333 333 336 338 340 341
312 314 313 312 312 313 313 313 313 313 313 314 314 316 314 314 313 313 313 311 311 311 311 311 311 313 313 313 314 315 315 318 320 324 328 332 335 334 334 336 338 339 341 342
313 313 311 309 312 313 314 313 313 313 314 314 316 315 314 314 313 312 311 311 310 310 311 311 312 311 312 312 314 316 317 317 320 324 328 333 337 335 336 337 338 340 342 344
310 310 311 312 313 315 312 312 312 314 314 314 314 314 313 313 312 311 309 309 310 310 310 310 310 313 311 311 313 315 316 318 320 324 328 337 338 336 337 338 338 340 344 344
308 311 313 315 315 313 311 315 316 315 314 313 313 312 312 312 310 309 308 309 308 310 310 310 310 311 311 312 313 315 315 317 319 327 328 337 336 336 337 339 340 340 341 340
308 309 314 315 314 313 312 315 313 313 317 313 312 311 311 310 310 309 308 308 310 310 310 310 310 311 312 313 314 315 316 317 324 327 329 337 337 337 339 339 338 337 337 334
311 310 311 312 315 314 312 313 312 318 318 312 312 312 312 311 310 310 309 310 309 310 310 310 312 313 313 313 315 316 318 322 324 328 331 336 337 337 337 336 334 332 331 329
313 314 314 314 315 314 313 312 313 313 311 312 313 311 310 309 308 308 309 309 309 310 311 311 312 313 313 314 315 317 320 323 326 328 334 335 335 334 333 331 330 329 328 327
313 314 314 314 316 311 311 312 312 312 313 312 310 308 308 308 309 309 309 309 310 311 311 311 313 313 314 315 316 320 321 325 329 331 333 334 333 332 331 329 328 327 326 326
309 309 313 310 311 310 312 311 312 311 311 309 308 307 307 307 307 308 308 309 309 309 310 310 312 314 315 316 318 320 323 326 330 332 331 332 331 330 329 328 329 329 327 327
309 309 310 311 310 312 311 311 311 309 308 307 307 307 307 307 307 308 308 308 308 309 310 311 313 315 318 318 319 322 325 328 331 331 331 330 330 330 329 329 330 330 329 328
309 309 310 313 310 312 312 311 309 308 307 307 307 307 306 306 307 306 307 307 308 308 308 311 315 317 318 319 322 324 330 331 331 329 331 328 325 325 325 324 323 325 326 327

GFSCGP_925_thetae_060.txt.gz
Theta_e
312 312 313 313 314 313 312 313 313 313 313 314 314 314 315 315 315 315 315 315 315 315 316 315 316 318 319 322 324 324 326 338 349 342 340 340 339 337 336 333 331 331 328 333
312 312 312 312 311 312 312 313 313 313 313 313 313 314 313 314 314 314 315 316 315 315 315 315 315 317 320 321 323 324 326 327 333 347 348 344 341 338 336 337 334 332 326 329
312 312 311 311 311 311 312 313 313 313 312 312 313 314 313 313 313 313 314 315 314 314 314 315 316 317 318 319 319 320 323 326 327 329 339 349 350 349 345 340 337 334 334 328
312 311 311 311 311 312 313 312 311 311 312 313 312 312 313 313 313 313 313 314 314 314 316 316 317 317 316 316 317 319 321 323 325 327 327 334 345 348 348 348 345 341 342 342
312 311 311 312 312 311 311 311 312 312 312 313 313 313 313 312 312 313 313 313 315 316 317 316 317 316 316 316 317 319 320 322 323 328 329 329 333 336 342 346 347 345 344 348
312 312 311 312 312 311 312 312 313 314 313 312 313 312 312 314 313 313 313 313 314 316 317 317 315 315 315 316 318 319 320 321 322 324 327 330 331 332 335 340 346 347 348 350
314 312 312 311 312 313 312 314 315 313 315 312 314 313 313 314 313 313 313 313 314 317 317 316 316 317 316 316 317 318 319 320 321 322 323 326 329 333 333 337 338 343 344 345
315 315 312 312 312 313 314 314 315 314 313 313 313 313 316 313 313 313 313 314 315 316 316 316 316 316 316 316 317 318 319 320 321 321 322 324 326 328 332 333 333 335 337 339
315 315 312 312 312 312 313 314 313 314 314 314 314 313 313 314 314 313 313 313 315 316 315 316 316 316 316 316 317 319 320 321 322 322 322 323 326 326 329 334 336 337 338 339
314 316 314 313 312 312 313 313 316 315 315 314 313 314 314 315 314 314 313 314 315 315 315 316 316 316 315 316 318 318 319 321 323 324 322 321 323 325 328 333 339 340 341 341
313 314 314 314 314 314 315 314 313 314 315 317 316 314 316 315 315 314 314 314 314 314 314 315 316 315 315 314 317 318 318 318 320 324 324 321 322 323 326 330 335 339 343 343
313 313 314 313 312 312 312 313 313 317 317 318 318 318 315 315 314 314 315 315 315 315 315 315 315 315 314 314 314 317 317 317 318 321 325 323 322 323 325 329 334 337 339 344
314 315 316 312 313 312 313 312 313 314 316 320 322 317 315 314 315 315 315 315 315 315 315 315 316 316 315 314 314 316 317 317 317 318 323 326 326 327 327 330 334 337 338 342
312 315 315 315 312 313 314 312 313 314 320 318 317 316 316 315 316 315 316 315 315 315 315 315 314 314 314 314 314 316 316 316 317 317 322 325 329 331 330 330 333 338 337 341
313 315 313 313 312 312 312 313 313 314 316 318 316 316 315 316 316 316 316 316 315 315 314 313 313 313 314 313 314 315 315 316 317 317 321 325 328 330 333 332 334 337 337 339
314 315 313 314 312 312 314 314 314 314 315 315 315 316 315 316 315 315 314 315 315 313 313 312 312 312 313 313 314 313 314 315 317 318 321 324 327 329 332 334 337 338 338 339
314 314 314 313 310 314 316 315 315 315 315 315 316 315 315 315 315 314 315 314 314 313 311 311 311 313 313 312 313 313 314 316 317 319 321 324 326 329 332 335 337 338 339 342
312 312 311 313 313 317 314 313 313 314 314 315 315 315 315 315 314 313 313 313 311 310 310 312 311 312 311 311 312 313 314 316 317 319 321 324 326 329 333 336 338 339 342 345
309 311 314 317 317 315 313 317 317 317 316 314 315 315 315 314 314 313 313 312 310 309 311 310 310 310 311 311 312 313 315 316 317 319 321 323 327 331 336 339 339 340 343 345
311 311 317 315 318 315 312 315 314 314 317 315 315 315 315 313 316 315 312 310 310 310 309 311 310 311 311 311 312 314 315 316 318 319 320 324 329 330 337 338 338 341 343 345
312 312 314 313 316 314 315 314 313 317 317 315 314 314 315 315 314 311 309 310 310 311 310 310 310 312 312 313 314 316 316 317 317 319 321 326 330 332 336 337 340 343 342 341
315 315 316 315 317 316 314 314 315 314 314 314 313 312 311 310 309 309 310 309 309 309 309 309 311 311 311 312 314 316 318 318 317 320 323 328 328 334 337 339 340 338 338 337
315 316 317 315 317 314 312 314 313 313 313 312 310 309 309 309 309 308 309 309 309 309 310 310 311 311 312 313 314 317 318 319 320 323 326 328 333 336 337 336 336 338 337 334
312 311 314 314 313 312 313 313 312 312 310 309 308 308 309 309 308 308 307 308 308 308 309 309 310 311 312 312 314 317 319 321 323 325 329 334 333 333 334 335 336 336 334 333
312 311 312 314 312 312 312 312 311 309 308 308 309 308 307 307 307 307 307 307 307 308 308 309 310 310 312 312 315 319 322 324 325 327 332 333 332 333 334 333 334 333 331 332
308 309 309 310 306 308 311 310 307 308 308 308 307 306 306 306 306 306 306 306 306 307 307 307 308 309 311 313 317 320 321 324 328 332 331 332 331 329 329 328 322 330 329 330

GFSCGP_925_thetae_063.txt.gz
Theta_e
315 315 315 315 317 316 316 317 318 317 316 315 317 317 317 318 318 317 318 318 318 318 318 318 318 319 321 324 327 328 330 339 347 341 345 345 344 342 341 340 336 339 339 341
315 315 314 314 315 315 315 315 315 316 316 316 317 317 317 317 317 318 318 318 318 318 318 317 317 318 322 323 324 325 328 331 336 349 341 342 342 341 343 341 339 338 338 340
315 315 314 313 313 313 314 314 315 315 316 316 315 316 316 316 317 317 317 317 317 318 318 317 317 318 320 321 322 322 325 327 331 331 341 349 345 339 339 341 340 338 339 339
315 314 312 313 313 314 315 315 315 314 314 315 316 316 318 317 315 315 316 317 317 317 317 318 318 318 318 318 320 322 324 326 326 330 329 330 348 350 347 346 344 342 339 340
315 314 313 313 314 314 314 314 314 314 315 316 315 316 316 317 316 316 316 316 317 318 318 318 318 318 318 317 319 321 323 324 326 327 330 331 331 335 346 350 350 350 347 342
315 315 314 314 314 314 314 314 314 315 316 317 316 316 316 316 315 316 315 315 315 317 319 318 317 317 317 317 318 320 321 323 324 325 326 330 333 334 335 335 343 351 345 345
316 316 315 314 313 313 314 315 316 317 318 318 316 316 316 317 315 316 315 315 315 317 318 319 318 317 318 318 317 318 319 321 322 323 324 325 327 331 334 337 334 338 347 350
317 318 318 317 314 314 316 318 320 323 319 316 317 316 317 316 316 315 315 315 316 317 318 319 318 317 317 317 317 318 319 320 321 323 324 324 325 326 327 329 333 332 333 340
319 319 316 316 315 315 315 317 316 317 317 318 317 316 318 316 315 316 316 315 315 316 318 318 317 317 317 317 317 318 319 320 321 322 324 326 326 326 327 329 332 336 337 336
315 319 317 316 315 314 315 316 321 319 318 317 316 316 317 318 317 316 316 316 316 317 317 317 317 316 316 317 317 317 319 320 320 320 321 323 325 324 325 328 331 333 336 341
314 315 317 317 318 316 315 317 316 318 317 322 320 318 318 318 317 316 316 316 316 317 317 317 316 315 316 316 316 316 316 318 319 319 320 321 325 326 324 326 328 331 336 340
314 317 316 314 315 316 316 318 319 324 320 316 316 316 317 317 317 316 316 317 317 317 317 317 317 316 316 316 316 316 315 316 317 318 318 319 322 326 327 326 327 329 334 340
316 319 321 317 316 313 313 313 314 317 321 320 320 321 318 317 317 317 317 317 317 317 317 316 316 317 316 315 315 315 316 316 316 318 318 318 320 324 329 329 328 330 332 336
313 314 315 317 316 317 318 315 316 316 320 316 316 316 317 317 317 317 317 317 317 317 318 317 317 317 315 314 314 314 315 316 317 317 317 319 320 324 327 330 331 330 330 334
312 315 314 314 314 314 314 314 313 314 314 316 316 316 316 316 317 317 317 317 317 317 316 317 317 316 315 314 313 313 313 314 316 317 318 319 320 322 326 328 331 331 331 334
313 318 315 316 313 311 311 311 312 313 314 316 316 317 317 317 317 318 317 318 317 316 317 316 315 315 314 313 312 313 315 314 316 316 317 318 319 321 324 328 331 333 333 335
315 317 316 316 311 313 313 313 315 317 316 316 319 316 316 316 316 317 317 316 316 316 315 315 315 313 312 312 312 312 312 314 315 315 316 318 318 320 323 326 329 330 335 338
313 313 315 316 314 315 314 317 317 315 314 315 315 315 315 316 316 316 315 314 315 315 314 314 314 313 312 312 312 312 312 313 314 315 316 317 318 320 323 325 329 331 336 341
312 312 316 317 317 316 314 317 318 318 317 315 315 317 317 315 315 316 313 314 314 314 314 313 311 311 311 311 310 311 312 312 312 314 316 317 318 320 323 325 331 333 337 340
314 312 316 318 321 316 313 316 315 315 317 318 317 316 314 314 316 315 314 313 312 312 312 311 310 310 312 311 312 312 313 314 314 314 316 317 318 321 324 326 332 334 337 342
316 315 317 316 318 316 316 315 314 318 318 316 315 314 314 315 314 314 311 311 311 311 311 310 309 310 310 311 310 312 314 314 315 315 317 318 319 321 324 328 332 337 338 342
316 319 318 318 321 320 316 316 318 317 316 314 313 313 312 311 311 311 311 311 311 311 310 309 310 310 310 310 312 312 312 313 315 316 317 317 319 322 325 329 334 337 340 341
318 318 319 318 319 316 315 316 315 315 314 314 311 310 311 311 311 312 312 311 310 309 309 308 309 310 311 311 312 313 314 315 316 317 318 318 320 323 327 332 335 338 338 339
314 315 317 316 314 314 314 314 313 313 312 309 309 310 309 309 308 308 308 308 308 308 308 308 308 309 310 310 310 311 312 314 317 318 319 320 321 326 330 333 336 337 338 339
312 313 313 312 312 311 311 312 313 310 310 309 308 306 307 307 306 306 306 306 306 306 306 306 307 308 309 309 311 312 314 316 317 319 320 323 327 329 334 334 337 338 339 339
309 310 309 310 307 308 308 311 311 309 309 309 305 307 306 306 306 305 305 305 305 305 306 307 307 308 308 309 311 313 316 318 320 323 325 327 331 331 325 328 321 334 333 333

GFSCGP_925_thetae_066.txt.gz
Theta_e
315 315 316 316 316 316 316 316 317 319 319 318 318 318 318 318 319 319 319 320 321 321 321 321 320 324 325 327 330 329 341 351 342 348 347 346 345 346 342 338 340 340 341 345
315 316 317 316 315 316 316 317 317 317 318 318 317 317 318 318 319 320 321 321 321 321 321 321 321 319 322 327 326 328 332 335 349 346 343 344 346 345 345 343 341 339 338 342
316 316 316 315 315 315 315 315 315 315 316 317 317 317 318 318 319 320 320 320 320 322 322 323 322 320 320 323 325 324 327 331 333 343 344 342 338 342 343 344 344 341 338 338
315 316 316 315 314 314 314 315 315 316 316 316 317 318 318 319 319 319 319 320 319 320 321 322 322 320 321 320 321 324 325 327 327 326 331 338 347 342 340 341 341 342 339 338
316 315 315 315 314 314 315 315 315 315 316 316 316 316 316 317 317 317 317 317 318 318 318 319 320 320 319 318 319 322 324 324 325 327 329 331 333 333 340 346 345 344 344 343
316 316 316 316 315 315 315 315 315 315 315 316 316 317 317 317 319 318 317 317 317 318 319 319 319 319 318 318 318 321 322 324 325 325 326 328 332 332 335 336 335 344 345 342
319 317 317 317 316 315 314 315 316 318 320 319 318 321 319 318 318 318 317 316 316 317 321 320 320 319 319 318 318 319 320 322 323 324 324 325 325 327 332 333 335 332 336 340
321 322 319 319 320 319 318 316 318 322 322 323 322 321 318 318 317 317 316 316 316 316 321 321 321 319 318 318 318 318 318 320 321 323 324 324 324 326 327 328 329 330 333 335
320 321 318 317 319 319 320 317 317 321 322 322 319 320 320 317 317 316 316 316 316 316 318 318 319 319 318 318 318 318 319 320 321 322 324 326 325 325 326 326 326 328 333 337
317 317 315 318 318 317 317 317 320 321 322 319 315 316 321 321 317 317 316 316 316 317 317 318 319 319 318 317 317 318 318 319 319 320 322 322 322 328 327 325 327 329 328 324
317 319 315 318 320 319 321 316 316 317 323 324 321 320 320 320 320 319 317 317 317 317 317 317 317 317 317 317 317 317 320 318 320 322 322 322 322 323 327 328 326 328 329 330
317 318 318 317 316 317 317 318 319 325 324 322 323 320 319 319 317 320 318 317 316 318 318 317 317 317 316 317 317 317 317 319 318 317 318 319 319 321 324 327 329 326 326 328
316 318 320 315 317 318 319 317 317 318 322 322 324 322 319 319 319 319 319 318 319 318 318 318 318 317 317 317 317 316 316 316 316 317 318 319 320 320 321 323 329 330 329 329
312 314 315 316 313 318 317 317 316 316 322 319 318 316 318 318 317 319 319 319 319 318 319 320 319 319 318 318 317 316 316 315 315 315 316 318 320 320 322 323 327 329 334 332
313 314 313 313 313 314 316 317 317 317 315 317 316 315 315 317 318 319 317 318 319 319 319 319 319 319 319 317 317 315 315 314 315 315 316 316 319 320 322 322 322 327 330 333
313 317 316 316 315 314 315 314 316 313 314 314 313 314 314 318 318 318 317 317 318 318 317 317 317 318 317 317 316 313 313 313 313 314 314 316 318 319 321 321 324 327 330 332
313 317 317 318 314 314 313 316 317 318 317 317 319 317 317 317 318 319 318 318 319 316 315 316 316 317 317 316 315 314 313 313 314 314 314 314 316 318 319 321 322 324 328 331
313 314 316 317 315 316 314 315 318 318 318 317 316 317 317 317 316 316 315 315 316 315 315 316 316 317 316 315 314 313 313 313 312 314 314 314 314 317 318 320 321 323 327 331
314 314 315 316 317 315 314 318 318 317 316 318 318 316 315 315 314 314 314 315 315 315 315 315 314 313 313 313 312 312 312 312 312 312 313 314 313 314 318 319 321 324 329 330
316 315 317 317 318 316 315 318 316 315 316 317 316 316 315 314 317 317 314 313 313 314 314 313 312 312 313 312 312 313 313 313 313 313 313 314 313 313 314 319 320 323 327 329
317 317 317 316 318 315 318 316 315 317 320 317 315 314 314 314 313 313 313 313 313 314 313 311 311 312 312 312 311 312 312 313 312 312 313 314 314 313 314 320 322 323 328 329
319 318 319 318 321 321 316 315 318 317 317 315 313 312 312 312 311 311 311 311 311 311 311 311 311 311 311 309 310 311 312 311 311 312 314 315 315 316 318 321 322 324 327 330
320 319 320 318 320 319 315 315 315 315 315 313 314 312 311 311 309 309 308 308 308 308 307 307 308 308 308 308 308 309 311 312 312 313 314 315 316 317 318 320 323 325 327 331
315 315 317 317 315 313 312 313 312 312 313 313 311 311 310 309 307 306 307 306 306 306 305 305 306 307 308 308 308 308 309 311 313 313 314 316 317 318 319 320 322 325 330 333
315 313 312 312 312 310 310 309 311 310 311 312 310 308 307 306 306 305 305 305 304 304 305 305 305 306 307 307 307 308 310 311 312 313 314 317 317 318 320 320 322 327 331 334
312 310 310 310 308 308 309 309 309 311 311 310 309 308 306 305 304 303 303 303 303 303 302 301 303 303 305 305 307 308 309 311 313 314 316 318 319 320 321 324 322 324 333 336

GFSCGP_925_thetae_069.txt.gz
Theta_e
312 311 311 311 312 313 313 313 314 314 316 316 315 315 315 315 314 315 315 316 316 316 317 321 324 325 324 324 323 319 336 344 347 346 343 344 342 345 347 345 345 344 347 348
312 312 313 315 315 315 314 313 314 315 315 316 315 317 316 316 316 316 316 315 315 316 316 318 324 324 325 327 326 322 330 345 344 347 345 343 345 344 344 345 344 342 341 341
313 314 315 316 315 315 313 313 314 314 314 314 314 315 317 317 315 315 315 315 315 315 316 315 320 326 326 325 324 323 324 330 337 346 348 346 345 345 343 342 341 336 337 335
313 313 314 314 314 313 312 314 314 316 314 313 314 314 315 316 315 315 315 315 315 315 316 316 316 320 326 326 324 322 322 322 324 331 339 345 341 338 340 344 343 342 341 339
313 314 314 315 315 314 313 315 315 315 314 313 313 312 313 315 314 314 315 315 314 314 315 316 314 317 319 320 323 323 323 323 322 325 330 332 337 342 343 343 343 338 337 340
313 314 314 315 318 317 314 314 314 313 312 313 312 313 313 313 314 314 315 314 314 313 315 316 318 318 318 318 319 320 323 324 324 324 322 325 329 332 334 335 337 340 344 342
317 318 317 319 319 318 318 313 312 313 313 315 317 321 318 317 317 315 315 314 314 315 315 315 314 314 317 319 318 319 321 322 323 322 323 323 323 325 327 330 331 332 333 335
322 323 319 319 321 323 321 321 317 318 316 317 320 323 319 319 317 315 315 313 314 316 315 314 313 313 317 318 319 319 319 321 323 324 324 323 322 323 323 324 325 328 331 332
320 321 320 319 318 320 322 321 319 321 321 321 318 319 319 319 319 315 314 313 312 313 315 314 315 315 316 318 318 317 317 317 318 322 322 323 323 324 324 324 323 323 325 326
318 320 317 316 317 318 320 318 323 320 326 323 317 316 324 320 320 319 316 314 313 313 314 315 314 315 317 317 318 318 318 318 317 317 318 319 323 323 323 327 326 325 324 324
317 319 317 316 319 318 317 318 321 320 320 319 320 317 319 319 318 319 317 316 313 312 313 312 313 316 317 318 318 318 318 318 317 317 318 319 320 320 321 320 325 328 326 325
316 316 320 315 314 315 317 319 317 322 317 319 318 319 316 317 316 317 316 316 315 315 312 311 311 313 315 316 316 317 318 318 317 318 320 322 321 321 320 318 322 324 328 327
315 313 314 314 314 315 315 317 318 318 319 322 321 317 317 317 317 317 317 316 316 315 315 317 317 312 312 315 316 316 316 315 315 315 314 315 315 316 320 319 322 320 320 324
312 311 312 313 313 314 316 316 315 316 320 319 319 317 316 316 317 317 316 317 315 316 317 316 316 316 314 315 316 316 316 315 315 316 315 315 315 315 316 317 321 322 322 326
313 314 315 315 315 313 313 314 316 317 316 316 315 315 314 316 317 316 317 317 318 318 317 317 316 314 313 315 315 315 314 313 313 314 313 313 313 313 313 315 317 319 320 321
314 314 316 316 315 314 316 316 315 315 316 318 317 316 314 313 315 317 316 318 319 317 317 316 315 313 312 314 315 315 315 313 312 312 313 313 312 312 312 313 317 320 322 320
312 313 313 315 314 313 313 318 318 318 318 317 317 315 316 316 317 316 317 318 318 316 316 315 313 312 312 314 315 315 315 313 312 312 312 312 313 313 314 314 317 319 320 320
312 312 312 312 313 316 319 315 316 318 316 318 318 317 315 314 314 313 311 311 311 310 310 310 310 310 311 314 312 312 312 312 312 312 312 312 312 313 313 314 315 317 318 320
313 313 313 310 313 316 316 319 318 317 317 316 315 314 313 312 311 311 311 310 310 309 310 309 310 310 311 311 312 312 312 312 311 311 311 312 311 311 312 314 314 314 318 320
315 313 312 313 312 310 319 316 314 314 315 314 314 314 313 311 312 310 309 308 308 307 307 307 308 309 309 310 310 311 311 311 311 311 311 311 311 312 312 312 312 313 315 321
314 316 314 314 312 316 316 315 313 312 314 313 312 312 311 312 311 309 308 308 307 306 305 306 307 307 308 309 310 311 311 311 311 311 311 312 312 312 312 313 313 313 315 319
317 317 313 317 316 314 314 314 313 312 311 310 310 311 311 311 310 308 306 306 306 305 306 306 306 306 306 307 308 309 309 309 309 311 311 311 311 311 313 314 313 313 316 321
317 316 311 314 313 312 310 311 309 308 309 310 310 310 311 311 308 307 306 306 306 306 306 305 306 305 306 306 307 308 308 308 309 311 311 311 311 313 314 315 315 317 320 321
316 313 310 311 313 308 308 309 308 308 308 310 310 309 308 307 306 305 304 304 304 303 303 303 304 304 304 304 305 306 307 308 309 309 311 312 313 314 315 315 317 318 319 321
312 311 309 310 310 306 309 307 307 307 309 310 309 308 306 306 306 304 302 302 302 302 301 301 302 303 304 304 305 305 306 307 308 308 310 312 313 314 315 316 317 319 321 322
310 309 307 307 306 306 306 306 306 309 310 309 309 307 306 305 304 303 300 299 299 298 298 298 299 300 301 302 302 303 305 306 308 309 310 311 312 313 316 316 317 319 320 320

GFSCGP_925_thetae_072.txt.gz
Theta_e
310 309 309 309 309 311 310 311 311 312 312 314 313 312 312 313 311 311 312 313 313 314 314 321 326 327 326 324 322 330 334 343 350 350 349 348 350 349 347 344 343 343 343 343
310 310 311 311 312 312 313 312 312 311 313 313 312 312 311 313 312 312 313 312 311 313 313 321 325 327 326 323 321 324 335 344 342 348 350 348 346 347 348 347 346 347 350 346
310 311 313 313 313 313 313 313 312 312 314 312 312 312 311 314 314 313 313 313 313 312 312 320 323 325 327 325 322 321 324 332 337 343 344 347 345 344 345 345 346 344 343 345
310 311 313 313 313 313 311 311 313 314 313 312 314 313 312 313 313 312 312 311 311 312 312 316 320 321 325 322 322 322 321 321 321 323 333 344 345 341 342 342 342 342 343 342
313 313 312 312 314 317 315 314 313 314 312 311 312 311 311 311 312 311 311 311 311 311 313 312 316 323 324 324 323 321 321 321 320 319 324 330 334 338 340 342 340 343 342 340
312 313 314 315 318 318 317 315 311 310 309 312 312 311 313 311 311 311 312 314 312 311 311 312 318 322 323 323 322 321 320 320 319 320 321 323 326 328 332 334 337 339 340 339
318 317 317 318 319 317 319 319 318 313 311 314 312 316 313 315 316 317 316 313 312 313 314 314 316 314 316 321 323 322 321 320 320 321 322 322 322 324 325 325 327 331 333 337
322 319 319 319 321 321 320 319 318 321 317 315 318 319 316 316 317 316 316 311 312 314 315 314 313 312 313 316 318 319 320 320 321 321 321 321 322 322 322 323 324 325 327 330
321 321 317 318 318 319 321 320 318 321 321 323 318 316 315 317 317 317 317 315 312 313 313 313 311 311 315 316 317 318 319 320 320 321 322 322 322 322 323 323 323 324 324 324
317 318 317 317 317 318 320 319 317 323 325 325 319 318 317 320 319 318 317 315 314 313 312 312 311 311 315 316 318 319 319 319 318 318 319 322 320 320 323 322 321 324 322 325
315 316 316 313 318 318 318 319 318 319 322 325 321 314 316 319 318 319 318 317 314 314 314 313 310 311 314 316 317 317 316 316 317 317 316 316 316 318 320 319 319 319 319 323
314 313 314 313 310 315 317 318 318 319 320 321 320 317 315 315 315 316 316 317 315 314 313 313 314 314 314 311 315 316 316 316 317 317 316 316 317 319 320 321 321 322 319 320
313 310 310 310 312 313 315 316 316 315 316 319 321 317 314 316 316 316 315 316 316 316 315 315 313 313 313 314 314 314 317 317 317 318 317 317 315 315 315 315 315 316 320 323
311 307 309 312 311 310 314 316 316 316 316 320 319 317 316 315 316 315 315 315 315 315 316 316 316 314 315 315 314 315 314 314 315 314 314 314 314 314 314 314 314 314 315 314
309 312 312 313 314 314 314 314 315 317 316 316 315 316 315 315 315 314 314 315 317 317 316 317 316 314 313 314 315 314 314 314 314 314 314 313 313 313 313 313 312 312 311 311
308 311 314 314 312 313 313 314 316 318 318 319 317 315 315 313 314 315 313 314 315 315 315 316 315 315 313 312 314 314 314 313 314 313 313 313 313 312 312 311 311 311 311 310
308 308 309 312 314 313 313 318 318 317 318 317 316 317 315 313 313 311 313 311 311 313 311 309 309 309 309 310 311 312 313 314 313 313 312 312 312 312 311 311 311 311 312 313
308 309 308 310 309 315 318 315 315 318 317 315 314 313 313 312 310 310 309 309 308 308 308 307 307 307 308 309 309 310 312 314 313 311 311 311 312 312 312 312 312 312 312 313
307 308 309 308 308 312 318 317 316 316 316 313 313 312 311 310 310 309 307 307 307 308 307 307 307 307 307 306 307 308 310 310 310 311 311 312 312 311 311 311 311 312 312 313
312 311 313 312 314 307 317 314 313 312 314 311 310 310 310 310 311 310 308 308 308 308 306 306 306 306 306 306 306 306 307 308 310 311 310 311 311 311 310 310 310 311 311 312
313 310 309 313 309 310 314 313 310 310 309 309 309 309 310 312 310 308 308 309 308 307 305 305 305 305 305 305 305 306 307 308 308 309 310 310 310 310 310 310 310 310 311 311
317 313 309 315 316 312 312 309 310 309 307 308 308 309 310 309 309 310 307 306 305 305 305 304 304 305 305 305 305 305 306 306 307 309 310 310 310 310 310 311 311 311 311 312
312 313 309 312 309 309 309 308 308 306 307 308 308 309 309 310 309 307 305 305 304 304 304 303 302 303 304 305 305 305 306 306 307 309 309 309 309 310 311 311 311 311 312 312
313 310 306 308 309 307 306 306 305 305 306 307 308 309 309 310 307 305 303 303 303 302 302 301 300 300 302 302 303 304 305 305 306 308 308 308 310 310 310 312 313 313 313 315
309 308 307 306 307 305 306 305 305 306 306 308 308 308 309 306 305 303 303 301 300 300 299 298 298 299 299 299 301 302 303 304 306 307 308 308 309 311 311 312 312 313 314 315
307 305 300 302 304 304 305 306 305 306 306 307 309 309 305 304 304 301 299 299 299 298 298 298 298 298 297 297 298 300 302 304 305 306 308 308 309 310 311 312 313 314 315 316

GFSCGP_925_thetae_075.txt.gz
Theta_e
309 308 308 307 307 309 309 309 309 310 311 311 311 311 310 310 309 309 309 308 311 312 312 315 320 324 330 335 341 344 347 346 343 345 347 347 344 339 339 339 340 340 337 331
308 308 309 309 309 310 310 310 311 311 311 310 310 310 310 310 310 310 309 309 310 312 312 319 324 325 327 330 334 339 345 349 348 345 348 349 348 345 342 341 336 339 342 340
309 310 311 311 311 312 311 311 311 312 312 312 311 311 310 311 312 312 312 311 311 310 311 318 322 324 325 324 324 330 337 342 346 348 348 347 346 344 345 345 345 344 344 343
310 311 311 311 311 313 314 313 313 312 313 311 312 312 311 310 311 311 309 309 309 310 310 312 321 322 324 323 323 327 333 337 340 341 343 343 344 343 342 343 343 344 344 343
311 311 311 312 312 317 317 316 312 312 311 310 311 310 309 311 311 310 309 309 309 307 308 309 317 322 324 323 322 323 323 323 322 321 320 324 337 342 342 341 341 340 340 340
311 314 314 313 317 317 317 316 313 309 308 311 311 310 311 312 310 311 312 314 313 312 310 308 311 320 321 322 322 322 321 320 320 319 320 323 327 330 331 333 335 338 339 339
315 317 316 317 318 317 317 318 317 316 314 317 310 311 312 311 312 314 315 314 311 311 310 308 315 319 320 321 321 321 320 320 320 321 321 321 321 323 325 326 327 328 330 334
318 318 317 318 319 319 319 318 319 325 321 316 316 317 313 313 315 316 314 311 310 310 309 310 316 319 320 319 321 320 319 318 319 319 319 320 321 322 322 322 323 324 324 325
319 320 317 318 318 317 320 320 320 320 318 319 316 315 314 315 316 316 315 314 312 310 310 310 310 311 316 319 320 320 319 318 319 318 319 320 320 321 320 322 323 323 323 324
315 317 315 316 317 317 317 318 321 320 323 323 318 317 316 316 317 317 315 313 313 312 312 310 309 310 312 312 318 320 319 318 319 319 319 320 321 322 320 322 322 320 323 320
314 314 313 311 314 316 314 318 321 319 321 318 317 318 316 319 317 316 315 315 313 313 312 312 312 312 313 313 313 314 317 317 318 319 320 319 320 322 320 321 323 320 322 322
313 312 313 311 309 311 314 316 318 319 320 321 319 316 316 316 314 313 313 314 314 313 313 312 312 312 313 312 311 314 314 313 316 318 318 317 316 317 316 317 319 320 320 321
312 309 310 309 307 308 314 315 315 315 315 317 316 315 315 315 315 312 313 313 314 316 315 314 313 313 313 314 314 312 314 315 315 314 314 315 315 315 316 318 319 317 317 318
310 306 308 310 310 308 312 313 313 315 317 315 319 316 315 315 315 314 312 312 313 313 314 315 314 314 314 315 314 314 314 313 315 316 316 315 316 317 317 316 315 314 314 313
307 310 308 309 311 312 313 313 313 314 315 316 315 316 316 315 313 313 311 311 313 314 314 315 315 314 313 313 314 314 314 314 314 314 314 315 315 314 314 314 313 313 312 312
306 311 313 313 312 311 313 314 317 317 317 317 316 316 314 313 311 311 310 310 311 310 310 311 313 311 308 309 310 310 311 311 312 313 314 314 314 314 313 313 312 312 312 311
307 307 308 311 311 311 314 317 317 317 316 317 315 314 311 312 312 310 309 310 310 309 309 308 307 307 307 308 308 309 309 309 310 311 311 312 313 312 312 312 312 311 311 311
305 307 307 309 309 313 314 316 315 316 316 314 313 312 311 311 309 309 308 308 308 307 307 307 306 306 306 306 307 307 307 308 308 309 310 311 311 312 312 312 311 311 311 311
304 307 312 309 308 310 315 317 316 315 313 312 312 310 309 308 308 307 307 306 305 305 306 307 307 307 307 306 306 305 305 305 306 307 309 311 311 311 311 311 311 311 311 311
309 310 312 311 315 307 311 313 311 311 314 310 308 308 308 308 310 309 306 307 307 307 307 308 308 306 306 306 305 305 305 305 305 305 306 308 310 311 311 311 311 311 311 311
312 308 308 313 314 309 311 311 311 310 309 307 307 307 308 309 308 307 308 308 308 308 307 305 304 304 304 304 304 304 304 305 305 305 305 306 308 310 310 310 310 310 310 309
312 313 313 313 312 311 310 308 309 306 306 306 306 307 308 308 308 308 308 307 306 306 305 304 303 303 303 304 304 304 304 304 305 305 306 307 308 309 309 309 309 309 309 309
313 313 307 309 307 306 307 306 305 305 305 305 306 307 307 309 308 309 307 305 304 303 303 302 301 301 301 302 303 303 302 304 305 305 305 306 306 308 309 309 309 309 309 309
312 309 304 308 308 307 305 305 305 304 305 305 306 307 307 309 308 305 305 303 302 301 300 300 300 300 300 300 300 301 300 303 305 305 305 306 307 308 308 309 309 309 309 309
307 307 306 305 304 305 305 305 303 304 305 306 306 306 307 307 306 303 302 301 300 299 299 298 298 299 298 297 297 298 299 302 304 305 306 307 308 308 308 309 309 310 310 310
306 305 300 302 302 304 304 303 303 305 306 305 306 306 306 306 303 301 300 300 298 297 297 299 300 301 303 304 297 297 299 301 303 305 305 306 307 308 309 310 310 310 312 312

GFSCGP_925_thetae_078.txt.gz
Theta_e
308 308 308 307 306 308 308 308 308 308 309 310 309 310 309 308 308 307 308 307 307 308 310 311 313 318 320 324 333 340 343 344 345 343 344 344 343 342 341 340 334 335 337 337
308 308 308 308 308 308 309 309 309 309 310 309 309 310 309 308 308 308 308 308 307 307 308 310 316 318 321 325 331 337 340 342 344 343 343 343 342 342 341 337 339 339 339 339
309 309 309 310 310 310 310 310 310 310 311 310 310 310 309 309 310 310 309 308 308 308 308 308 317 321 323 328 334 337 340 342 343 342 344 345 345 343 340 337 337 336 334 334
309 309 311 310 310 310 312 310 312 313 312 312 310 313 311 309 309 309 309 307 307 306 307 308 310 320 323 326 331 337 342 345 346 345 345 346 344 342 343 341 340 340 337 340
310 311 310 310 310 314 315 315 315 312 310 309 310 309 311 309 309 308 309 309 307 308 308 309 308 314 322 324 325 330 338 342 345 347 347 346 343 342 342 342 342 341 340 338
309 312 311 310 314 316 316 316 315 308 307 312 313 311 313 312 309 309 309 310 312 310 309 307 309 312 317 323 323 324 334 337 337 337 337 339 339 340 340 340 339 339 339 338
312 312 316 316 317 316 316 316 317 317 314 317 312 310 313 311 310 309 310 312 310 309 308 309 305 306 314 320 323 323 325 323 322 320 320 320 321 325 330 332 333 334 336 337
314 314 316 317 317 316 318 316 316 319 318 316 315 318 314 312 313 314 313 311 311 310 308 308 308 309 313 318 320 320 321 320 319 320 320 320 319 320 321 323 325 326 328 331
317 318 316 317 317 316 318 318 314 313 316 321 315 314 313 313 315 315 314 313 312 310 310 308 309 309 315 318 318 318 319 319 319 319 319 319 320 320 320 321 322 323 323 323
312 314 314 315 316 316 316 315 314 318 321 324 318 316 316 315 317 315 314 313 311 311 311 311 310 309 310 314 315 318 318 317 318 318 318 318 319 320 320 320 322 322 322 324
313 311 311 310 313 313 312 316 317 318 319 322 322 316 316 317 316 316 313 312 310 310 312 311 311 312 312 311 312 315 317 317 316 318 318 318 319 319 320 320 321 322 321 322
312 311 313 311 308 309 308 310 312 312 313 317 319 317 315 313 312 313 313 312 312 310 311 311 313 313 313 313 313 312 314 316 316 315 317 318 319 320 321 321 319 321 319 319
312 309 312 310 306 307 312 314 314 312 313 315 317 312 313 313 313 313 312 311 310 311 311 312 312 311 312 313 314 314 314 313 314 316 315 317 319 318 320 318 317 318 319 319
310 306 310 310 309 307 310 311 313 311 313 313 314 313 313 313 313 313 312 310 309 309 309 309 310 312 313 313 313 313 312 313 314 314 314 315 315 315 315 315 316 318 317 316
306 310 307 307 307 308 310 312 311 312 312 315 313 313 312 313 312 311 310 310 310 309 308 308 308 308 311 310 309 310 310 311 311 312 312 313 314 315 315 315 317 316 315 313
305 311 310 312 311 311 312 311 311 315 316 315 314 315 312 311 309 310 309 309 309 308 308 308 308 308 307 307 307 307 308 308 308 309 310 311 311 314 315 316 314 314 312 312
306 307 307 311 309 309 310 312 315 315 315 315 316 313 310 309 309 308 308 308 308 308 308 308 307 307 306 306 306 306 306 307 307 307 308 308 309 311 312 313 313 312 312 312
304 305 305 308 308 310 311 314 314 315 315 314 313 312 310 309 307 307 307 307 307 307 307 307 306 306 306 307 306 306 306 306 306 306 307 307 308 309 310 311 312 312 312 311
303 306 312 309 308 309 309 315 315 313 311 310 309 308 308 307 306 306 304 305 306 306 306 306 306 307 307 307 307 307 306 305 305 305 305 306 307 308 309 310 310 311 311 311
305 309 313 310 310 307 307 314 310 310 313 308 307 307 307 307 309 308 307 307 307 307 307 308 307 306 306 307 307 307 305 305 305 305 305 305 305 307 309 310 310 311 311 311
312 312 313 312 312 309 308 310 309 311 309 305 306 306 306 308 308 307 307 307 308 307 307 307 305 305 305 305 305 305 305 304 304 304 305 305 305 305 306 308 309 310 310 310
311 305 307 313 309 308 308 308 309 305 305 305 305 306 306 306 307 307 307 307 305 305 304 303 303 302 302 302 302 303 303 303 303 304 304 304 304 304 305 305 308 309 309 309
311 309 306 308 306 305 307 305 304 304 304 305 306 306 306 307 307 306 306 305 305 302 301 301 301 300 300 300 300 300 301 302 303 304 305 304 304 304 306 306 308 308 308 308
312 308 303 308 307 304 304 304 304 303 304 304 305 306 306 306 306 305 305 304 302 300 299 299 297 297 298 298 298 299 299 300 301 303 303 304 304 305 305 306 308 308 307 308
307 307 306 305 303 304 304 303 303 304 304 304 304 304 305 305 305 303 303 303 299 298 297 297 297 298 299 299 301 301 298 298 299 301 302 302 304 305 305 306 308 308 308 308
304 305 302 302 301 302 303 304 304 304 303 304 303 304 304 304 302 302 302 301 298 296 297 298 299 300 301 302 299 300 299 297 300 302 301 304 305 306 307 308 308 308 309 309

GFSCGP_925_thetae_081.txt.gz
Theta_e
311 314 315 314 313 312 311 312 313 314 314 313 315 315 315 315 315 316 316 317 316 316 317 315 315 315 317 319 330 344 347 347 347 346 346 345 345 346 346 345 346 345 343 341
313 315 314 312 311 311 312 313 314 314 314 313 316 316 316 315 315 316 316 316 317 317 317 318 316 316 319 318 322 331 344 348 347 346 346 345 345 345 345 344 343 340 342 342
314 313 311 312 312 313 314 314 314 315 315 316 316 316 316 315 315 315 315 316 317 317 317 318 318 317 322 323 326 331 339 345 346 345 346 346 345 344 344 344 343 341 340 340
314 313 312 312 313 313 315 313 314 316 318 318 316 319 317 316 316 316 315 316 317 317 317 316 319 319 321 325 325 330 336 342 344 345 345 345 344 345 344 343 342 340 338 338
315 313 313 314 314 313 315 317 318 318 318 318 317 318 316 316 316 316 316 316 316 316 316 318 318 317 317 320 326 328 335 341 344 344 345 345 346 345 345 344 343 342 341 337
313 312 313 314 315 317 317 318 319 317 317 318 317 318 317 316 316 316 315 315 315 317 317 318 317 316 316 317 323 327 333 340 344 346 346 346 346 346 344 345 344 344 344 345
314 314 314 317 317 318 319 319 318 317 318 318 316 317 316 316 315 316 317 317 317 318 318 318 318 319 317 315 319 325 328 335 338 344 347 347 346 345 344 344 343 343 342 342
316 316 318 318 317 317 319 317 316 318 314 314 314 316 314 316 318 317 317 317 317 318 318 318 317 317 318 317 315 322 326 330 333 333 335 335 335 336 336 338 336 337 338 339
319 318 317 317 318 317 319 317 318 322 316 317 313 314 316 317 319 318 318 317 318 317 317 318 319 317 316 320 319 319 322 327 327 326 326 325 326 326 325 325 325 330 330 332
315 315 314 315 317 318 318 317 319 318 318 316 313 318 318 318 320 318 317 317 317 317 317 317 317 318 316 315 320 320 321 323 323 322 321 320 319 320 321 321 322 323 325 325
316 314 313 313 314 313 318 319 319 317 317 318 317 314 318 318 318 317 316 316 315 315 315 316 317 316 317 317 316 320 319 318 319 322 322 323 324 324 320 320 321 322 322 323
315 317 317 313 311 311 312 313 314 317 315 319 318 315 312 318 316 315 316 316 314 313 313 313 314 314 315 316 317 317 319 320 319 317 319 321 323 323 324 323 321 321 321 322
315 316 314 312 313 311 315 315 315 317 316 316 317 314 314 316 314 314 316 315 314 312 312 312 311 311 312 313 316 316 315 315 315 317 318 319 320 322 324 324 324 323 324 323
315 314 314 313 311 312 313 313 314 314 316 314 313 313 314 314 315 315 315 314 312 312 312 311 311 311 310 312 313 313 312 312 312 313 314 317 320 320 322 323 324 321 322 322
313 315 314 313 312 311 312 312 312 314 314 315 314 314 315 316 316 315 313 313 312 312 311 310 309 310 310 310 310 310 311 311 311 310 311 313 315 318 319 320 321 320 321 322
311 315 314 313 312 311 312 311 312 313 313 313 314 317 314 314 314 314 314 312 312 311 309 309 309 310 310 310 309 309 309 309 309 309 310 310 311 313 316 317 318 319 320 321
312 313 312 310 311 312 313 312 312 313 314 316 317 315 314 315 314 313 311 310 310 309 309 309 309 310 309 309 309 309 309 309 308 309 309 309 310 311 312 315 317 318 319 318
311 311 312 312 312 315 313 315 315 316 316 316 316 314 313 312 310 310 309 309 309 308 309 309 309 310 309 308 308 308 309 308 308 308 308 309 309 310 310 312 314 316 317 316
309 310 313 315 315 313 312 314 315 315 315 313 312 312 311 310 309 309 308 309 308 308 309 310 308 308 309 308 309 309 309 308 307 308 308 308 308 309 310 311 312 314 315 315
307 310 314 315 318 316 312 315 311 312 316 312 310 310 309 309 311 310 308 308 308 308 307 308 307 306 306 306 307 306 306 307 307 307 308 308 308 308 308 310 311 312 313 314
315 314 314 315 318 316 312 311 311 316 315 309 308 308 308 309 308 308 307 307 306 306 306 305 305 305 304 302 303 304 304 305 306 306 308 308 307 307 307 308 309 311 312 312
318 319 317 316 318 317 311 312 313 312 309 308 307 307 307 307 306 307 306 306 305 305 303 302 303 301 300 300 299 300 301 301 302 303 304 306 307 307 307 308 308 310 311 312
317 316 317 316 316 311 310 310 308 307 307 306 305 305 306 306 306 305 305 304 303 302 302 302 300 299 299 298 298 298 298 299 300 301 302 303 304 305 306 308 308 309 310 311
315 311 316 315 311 310 309 307 307 305 305 304 305 306 306 305 305 304 303 302 302 301 300 299 299 298 298 298 298 298 298 298 299 300 300 302 303 304 305 306 307 307 308 310
311 312 313 313 311 310 307 308 306 305 304 304 304 304 304 304 303 302 301 301 300 298 298 298 299 300 300 300 301 302 300 299 300 299 299 301 303 304 305 305 306 307 309 310
311 312 314 314 307 308 307 306 305 304 304 304 304 304 303 303 302 301 300 299 297 296 298 299 299 299 300 301 303 299 298 298 301 299 300 301 304 303 304 305 306 306 308 309

GFSCGP_925_thetae_084.txt.gz
Theta_e
316 317 317 317 316 316 315 315 316 317 317 317 318 318 318 318 319 319 318 319 319 319 319 319 319 320 321 322 324 329 343 350 354 354 353 351 350 349 348 347 348 348 347 347
316 316 316 316 316 315 315 316 317 317 317 317 318 319 319 319 319 318 318 319 319 319 319 319 319 319 321 323 324 326 334 346 352 352 352 351 349 348 348 347 347 347 347 347
317 316 315 315 315 315 316 317 317 317 318 318 320 320 320 319 319 319 319 319 318 319 319 320 320 319 320 323 325 327 329 338 350 351 351 351 350 348 348 348 347 347 347 347
317 317 316 316 316 316 318 317 316 317 319 321 320 321 320 319 319 319 319 319 319 319 319 320 320 320 319 321 322 325 329 332 341 350 349 350 349 349 347 347 347 347 346 345
318 316 316 317 317 316 317 318 318 319 320 321 320 321 320 319 319 318 318 318 318 318 319 319 321 320 321 321 321 322 329 332 337 346 349 349 349 347 346 346 347 348 347 346
317 317 316 317 317 316 318 318 319 320 321 323 320 320 320 318 317 317 318 318 319 321 321 321 320 320 321 321 321 320 326 332 336 342 347 349 349 347 345 347 347 347 345 346
318 318 317 317 318 319 319 321 322 322 321 322 317 316 317 317 318 319 319 320 320 321 321 321 321 322 320 321 322 323 322 329 337 341 344 346 348 349 349 348 348 345 344 345
319 320 318 319 319 319 320 321 321 323 319 317 315 315 316 317 318 319 320 320 320 321 321 321 321 321 320 320 320 324 322 324 332 343 346 346 348 349 349 348 345 344 340 342
320 320 318 319 318 318 320 320 319 319 317 317 315 314 316 319 319 318 319 319 319 320 320 320 321 320 320 320 320 322 325 323 326 336 344 346 350 350 347 346 347 344 343 341
317 318 316 317 317 318 316 317 319 318 321 317 313 313 314 317 318 317 317 317 318 318 318 319 319 318 319 320 320 320 324 325 325 331 336 340 341 339 335 335 335 329 331 331
316 316 316 315 315 315 318 317 317 318 320 320 317 314 316 315 315 318 317 315 317 318 318 317 317 316 317 317 318 320 320 324 325 327 330 330 329 327 328 328 327 328 329 330
316 317 318 315 314 314 314 314 316 321 318 319 319 318 315 316 317 318 316 316 317 318 317 316 316 315 315 315 316 318 320 319 322 323 325 326 327 326 326 326 326 326 328 327
317 316 319 316 315 315 315 314 314 316 317 320 320 317 314 314 315 316 317 317 318 317 316 316 316 315 314 314 314 315 316 318 318 318 321 322 325 327 327 326 326 326 325 325
317 317 317 317 314 315 315 314 314 316 319 317 316 315 314 315 316 317 318 318 317 316 316 316 315 314 313 313 313 313 313 315 316 316 317 319 322 324 326 327 326 325 324 323
315 319 317 315 314 314 314 314 313 313 314 316 315 315 314 315 317 317 317 317 316 316 314 314 313 313 312 312 311 312 312 312 313 315 316 316 317 320 323 325 326 325 324 323
315 315 314 315 314 314 314 312 312 312 313 314 314 315 314 316 316 316 316 316 315 314 313 313 313 312 313 312 311 311 311 312 312 312 314 315 316 315 317 321 325 326 324 323
314 315 316 316 312 312 313 315 314 314 314 314 316 316 316 316 315 315 314 314 313 313 312 312 312 312 312 311 311 311 311 311 311 312 311 312 313 315 315 316 320 323 325 324
313 314 314 314 313 315 316 315 316 316 316 316 316 316 315 315 314 312 311 312 312 311 311 310 310 310 309 308 309 310 309 310 311 311 312 311 311 312 313 314 315 319 322 325
312 312 313 315 316 316 315 317 317 317 317 315 316 315 314 313 312 312 311 310 310 309 309 310 308 307 307 307 307 307 308 308 308 310 311 311 311 311 312 313 314 316 320 323
312 313 315 315 320 319 318 316 314 315 318 315 314 314 313 312 313 312 309 308 308 308 307 306 305 304 305 303 305 305 305 306 307 308 309 311 311 311 311 314 314 315 318 321
316 315 316 316 320 317 317 315 314 319 320 315 312 312 310 310 310 309 308 308 306 305 304 303 303 303 303 302 302 303 302 301 301 304 306 306 307 310 311 312 314 315 316 317
319 320 320 318 319 318 314 315 317 316 314 312 311 309 308 308 308 308 308 306 305 304 303 302 302 301 300 301 301 301 300 300 300 299 300 303 306 308 310 312 313 313 316 317
320 319 320 319 319 316 315 315 313 312 312 310 309 308 307 307 308 307 306 304 303 302 301 300 299 299 298 299 299 300 299 299 299 299 300 299 302 303 307 310 312 312 314 316
316 315 317 316 315 314 314 312 311 311 310 308 307 307 307 308 305 305 304 303 302 301 300 299 298 298 299 299 298 299 300 300 300 299 299 300 301 302 303 306 310 311 312 314
313 314 315 315 313 313 312 312 311 309 308 308 307 307 307 307 305 303 302 301 299 299 298 298 298 299 298 298 299 301 301 299 299 299 300 300 300 302 303 303 305 309 310 311
311 312 316 316 314 313 313 311 309 308 308 307 307 307 306 306 304 302 300 299 298 297 297 298 297 297 298 299 301 301 299 300 300 300 299 300 300 301 303 304 305 304 308 310

GFSCGP_925_thetae_087.txt.gz
Theta_e
318 319 319 318 318 318 318 318 318 319 319 319 319 319 320 320 320 320 321 321 321 321 321 320 320 320 320 321 325 328 332 326 350 353 354 356 354 353 353 351 349 348 349 348
320 318 318 319 319 318 318 318 318 318 319 319 320 320 321 321 321 321 321 321 321 321 321 321 320 320 320 321 323 326 330 333 343 353 355 355 355 355 353 352 350 349 350 350
319 320 317 317 317 317 318 318 318 319 320 320 320 322 323 323 322 321 321 321 321 321 321 321 321 320 320 320 323 323 328 330 334 350 351 354 355 354 352 352 352 351 350 350
318 318 316 317 317 318 319 319 319 319 320 322 323 324 323 323 323 322 321 321 321 321 321 321 321 321 322 322 322 323 325 327 331 335 348 350 352 353 352 352 351 351 351 350
319 318 318 318 319 319 320 319 319 321 322 323 323 325 324 323 322 322 320 320 320 320 320 322 322 322 321 322 322 323 324 325 329 334 340 347 350 351 350 351 350 351 351 349
319 319 318 319 319 319 319 320 320 321 322 324 324 325 324 322 320 320 320 321 320 322 322 322 321 321 321 321 321 322 324 326 328 331 336 345 347 349 349 349 349 350 350 351
319 319 319 319 320 321 321 323 325 325 325 326 322 320 320 319 319 320 320 320 321 321 321 322 321 321 321 321 321 322 323 326 326 328 335 340 346 349 350 347 347 348 350 350
320 323 321 320 320 321 321 322 326 328 326 325 323 320 318 318 319 320 319 321 321 321 320 321 321 321 321 321 322 322 323 325 328 326 331 339 343 348 348 349 346 348 347 347
319 321 320 319 319 319 320 321 321 324 322 321 318 318 318 319 319 319 319 318 318 319 319 320 319 319 320 319 321 321 323 323 327 327 329 338 340 342 344 346 346 348 345 341
320 323 321 320 319 319 319 317 322 322 324 324 317 316 316 319 319 317 316 317 317 316 318 319 319 318 318 318 318 319 321 323 323 327 328 331 339 342 343 346 345 343 345 339
319 321 322 318 318 318 320 320 318 318 321 326 323 317 317 317 317 317 317 318 318 318 318 318 318 317 317 317 317 317 319 321 322 324 327 330 334 338 340 341 337 340 343 343
319 320 323 320 319 316 317 317 318 324 323 320 321 319 318 317 316 317 316 317 317 318 318 318 318 317 317 316 316 316 317 318 320 321 323 327 330 332 334 334 322 332 335 336
319 321 322 321 319 318 317 315 315 317 318 320 324 320 317 316 316 316 316 317 318 319 318 317 317 317 316 315 315 315 315 316 316 319 320 320 326 329 330 329 328 329 330 330
317 322 323 324 322 321 319 316 316 317 320 320 319 318 317 316 316 316 316 318 317 317 317 317 317 316 315 314 314 313 314 314 315 315 318 320 320 325 327 329 328 327 327 327
317 322 320 319 320 318 317 315 315 316 316 317 316 315 315 316 316 317 318 317 317 317 316 316 315 315 315 314 314 313 313 313 313 314 315 316 320 319 323 327 328 327 326 325
316 321 319 321 318 316 315 314 314 315 315 315 315 315 315 317 318 317 317 316 316 315 315 314 314 314 314 313 313 313 313 312 313 313 313 314 315 319 318 320 324 328 326 325
318 319 319 319 317 316 315 314 314 314 314 316 316 316 317 317 317 316 315 315 314 314 313 313 312 312 312 311 310 310 310 310 311 311 313 313 314 315 318 318 319 324 328 328
319 318 318 322 317 317 315 317 317 317 316 316 317 317 317 317 315 315 314 314 313 312 311 311 311 309 308 307 307 306 307 306 308 308 309 311 313 314 315 317 316 319 323 327
317 316 318 317 316 315 315 319 319 318 318 317 318 317 316 315 314 313 312 311 311 310 310 308 306 305 304 304 304 305 304 305 303 305 307 309 311 313 314 315 316 317 319 323
316 316 317 316 320 318 322 318 316 316 318 319 317 316 315 314 315 313 312 310 310 309 307 305 305 304 303 303 303 303 304 303 303 302 303 306 307 310 310 314 315 314 318 318
319 317 317 315 319 318 319 317 316 319 322 317 315 314 314 314 314 312 310 310 308 306 305 303 303 303 302 301 300 301 301 301 302 303 303 304 305 308 308 308 315 316 315 316
320 320 320 319 320 323 317 317 318 319 317 315 314 313 313 312 311 309 311 308 307 305 303 301 301 300 299 299 298 298 299 299 300 301 301 301 303 303 304 308 308 314 316 315
324 322 322 320 320 319 318 317 316 315 315 314 313 312 311 311 310 310 309 307 304 302 300 299 298 298 298 299 299 299 299 299 299 299 299 300 300 302 302 303 308 311 317 318
316 317 320 318 317 316 315 315 314 314 313 312 311 311 310 311 310 309 308 304 302 300 298 297 298 298 298 298 298 299 299 300 300 300 299 299 299 300 301 302 305 310 314 318
313 316 316 317 315 316 315 314 314 313 311 310 310 310 310 309 309 307 305 302 300 298 297 297 297 298 298 298 299 301 302 301 300 300 300 301 300 300 300 301 303 306 311 315
312 312 316 318 316 315 315 313 312 311 309 310 310 309 309 308 308 306 303 301 299 297 297 297 296 296 297 299 300 303 304 303 302 302 300 299 300 300 300 302 303 303 305 309

GFSCGP_925_thetae_090.txt.gz
Theta_e
319 318 320 320 320 319 319 319 320 319 319 319 319 320 320 320 321 321 321 322 323 324 324 322 321 320 321 321 324 325 327 328 329 333 353 357 358 356 355 354 350 349 349 350
320 319 319 319 319 319 318 318 320 319 319 319 319 320 320 321 321 322 324 323 323 323 323 325 323 323 324 323 323 328 329 330 331 335 342 353 357 357 354 355 353 351 349 348
320 321 319 318 319 319 319 319 318 318 319 320 320 321 322 322 323 324 323 323 322 324 325 326 326 324 326 326 324 325 326 328 331 334 331 346 350 353 353 353 352 351 352 350
320 319 319 318 318 318 318 318 319 320 320 320 321 323 324 323 324 324 324 324 322 324 324 324 326 326 324 323 323 324 325 327 329 328 332 334 345 352 352 351 353 353 351 352
319 319 319 318 318 319 319 320 320 320 322 322 322 323 324 324 324 324 323 322 322 322 323 324 324 323 322 322 323 323 323 322 324 328 330 332 336 344 349 352 351 351 351 351
319 319 319 319 319 320 320 320 321 322 322 324 323 324 324 324 323 322 322 321 321 321 321 321 322 322 323 322 322 323 323 324 324 324 329 332 338 338 347 348 350 350 350 350
318 318 319 319 319 319 320 322 324 327 326 325 325 326 325 322 321 321 321 320 320 321 321 322 322 322 322 322 322 322 323 325 325 326 327 331 332 338 344 346 348 348 348 350
322 323 322 322 321 321 322 323 325 330 329 326 324 327 324 320 320 321 320 321 321 320 319 320 321 321 319 320 321 321 322 323 324 324 327 329 331 336 340 346 346 346 347 347
322 321 320 321 321 320 321 321 322 325 324 325 323 322 320 320 320 321 321 320 319 319 318 319 319 320 319 319 320 320 320 321 322 325 325 328 329 331 338 341 345 344 346 346
321 323 322 322 321 320 320 320 324 322 327 326 322 321 320 321 320 319 318 317 318 318 319 319 320 320 319 319 319 319 320 320 321 321 324 324 327 331 333 338 343 343 344 342
321 323 324 322 323 321 319 320 320 320 327 327 323 321 319 319 318 318 317 317 317 317 318 318 319 318 318 318 318 318 318 318 318 319 321 323 324 326 330 333 338 341 336 326
321 323 325 323 322 319 319 319 323 327 323 322 324 322 321 319 317 317 317 317 317 318 318 318 318 318 318 317 317 317 317 317 316 317 317 321 321 323 326 328 330 332 326 323
320 323 326 324 322 320 321 318 318 320 323 325 327 322 318 318 319 317 317 316 316 318 318 318 319 319 318 317 316 316 315 315 315 315 315 317 320 322 323 327 329 328 324 323
318 322 326 328 326 324 323 321 318 318 321 318 318 319 319 321 318 317 318 318 318 319 319 318 318 317 317 316 316 316 316 315 315 316 316 316 317 319 321 322 322 328 320 328
318 321 320 320 321 322 322 323 320 319 317 318 317 317 317 317 317 318 319 318 317 316 316 316 316 316 315 314 313 312 312 312 312 313 314 314 315 317 317 320 321 322 325 329
319 320 320 322 320 320 320 320 320 317 316 315 315 316 316 317 317 318 317 316 315 316 314 314 314 314 313 311 310 309 308 307 308 309 309 311 312 313 314 317 319 321 322 327
321 321 321 323 319 318 320 318 318 316 316 315 315 316 317 319 318 317 317 316 315 314 313 313 312 312 310 309 308 307 306 306 306 305 306 308 309 311 311 314 317 321 320 323
320 320 322 322 320 326 319 316 317 319 318 317 317 318 318 317 315 315 314 315 314 313 312 311 310 309 307 305 305 305 304 304 304 304 305 306 306 310 310 311 314 318 321 321
317 319 323 322 322 319 316 319 320 320 319 321 320 318 316 315 314 314 315 313 312 312 311 309 307 305 304 304 303 303 304 303 302 304 304 304 306 306 306 309 312 316 319 319
317 317 321 318 325 320 322 319 317 317 318 320 317 316 315 315 316 315 313 312 312 311 308 306 303 302 301 301 300 301 301 301 300 301 303 304 304 304 306 308 310 310 316 318
320 321 323 321 318 316 321 320 317 320 322 318 316 315 315 314 314 314 313 312 309 308 305 303 302 300 299 299 298 299 299 299 299 299 299 300 302 303 304 304 306 309 312 317
323 321 322 319 319 321 318 318 320 320 318 316 315 314 313 312 312 312 311 311 309 306 303 301 300 298 298 298 298 299 299 299 299 299 299 299 299 300 303 305 305 306 308 313
322 322 322 321 322 320 319 319 317 316 316 315 313 312 312 311 311 311 310 309 306 304 301 299 298 297 298 298 298 298 299 299 300 300 300 299 299 299 300 302 305 305 305 309
319 319 322 320 319 319 320 317 315 314 314 313 311 311 310 310 310 309 308 307 303 301 299 298 297 297 297 296 297 298 299 301 302 303 302 301 300 300 299 300 302 303 304 308
316 316 318 317 316 317 317 316 315 313 312 310 310 310 309 310 309 308 307 304 301 299 298 296 296 296 296 296 297 299 301 303 304 304 302 302 301 300 299 300 301 302 304 307
313 314 317 319 317 316 315 315 313 312 310 310 309 308 309 309 307 306 305 301 299 298 296 295 295 295 295 296 297 298 301 304 305 305 303 301 300 300 300 300 301 301 303 306

GFSCGP_925_thetae_093.txt.gz
Theta_e
316 314 315 315 316 316 317 317 317 318 317 317 316 316 316 318 318 318 316 316 317 318 318 320 323 322 320 321 322 321 321 323 324 324 325 350 351 352 354 352 352 353 347 347
317 315 316 318 319 319 317 318 317 318 319 317 318 318 319 319 318 318 318 319 320 321 320 320 323 323 323 323 323 326 326 328 332 333 331 334 338 348 352 353 352 350 350 348
317 319 319 318 317 319 318 319 318 317 317 318 319 318 319 319 319 319 319 318 318 318 319 321 322 323 323 322 322 323 325 324 325 324 326 329 330 333 346 347 349 350 350 351
318 318 319 318 318 317 317 317 318 317 319 318 319 318 319 319 320 319 319 318 318 319 319 319 319 321 322 323 322 324 323 322 323 323 323 326 330 333 333 335 344 347 347 347
317 318 318 318 317 317 317 320 320 320 318 318 319 319 318 319 320 321 319 319 317 317 317 318 318 321 321 321 321 323 322 322 324 323 323 323 326 328 330 333 335 343 344 346
316 317 318 318 318 318 320 319 320 320 318 319 319 320 320 320 321 320 318 318 318 318 318 317 319 320 321 321 322 320 321 321 323 325 323 323 325 327 329 329 334 338 343 345
317 317 317 319 320 318 319 318 320 321 322 323 322 325 321 323 320 319 318 318 318 317 316 318 318 316 319 320 320 321 320 319 319 323 321 323 323 323 329 329 331 337 341 345
320 322 320 321 322 321 321 320 326 331 326 324 323 327 327 320 319 318 319 318 318 319 314 316 318 316 318 319 319 320 319 319 319 321 320 322 321 324 326 330 332 332 337 343
324 323 321 321 321 319 320 320 320 321 323 323 322 321 321 321 320 319 319 318 317 316 315 315 313 314 318 318 319 318 318 318 318 319 320 319 319 323 323 322 324 329 333 336
320 322 321 322 322 321 320 319 324 322 327 326 322 321 324 321 319 317 316 316 316 316 314 313 315 317 319 318 317 317 318 318 320 319 318 317 318 320 320 322 321 324 329 333
320 321 322 322 323 323 323 319 319 321 327 322 323 321 320 318 315 316 315 314 313 312 313 314 314 316 317 317 317 317 317 318 318 316 316 316 317 317 318 320 319 320 327 329
322 322 324 323 320 321 321 319 320 324 324 323 322 321 320 320 315 315 312 312 313 314 314 312 312 314 314 315 314 314 313 313 312 312 312 315 315 315 318 319 317 318 322 326
321 322 323 322 321 320 322 320 319 322 322 324 324 324 320 317 316 316 315 314 314 313 313 312 311 311 312 312 313 312 311 311 310 309 309 310 312 313 314 317 319 316 321 323
319 321 322 324 328 325 326 324 321 317 316 317 317 316 316 316 317 317 315 313 312 311 311 311 310 309 310 311 311 310 309 308 308 307 307 307 308 309 311 312 312 317 318 321
317 319 319 318 319 321 323 324 324 323 321 318 316 317 316 315 316 314 313 312 312 312 312 311 310 309 309 309 309 308 308 306 306 306 306 306 306 308 308 309 310 311 314 320
319 318 318 320 319 319 320 321 322 322 322 320 318 316 315 315 314 313 312 313 312 312 311 310 309 309 308 308 308 307 306 305 305 305 305 304 304 305 305 306 308 309 310 314
320 320 320 320 320 320 322 319 319 318 319 317 316 317 314 314 314 312 312 311 311 310 309 309 308 307 306 305 304 304 304 304 304 304 304 303 304 304 304 306 306 308 309 310
319 320 320 320 320 323 319 318 318 318 320 320 319 316 314 313 311 311 310 310 309 309 309 307 305 305 304 303 302 301 301 301 301 302 303 302 301 302 304 305 304 307 308 309
314 318 320 323 320 320 319 318 320 320 322 318 317 315 314 312 312 313 310 309 309 307 306 305 304 304 302 302 301 299 299 299 299 300 300 301 301 302 303 304 305 305 305 308
316 317 319 321 321 323 322 321 319 318 322 317 315 314 313 311 313 311 309 308 308 305 305 304 303 302 301 299 298 298 298 299 299 299 299 300 300 300 300 301 302 304 305 308
319 319 319 317 317 317 318 320 318 322 321 317 313 312 311 311 310 308 308 307 307 305 304 302 301 300 299 298 298 298 298 299 299 299 299 300 300 300 300 300 301 304 305 307
319 319 320 318 320 317 320 320 321 318 316 314 313 311 310 309 308 308 307 306 304 303 302 301 300 298 297 297 297 297 297 298 298 299 300 300 301 301 301 300 300 301 304 305
322 318 318 319 319 319 319 319 318 314 313 312 310 310 309 308 308 307 306 304 303 302 301 299 298 296 296 296 296 296 297 297 298 300 301 302 302 302 301 300 300 301 303 305
320 318 316 320 319 319 319 316 316 313 311 309 309 308 307 308 307 304 304 303 301 300 299 297 296 296 295 295 296 296 297 298 298 301 303 304 304 303 302 300 300 300 302 305
317 318 319 318 317 318 318 316 314 313 309 309 307 307 307 305 304 303 302 300 299 298 296 295 295 295 294 295 295 296 296 297 300 303 304 305 302 301 301 300 300 300 301 303
314 315 315 317 315 315 316 314 314 309 309 307 306 307 305 303 303 301 300 299 297 296 295 294 294 294 294 294 294 294 295 297 299 302 305 302 301 300 300 300 300 299 300 302

GFSCGP_925_thetae_096.txt.gz
Theta_e
314 312 313 313 313 315 315 316 315 315 315 314 315 315 314 314 316 316 315 315 315 315 316 318 321 320 323 324 325 327 330 331 331 330 330 329 338 348 349 348 348 349 348 346
314 313 313 315 316 316 317 316 315 315 316 315 313 313 315 315 315 314 315 314 314 316 319 321 322 321 322 322 323 322 322 323 324 326 328 329 327 327 328 336 344 343 344 345
314 316 316 316 316 317 316 315 316 316 316 316 316 316 317 317 318 317 315 316 315 319 319 319 319 320 322 323 322 322 322 322 322 322 322 322 321 321 322 323 326 328 332 342
315 317 318 318 318 315 315 316 318 319 316 316 317 318 317 318 317 318 317 317 317 317 317 317 316 319 323 323 324 323 321 322 323 323 322 323 324 325 323 323 323 323 323 324
316 316 316 317 316 316 315 319 319 319 316 316 317 316 316 317 319 318 316 316 315 315 315 315 316 319 320 320 323 321 321 321 322 324 323 323 323 323 322 322 325 325 326 326
315 315 317 317 317 316 318 317 315 316 315 317 317 317 317 317 318 318 317 316 316 315 315 315 317 318 319 321 320 320 320 319 320 320 323 322 321 322 323 323 324 326 327 327
316 316 316 318 320 318 315 314 316 318 320 320 322 321 318 319 318 317 316 317 316 315 315 315 316 315 317 319 319 319 319 319 318 318 318 318 319 321 320 320 323 325 322 323
316 320 320 320 320 320 319 316 318 324 325 323 319 325 324 318 317 317 318 317 315 314 312 313 314 314 316 318 318 318 319 318 318 318 318 320 319 319 319 322 322 321 321 320
322 323 320 320 320 318 319 318 318 320 321 321 320 321 320 319 319 318 317 316 315 314 311 310 312 313 312 316 317 317 318 318 317 317 317 319 320 318 318 320 320 320 320 319
319 321 320 322 321 320 319 319 321 319 325 324 322 322 323 319 319 317 316 315 313 313 312 310 310 312 313 313 313 314 313 312 312 313 313 313 313 314 316 320 320 319 319 317
318 318 320 319 322 321 321 321 318 320 324 322 321 321 318 317 314 313 312 312 310 308 308 309 308 310 312 312 312 312 311 311 310 310 309 309 309 309 310 312 315 318 320 318
320 318 322 321 319 319 320 319 317 322 321 320 318 318 319 317 316 312 310 311 310 310 308 307 307 310 311 311 310 310 309 309 308 308 307 307 307 307 307 308 309 310 311 314
318 319 320 319 316 319 322 321 318 318 317 320 322 319 318 318 316 314 311 310 310 309 308 308 307 307 309 310 310 309 309 308 307 307 306 306 306 306 306 306 307 308 308 310
318 318 318 319 323 322 325 324 322 322 318 319 319 318 316 315 315 313 311 309 308 308 309 308 306 306 307 308 308 308 307 307 306 305 305 305 305 305 305 305 306 307 307 308
314 318 319 318 318 320 323 323 322 324 323 319 317 313 313 314 313 312 310 311 311 309 308 308 307 305 306 307 306 305 305 304 304 303 303 303 304 304 304 304 304 304 305 307
315 315 317 318 318 318 319 320 322 323 323 324 321 320 314 313 310 311 311 310 310 309 309 308 307 306 305 305 304 304 303 302 301 301 302 301 302 303 303 303 303 303 305 307
316 317 319 319 319 319 320 319 318 318 321 321 321 316 313 312 311 310 309 309 309 308 307 307 305 304 304 303 303 301 301 301 300 300 300 300 301 302 302 301 301 302 304 305
315 318 321 323 318 322 315 316 318 319 319 317 315 313 312 312 311 309 309 308 307 306 305 304 302 303 303 302 301 300 300 299 299 299 299 300 300 300 301 301 301 302 302 303
314 317 321 321 317 317 316 321 321 321 321 316 315 313 312 311 310 310 308 307 307 305 303 303 303 302 301 300 300 299 298 298 298 299 299 300 300 300 300 300 300 300 301 303
314 316 317 320 318 318 317 320 317 318 324 316 313 312 311 309 310 308 306 306 304 304 303 302 301 300 299 299 298 298 298 298 298 298 299 299 299 300 300 301 301 300 300 301
317 318 319 319 319 315 316 317 316 320 320 313 312 310 310 310 308 306 305 304 304 303 302 301 299 298 298 297 297 297 297 297 297 297 298 299 299 300 301 301 301 301 300 300
316 317 318 318 320 319 317 320 321 317 313 311 310 309 308 307 306 305 303 302 302 301 300 299 298 297 296 296 296 296 296 296 297 297 298 299 300 301 302 302 302 301 300 300
322 315 316 316 312 314 318 317 315 313 311 310 308 307 306 306 303 302 301 301 300 299 298 297 296 295 295 295 295 295 296 296 297 297 297 299 301 303 303 301 302 301 300 300
319 319 315 316 317 319 317 316 315 315 309 307 305 305 304 302 301 300 300 299 298 298 297 296 295 295 295 295 294 294 295 295 296 297 298 300 302 302 301 300 302 301 300 300
315 318 318 316 317 318 316 316 315 313 307 305 305 302 302 301 300 299 299 298 298 297 296 296 295 295 294 294 293 293 293 294 295 296 297 299 303 301 301 300 301 300 300 300
312 313 312 312 315 315 315 312 314 308 305 305 304 302 301 300 300 299 299 298 298 297 296 295 294 293 293 293 292 292 293 293 294 296 298 300 302 301 300 300 300 300 299 300

GFSCGP_925_thetae_099.txt.gz
Theta_e
313 311 312 312 312 314 314 314 314 313 313 315 312 312 313 312 314 314 313 313 313 315 319 319 316 321 322 323 329 334 334 328 327 328 330 330 330 330 330 334 344 347 348 347
313 313 312 313 313 315 315 316 315 314 314 313 312 312 312 312 314 313 313 313 313 319 320 319 322 325 325 326 326 328 329 329 329 328 326 325 323 323 322 322 322 324 326 328
313 314 315 315 315 315 314 315 314 315 315 315 315 314 315 315 316 315 315 314 314 319 318 318 318 321 323 324 324 323 322 322 322 321 321 321 321 321 321 321 321 321 321 323
313 313 315 316 316 315 315 314 316 317 315 315 315 315 315 317 316 317 315 315 317 317 317 316 317 319 323 323 322 321 322 322 322 322 321 321 322 322 322 322 322 321 321 321
315 316 315 316 316 315 316 315 317 316 315 314 316 314 314 315 318 318 316 316 316 315 315 316 317 319 323 323 321 321 320 321 321 321 321 321 321 321 321 320 320 320 320 321
314 315 315 315 316 316 316 315 313 313 312 315 316 314 314 315 316 317 316 315 315 314 315 315 316 318 319 322 320 320 319 319 319 319 321 321 321 320 320 319 320 319 321 321
315 315 315 316 318 317 314 312 314 315 316 316 318 318 315 317 316 317 315 315 314 314 313 313 312 313 317 319 319 319 319 318 318 318 319 320 319 318 318 318 318 318 319 321
315 317 319 320 319 318 317 314 316 319 321 320 318 322 321 317 315 315 315 315 313 312 311 312 312 312 312 313 313 313 316 315 315 315 315 315 317 318 319 318 318 321 322 321
317 321 319 320 319 318 318 319 317 320 320 320 318 319 318 318 317 316 315 314 314 312 310 308 309 309 311 312 312 312 312 311 311 310 309 310 310 310 310 311 312 315 319 320
317 321 320 320 320 320 318 317 320 318 324 324 321 321 320 319 318 317 316 315 313 309 309 308 308 310 311 311 311 310 309 308 308 308 308 308 308 308 308 308 308 309 309 311
316 317 319 319 320 320 320 319 318 319 320 323 323 321 317 318 316 315 310 308 308 307 307 307 307 309 310 310 309 308 308 308 308 307 307 307 307 307 306 306 307 307 307 307
319 316 319 319 318 318 319 320 317 322 323 319 318 320 316 315 315 312 310 310 309 306 306 306 306 308 309 309 308 308 308 307 307 306 306 306 305 305 305 305 305 305 305 306
318 317 319 318 313 318 321 321 317 315 316 319 320 320 316 315 313 310 310 309 308 308 308 306 306 306 307 308 308 307 306 306 305 305 304 304 304 304 304 304 304 304 304 305
317 317 318 320 317 319 323 323 322 319 320 318 318 318 316 315 313 310 308 308 309 308 308 307 305 304 306 306 306 305 304 304 303 303 303 302 302 302 303 303 303 303 303 303
313 318 319 318 319 319 321 321 321 323 323 324 318 314 313 312 310 309 309 309 310 309 308 307 306 304 305 305 304 304 303 303 301 301 300 300 301 301 300 301 302 303 303 302
313 315 317 318 317 317 318 317 320 320 320 323 322 322 311 310 309 310 310 310 309 308 307 306 306 305 304 303 303 302 301 301 300 300 299 299 300 300 300 300 301 302 301 301
314 314 315 318 318 318 319 318 317 318 319 320 323 320 311 311 311 309 309 308 308 307 306 305 304 303 302 302 301 300 300 299 299 298 299 299 299 300 300 300 300 301 301 301
314 313 314 318 317 320 315 314 316 317 317 316 313 311 311 311 309 308 307 307 307 305 305 303 301 301 301 300 300 299 299 298 298 299 299 299 299 300 300 300 300 300 301 300
311 313 319 316 317 316 315 320 320 320 319 313 312 311 311 310 308 308 307 307 305 303 302 302 301 301 300 299 298 298 298 297 298 298 298 299 299 299 299 300 300 301 301 301
313 316 314 319 319 317 314 319 317 317 322 314 312 312 311 309 310 307 305 303 302 302 301 300 300 299 298 297 297 297 297 297 297 297 297 298 297 298 299 300 300 301 301 301
318 317 317 318 312 314 313 317 316 316 315 312 311 310 309 309 307 304 302 301 301 300 299 299 298 297 297 296 296 296 296 296 296 296 297 297 298 298 299 300 301 302 302 302
317 318 319 319 319 316 315 318 319 313 311 310 309 308 307 306 304 302 301 299 298 299 298 297 297 296 296 295 295 295 295 295 295 296 296 297 297 298 300 301 303 301 301 302
319 312 311 311 311 309 316 314 314 312 310 308 307 306 305 303 302 300 298 298 299 298 297 297 296 296 296 295 295 294 294 294 295 295 295 296 298 299 300 302 301 300 301 301
319 318 318 317 316 316 316 315 315 311 308 306 306 303 302 301 299 299 299 299 298 298 297 297 296 295 294 294 294 293 293 293 294 295 295 297 298 299 302 301 300 301 301 301
315 317 317 316 316 316 315 315 314 311 306 304 303 302 300 299 299 298 299 298 298 297 296 296 295 295 294 293 293 293 293 293 293 294 295 297 298 300 302 301 300 300 299 300
309 312 313 312 312 312 312 312 313 307 306 303 302 301 299 298 298 298 297 297 297 297 296 295 295 294 294 293 293 292 293 292 293 294 296 297 298 301 303 302 301 300 299 299

GFSCGP_925_thetae_102.txt.gz
Theta_e
306 307 310 309 310 312 314 314 314 313 312 310 309 311 312 311 311 311 313 314 316 314 317 316 316 323 331 339 341 345 346 345 345 345 344 345 343 343 341 340 342 346 346 346
311 311 311 311 311 312 313 314 313 313 313 312 310 311 310 310 311 310 312 312 312 318 319 318 318 323 329 331 337 334 332 330 330 330 327 324 324 322 323 322 321 321 321 321
311 313 313 313 314 314 313 313 313 314 314 314 314 313 313 311 314 313 313 312 315 318 319 319 320 322 323 324 327 329 328 325 323 322 321 321 321 321 321 320 320 320 320 320
312 312 313 313 314 314 315 313 314 314 313 312 313 313 314 314 316 317 316 313 316 318 318 317 318 321 324 325 324 322 321 321 321 320 319 320 320 319 318 319 319 319 319 319
314 315 314 314 314 314 315 314 316 315 314 314 314 313 312 313 317 318 316 316 315 315 315 317 318 321 321 321 321 321 321 320 320 319 319 318 318 317 317 317 317 316 316 316
313 314 314 313 315 315 315 313 311 312 311 315 315 313 313 314 316 317 316 315 314 315 316 316 317 321 321 320 320 320 322 320 321 321 321 320 320 319 320 320 320 320 319 319
314 314 313 314 315 316 312 312 313 315 315 315 315 315 313 315 316 316 315 314 314 315 314 314 314 314 316 318 316 315 315 315 315 316 316 316 316 316 317 317 317 317 318 318
315 316 317 318 317 316 314 313 314 318 318 315 317 321 319 316 314 314 314 313 313 313 310 309 309 309 310 311 313 314 313 312 311 310 309 309 309 309 309 309 309 310 310 312
315 317 318 319 318 317 317 318 314 317 317 317 317 317 316 316 315 315 314 314 312 308 308 308 306 308 310 311 310 310 309 308 308 308 307 307 307 307 307 307 307 308 308 308
315 320 320 320 319 319 317 315 319 315 322 323 319 320 319 318 317 316 314 311 310 309 307 308 308 308 309 309 308 308 308 307 307 307 306 307 307 307 306 306 306 306 306 306
315 317 318 318 319 320 320 318 316 316 317 319 320 319 315 316 315 313 310 308 306 306 306 306 307 308 308 308 308 308 307 306 306 305 305 305 305 305 304 304 304 304 304 305
318 315 319 319 317 317 318 319 316 320 322 318 317 318 314 314 312 309 309 307 306 306 305 305 305 306 307 307 307 307 306 305 304 305 304 304 303 303 302 302 303 303 303 303
320 318 321 321 316 318 320 318 315 313 314 318 319 319 315 312 310 309 308 308 308 307 306 305 304 304 305 306 306 305 304 304 304 303 302 302 302 301 301 302 302 302 302 302
317 316 318 321 317 317 322 322 319 316 316 317 318 318 316 313 313 310 308 307 307 307 307 306 305 304 304 305 305 304 303 303 302 301 301 301 300 300 300 301 300 300 301 302
314 319 319 318 319 319 319 319 320 322 322 321 321 316 314 312 312 308 308 308 308 308 307 306 305 304 304 304 303 302 302 301 300 300 300 300 299 299 299 300 300 300 301 302
312 316 316 317 317 317 317 316 318 319 320 320 321 318 314 308 309 309 308 308 308 308 307 306 305 304 303 302 302 301 300 300 300 299 298 299 299 299 300 300 300 300 300 300
312 313 314 319 317 317 317 317 316 316 317 318 322 319 310 310 310 309 308 308 308 307 305 304 303 302 301 301 300 300 300 299 298 298 298 299 299 300 300 299 300 300 299 300
312 311 310 314 314 317 313 313 314 315 316 314 315 313 310 310 309 307 307 307 306 304 303 302 300 300 300 300 299 299 298 297 297 297 298 299 299 299 299 299 299 299 300 300
310 310 315 315 316 313 314 319 318 317 318 312 310 310 309 307 307 308 306 304 303 302 300 300 299 299 299 298 297 296 296 297 297 297 298 298 298 297 298 299 299 300 300 301
312 311 310 317 319 317 312 315 316 316 318 312 311 311 309 308 313 308 304 301 300 299 299 298 298 298 297 297 296 296 296 296 296 297 297 297 297 297 298 298 299 300 300 301
315 316 318 316 310 312 311 314 315 316 314 311 310 310 311 312 309 303 300 299 298 298 298 298 297 297 296 296 296 296 296 296 296 296 296 296 296 297 297 298 299 300 302 302
317 317 318 317 314 314 314 317 318 311 310 308 308 308 307 305 302 300 299 298 298 298 298 298 297 297 296 296 295 295 295 295 294 294 295 296 297 297 298 299 300 302 301 300
318 312 311 312 310 307 314 314 313 309 308 308 306 305 304 302 301 299 298 299 298 297 297 297 296 296 295 295 294 294 294 294 294 294 295 295 296 297 298 299 300 302 300 301
317 316 315 316 313 312 315 313 312 308 307 307 306 305 302 300 299 298 299 297 296 296 296 296 296 296 295 294 294 294 293 293 293 294 294 295 296 297 299 300 302 302 301 300
314 316 316 315 314 315 314 314 310 307 306 304 302 300 300 299 299 297 297 296 296 295 296 296 296 295 295 294 293 293 293 293 293 293 294 294 296 298 299 300 302 302 301 300
306 309 313 312 311 312 311 312 306 305 304 302 300 299 298 298 298 297 296 296 295 296 296 296 295 295 294 293 293 292 292 292 292 293 294 294 296 297 299 301 304 303 302 302

GFSCGP_925_thetae_105.txt.gz
Theta_e
309 310 313 315 315 316 316 317 318 318 317 314 315 315 316 316 319 319 321 320 324 327 329 327 321 318 321 328 335 344 346 348 348 347 346 348 349 346 349 350 349 347 347 347
311 312 312 314 314 315 316 317 318 318 316 315 316 316 317 316 317 321 319 322 324 326 326 322 320 319 322 332 339 343 345 345 345 345 344 343 340 335 328 324 324 323 322 323
315 315 315 314 316 316 317 317 318 317 317 317 316 318 317 317 316 316 317 320 321 324 323 322 321 324 325 331 333 333 332 336 338 336 329 325 321 324 323 321 321 321 321 321
316 315 314 315 316 317 318 317 317 318 318 319 318 318 320 319 317 317 318 319 319 320 322 323 324 325 326 329 329 327 324 322 321 321 320 320 322 322 318 316 316 317 317 316
315 315 315 316 317 317 318 317 318 319 319 319 320 319 320 319 319 320 321 320 321 323 323 323 325 325 325 324 322 321 321 320 320 319 318 320 321 320 318 319 319 318 318 317
315 315 316 317 317 316 317 318 318 318 319 320 319 319 319 320 320 322 321 321 321 322 325 326 325 324 322 321 321 320 320 320 320 320 320 320 320 320 322 322 321 321 320 320
317 317 317 316 318 317 317 320 321 321 321 320 319 320 320 320 321 320 322 322 322 324 325 324 324 323 322 319 318 317 317 316 316 316 315 314 313 313 314 315 316 315 316 317
318 317 317 317 317 318 318 320 320 321 320 320 321 322 321 321 320 319 321 322 323 323 321 321 320 319 318 316 316 316 315 313 312 311 310 309 308 311 311 311 311 311 312 312
319 318 319 320 319 319 319 319 318 322 321 321 321 322 322 320 320 321 321 322 322 319 318 316 315 315 315 314 313 312 311 311 311 310 310 310 310 310 310 310 310 310 311 311
319 321 320 321 320 319 320 319 324 322 325 323 322 323 320 323 322 322 321 321 319 316 316 316 315 314 312 311 311 311 310 310 309 309 308 308 309 309 308 308 309 309 309 309
318 320 321 320 322 322 320 322 322 324 325 326 323 322 322 323 323 322 320 318 317 317 316 315 314 312 310 310 310 310 309 308 307 307 307 308 308 307 307 307 307 307 307 307
318 321 321 322 319 319 321 322 323 326 326 324 324 323 319 320 321 320 317 315 315 315 314 313 312 311 310 310 309 309 308 307 306 306 306 306 306 306 306 306 306 306 306 306
323 325 326 323 320 320 322 321 320 322 323 326 327 324 318 317 317 316 315 314 314 313 312 311 311 311 310 309 308 307 306 306 306 305 305 305 305 305 305 305 305 305 305 304
324 323 326 328 324 323 325 323 320 322 324 322 323 322 320 319 318 316 315 314 313 312 312 312 311 310 309 308 307 306 305 305 305 304 305 304 304 304 304 304 304 304 304 304
322 325 324 321 321 321 322 323 322 322 322 322 320 322 321 320 319 317 315 314 313 313 312 311 311 310 308 307 305 305 305 304 304 303 303 303 303 303 303 303 303 303 303 303
317 322 320 321 319 319 320 320 320 321 321 322 321 321 319 316 315 314 314 313 313 312 311 310 309 308 306 305 304 304 304 303 302 302 301 301 301 302 302 302 302 303 303 304
320 320 321 320 319 318 319 319 319 318 318 320 321 319 317 315 316 315 314 313 312 311 310 309 307 306 304 304 303 303 302 301 301 301 301 301 301 301 301 301 302 303 303 303
319 320 320 321 318 317 314 315 316 317 317 317 318 318 319 318 314 312 311 312 310 309 308 306 305 303 303 302 301 300 299 298 298 299 300 300 300 300 300 301 301 302 302 303
316 319 319 319 317 314 316 320 319 319 320 317 317 316 314 313 313 312 309 308 307 306 304 303 302 301 300 299 299 298 298 297 297 299 299 298 299 299 300 300 300 302 304 304
315 315 318 318 318 319 318 317 318 319 321 315 315 315 315 314 318 315 308 305 304 302 302 302 300 299 299 298 297 298 297 297 298 297 297 297 298 298 298 299 301 302 303 303
317 318 317 316 318 316 314 315 318 321 321 315 315 315 316 317 312 308 305 304 302 302 301 300 300 299 299 298 297 296 296 296 296 295 295 296 297 298 298 301 302 302 301 302
317 318 318 318 319 319 317 319 319 319 315 315 313 311 309 308 307 305 304 303 302 302 300 300 299 299 298 296 296 295 296 295 294 294 295 296 297 298 300 301 300 300 301 301
320 318 320 318 318 315 318 319 317 314 314 312 311 310 309 308 305 304 303 301 301 300 300 299 299 298 297 296 295 295 294 294 294 294 295 296 297 298 300 300 300 300 301 303
318 316 319 318 317 317 317 316 315 313 311 311 310 307 306 305 304 302 301 299 299 298 299 299 298 297 296 295 294 293 293 293 293 293 294 295 296 298 300 300 300 301 302 303
315 316 317 318 317 316 318 315 312 310 308 305 304 305 304 303 302 300 299 299 299 299 298 298 298 296 295 294 293 293 293 292 293 293 293 295 296 297 299 299 299 300 303 304
311 316 318 317 316 316 317 316 310 310 307 305 304 303 302 301 300 299 298 297 298 297 297 297 297 295 293 292 293 292 292 292 292 292 293 293 294 295 296 298 299 301 304 305

GFSCGP_925_thetae_108.txt.gz
Theta_e
311 313 316 317 318 318 319 319 320 320 320 320 321 320 320 319 318 318 318 320 324 326 329 328 328 330 329 333 337 348 349 352 353 349 354 353 352 352 351 352 353 353 353 353
313 315 316 317 318 319 319 320 320 320 320 320 321 321 321 319 319 319 320 323 324 325 326 329 328 327 329 335 337 345 350 351 350 350 351 351 351 350 352 350 349 347 345 344
316 316 316 317 318 319 319 319 320 320 320 320 321 321 321 321 320 321 323 324 324 324 325 326 328 328 327 334 327 329 346 351 350 350 346 342 338 337 331 331 331 332 332 331
318 318 317 317 318 319 319 318 319 319 320 322 322 322 321 321 322 321 323 323 323 323 325 327 329 327 329 333 338 342 345 346 346 344 340 328 327 327 325 324 324 326 329 328
318 318 318 318 318 318 319 319 319 319 320 322 322 321 323 322 322 322 323 322 322 323 324 325 326 325 329 335 337 334 334 332 329 332 330 328 324 326 325 327 330 330 330 329
318 317 317 317 317 318 318 319 320 320 320 323 321 322 321 322 322 323 323 324 324 325 326 326 326 328 331 332 331 329 327 327 328 328 329 330 331 329 327 328 327 324 324 324
317 317 317 317 318 318 319 321 322 321 321 322 322 322 321 323 323 323 324 325 325 326 328 329 329 329 327 327 326 326 325 323 322 322 321 321 323 323 322 323 321 322 321 320
319 318 317 317 318 319 320 321 322 321 322 321 323 322 322 324 324 325 325 327 328 329 330 329 329 327 325 325 324 323 322 321 320 319 318 318 318 317 317 317 318 318 317 317
319 319 317 317 319 319 321 321 321 323 323 323 323 322 323 324 325 325 327 328 328 328 328 328 326 325 323 322 321 320 319 319 317 317 316 316 316 316 316 316 316 315 315 315
320 321 318 317 319 320 321 321 323 322 324 324 320 322 322 324 324 326 327 328 327 325 324 324 324 322 320 319 318 317 316 316 315 314 314 314 314 314 314 314 314 314 314 314
320 322 323 323 322 321 322 323 323 324 324 328 325 323 324 324 325 327 327 327 325 324 323 322 321 319 318 317 316 316 315 314 314 313 312 312 313 313 313 313 313 313 313 313
320 322 325 322 323 323 323 322 324 325 326 324 324 324 324 324 325 326 326 325 324 323 322 321 319 317 317 316 315 314 314 312 312 311 311 311 312 312 312 312 312 312 312 313
322 324 326 326 324 323 324 324 324 326 327 329 331 325 323 323 324 325 324 322 322 321 320 319 318 317 315 314 314 313 312 311 310 310 310 311 311 312 312 312 312 311 311 311
324 326 325 326 325 325 324 323 323 324 325 324 324 323 324 323 324 322 321 321 319 318 318 317 316 316 314 313 312 311 310 310 310 310 310 310 310 311 311 311 310 310 309 309
326 328 327 325 325 325 325 325 324 325 324 325 324 322 322 323 323 322 321 320 319 318 317 316 315 315 313 311 310 309 309 309 309 309 309 310 309 309 309 309 309 308 308 308
325 328 326 326 325 324 324 323 323 323 322 324 323 323 321 321 322 321 321 320 319 318 315 314 313 312 311 310 309 309 309 309 308 308 308 308 308 308 307 307 307 307 308 308
325 327 329 327 323 322 323 321 321 321 322 322 323 321 320 321 321 321 320 318 318 316 314 313 312 310 309 309 308 308 307 307 306 306 306 307 307 306 306 305 306 307 307 307
325 324 322 322 322 321 318 317 317 318 318 318 318 318 318 320 320 319 318 317 316 314 313 312 310 309 308 308 307 306 305 304 304 304 304 305 305 304 304 303 306 307 307 307
322 322 323 322 320 315 315 319 319 319 321 319 320 320 319 320 318 317 314 313 313 311 310 308 308 307 307 306 305 304 303 302 302 302 302 302 301 301 302 304 305 306 306 305
319 319 319 319 320 317 322 319 320 321 324 320 320 320 320 319 321 319 314 311 310 308 308 308 307 306 306 304 302 302 302 301 301 300 299 298 297 299 301 302 304 305 304 306
319 319 320 318 320 317 318 317 320 323 325 320 319 319 320 319 319 314 311 310 308 307 307 306 306 305 303 302 301 300 299 299 298 298 296 296 297 299 300 302 304 304 305 303
319 321 320 319 319 322 317 318 322 323 320 320 319 318 316 314 312 310 309 308 307 306 305 305 304 303 301 300 298 297 297 297 296 295 295 296 297 299 300 302 302 304 304 303
321 319 321 319 321 320 320 322 321 320 319 318 317 315 314 313 310 308 307 306 305 303 303 303 302 301 300 297 296 295 295 295 295 295 295 295 297 299 300 301 302 303 303 303
320 318 321 320 319 320 321 320 318 317 317 317 316 314 311 310 308 306 305 304 303 302 301 302 303 300 298 296 295 295 294 293 294 294 294 295 296 298 299 301 303 302 302 302
319 319 319 320 319 319 319 319 317 316 315 312 310 309 308 307 305 303 301 301 301 301 301 301 302 300 298 293 292 293 293 293 293 293 294 294 295 296 298 298 299 300 302 301
318 318 321 320 319 319 320 317 315 314 312 309 308 307 305 303 301 300 300 300 300 300 299 299 299 299 297 293 291 291 292 292 292 293 294 294 295 296 296 296 299 300 300 301

GFSCGP_925_thetae_111.txt.gz
Theta_e
313 313 314 316 317 317 320 320 319 320 320 322 322 322 322 322 322 321 320 319 319 320 323 327 330 332 332 329 339 339 348 354 354 354 352 354 354 355 353 353 353 352 348 349
314 314 315 316 317 318 319 321 321 321 321 322 322 323 323 323 322 321 320 320 320 320 324 330 331 331 331 337 336 335 347 353 354 346 348 349 351 349 351 353 353 351 349 349
315 315 315 316 318 319 320 320 321 321 322 322 322 323 323 322 322 321 321 321 321 321 325 328 332 332 332 336 338 336 339 347 350 350 352 353 353 351 349 347 344 343 340 338
315 316 315 318 319 320 321 320 319 320 322 323 324 324 325 324 322 321 323 323 324 324 325 326 328 332 330 331 330 328 327 346 352 352 348 348 345 342 336 331 329 331 331 328
316 317 318 318 318 319 320 319 319 320 321 322 323 324 323 324 323 323 323 324 324 324 324 326 328 330 331 333 333 333 337 349 349 349 348 344 337 333 329 326 333 330 333 332
318 319 319 319 319 319 319 320 320 321 321 323 323 324 323 325 324 323 323 323 323 324 324 325 327 329 331 336 339 343 342 337 336 335 336 336 335 333 329 330 330 328 327 328
318 319 319 319 319 319 320 321 323 322 322 322 322 323 324 326 323 324 324 323 324 326 328 330 331 331 333 337 336 334 332 331 330 329 329 330 330 330 329 328 325 327 325 323
319 320 320 318 319 319 319 321 323 322 322 321 321 325 324 325 325 325 326 326 326 328 330 331 332 332 333 333 332 329 328 326 326 325 324 325 324 322 322 322 323 323 322 321
321 322 319 319 318 320 320 322 321 323 323 325 326 324 327 326 325 324 326 328 329 330 331 331 331 329 329 328 327 327 325 324 324 323 323 322 322 322 322 321 321 320 320 319
320 322 320 318 318 319 320 321 324 322 326 330 328 328 326 326 325 324 325 328 330 331 331 331 330 328 327 325 324 324 323 322 321 320 319 319 319 319 319 319 319 319 319 319
320 322 321 319 319 320 320 322 323 323 323 327 330 327 327 329 325 325 325 328 329 330 329 328 328 326 324 323 322 321 320 320 319 318 318 318 318 317 317 317 317 317 318 318
320 323 326 321 319 319 321 321 324 327 329 328 326 327 326 325 326 326 326 329 328 327 327 326 325 322 321 321 320 320 319 318 317 316 316 316 316 316 316 317 317 317 317 317
324 323 333 330 327 323 323 324 322 324 330 329 334 329 326 325 325 325 326 327 327 326 325 323 322 322 320 319 318 317 316 316 315 315 314 314 315 315 316 316 316 316 316 316
326 323 325 332 329 325 324 326 327 328 331 331 326 325 326 325 324 325 325 326 326 325 323 322 321 320 319 317 316 315 314 314 313 314 313 313 314 314 315 315 315 315 315 315
325 325 326 327 326 327 326 322 324 326 325 328 326 328 327 328 326 324 325 324 323 322 322 321 320 318 317 315 314 313 313 312 312 312 312 312 313 313 313 313 313 312 312 312
327 330 330 331 327 325 326 326 326 326 326 325 324 325 325 324 324 323 323 323 323 322 321 319 318 316 315 314 313 312 312 312 312 311 312 312 312 312 313 313 312 311 311 311
330 332 332 330 324 325 331 324 323 325 324 322 322 321 322 323 323 323 324 322 321 321 319 318 316 315 314 313 312 312 311 311 311 310 311 311 311 311 311 310 310 310 310 310
328 329 327 329 327 331 323 320 320 321 320 320 320 320 321 321 322 321 322 321 320 319 317 316 314 313 312 311 311 311 310 310 309 309 309 308 308 308 307 307 308 309 309 310
326 326 328 330 325 320 319 319 317 316 316 318 319 319 318 321 322 321 320 319 318 316 314 312 312 311 311 311 309 309 309 309 308 308 307 305 304 304 303 303 305 307 308 308
324 325 322 320 323 320 322 321 321 321 328 321 321 321 321 322 323 321 317 316 315 313 312 311 310 310 310 308 306 306 306 305 305 304 302 302 301 301 301 300 302 305 306 307
322 320 321 320 322 321 321 320 320 324 327 321 321 322 322 323 321 317 315 313 311 310 310 309 309 308 306 304 303 303 302 302 300 299 299 299 299 299 298 299 302 304 305 306
320 322 322 321 323 330 319 320 324 326 324 322 320 320 319 318 316 314 312 311 310 309 308 307 306 306 303 301 300 300 299 298 296 296 297 297 297 298 298 301 302 303 304 305
323 321 322 321 324 323 323 324 323 324 321 319 319 318 317 316 314 313 311 309 308 306 305 305 306 304 302 299 298 297 296 295 294 295 296 296 296 297 297 301 302 303 304 306
320 320 325 323 321 321 322 320 320 320 319 317 317 316 315 313 311 309 307 306 305 304 304 305 305 304 302 297 294 293 293 293 294 294 295 295 295 296 297 300 301 301 302 302
321 319 320 322 321 321 320 320 319 318 317 315 313 312 311 309 306 305 305 304 303 303 303 303 303 302 302 297 294 292 291 291 293 293 294 295 295 296 297 298 298 298 300 301
318 319 322 323 321 322 321 319 317 317 315 312 311 309 306 304 303 304 304 303 302 302 301 301 300 299 299 298 296 293 292 291 292 292 293 293 295 295 295 296 298 298 300 300

GFSCGP_925_thetae_114.txt.gz
Theta_e
320 317 317 317 315 316 317 319 320 319 320 321 321 322 322 322 321 323 323 322 321 321 321 321 329 332 341 342 343 350 353 353 348 347 349 352 352 354 353 347 334 337 345 347
318 316 315 316 315 316 317 319 320 321 321 321 322 323 323 323 323 324 324 323 322 321 322 323 330 335 340 343 349 347 353 352 353 350 350 350 348 351 350 351 354 351 346 346
317 317 315 315 315 316 317 318 320 322 321 321 322 323 324 323 324 323 322 321 322 323 323 324 335 335 334 341 345 347 352 352 350 349 349 348 350 348 348 352 352 352 350 349
317 317 315 314 315 317 318 319 320 322 321 322 323 324 328 326 325 323 322 323 323 323 323 324 333 337 335 341 335 333 339 347 350 346 349 337 349 346 344 340 338 335 333 331
319 317 316 316 315 317 319 320 320 320 321 322 322 323 325 325 325 324 324 324 325 327 323 325 326 335 335 339 339 334 335 337 348 346 352 348 347 340 332 332 330 331 330 331
320 318 316 317 316 318 320 320 321 320 320 322 322 322 324 326 326 325 325 323 325 325 327 327 334 335 334 334 335 339 343 343 343 343 348 341 335 335 333 335 331 328 331 329
319 317 317 318 319 319 319 322 322 322 322 322 321 322 325 327 325 324 324 324 325 328 332 331 334 334 336 336 344 344 339 339 336 335 333 332 331 330 328 327 327 326 325 324
323 320 318 319 320 319 320 323 322 324 322 321 321 323 323 327 326 325 324 325 326 329 332 332 333 334 338 340 339 337 334 332 328 327 327 325 325 323 324 323 324 323 322 322
323 322 319 320 319 320 320 321 321 323 325 325 322 323 326 325 325 324 326 326 329 330 333 335 334 336 337 335 333 332 329 328 327 326 324 323 323 323 323 323 322 322 321 321
322 323 320 319 320 319 321 321 323 322 327 327 325 325 328 328 327 325 327 329 330 332 334 334 333 333 332 330 329 327 326 325 324 323 322 322 321 321 321 321 321 321 320 320
321 324 324 323 321 320 319 321 321 325 326 332 334 334 330 329 330 329 327 330 332 333 333 333 331 330 327 326 325 324 323 322 321 320 320 320 320 319 319 319 319 319 319 319
321 322 329 326 322 320 321 321 324 327 329 325 328 331 330 330 329 329 329 330 331 332 331 330 329 326 325 324 323 322 320 320 319 318 318 318 318 318 318 318 318 318 318 318
323 324 328 330 325 324 321 320 325 330 330 328 334 335 329 328 328 328 329 328 330 330 329 328 325 325 323 321 320 319 318 317 316 316 316 316 316 316 317 317 317 317 317 317
325 326 328 332 327 324 323 320 322 326 334 329 329 329 327 326 326 328 331 329 329 328 327 326 324 322 320 319 317 316 316 315 315 315 315 314 314 315 315 316 316 316 316 315
328 326 326 326 329 328 326 321 326 327 328 329 327 326 327 327 328 328 328 328 327 327 324 323 322 321 318 317 316 315 314 314 314 314 313 313 313 314 314 315 315 315 314 313
329 329 327 333 329 329 329 324 327 327 326 329 328 327 324 326 326 327 328 328 326 323 323 321 319 318 317 316 315 314 314 313 313 313 312 313 313 313 313 313 314 313 312 311
333 330 332 333 329 330 329 327 327 328 328 329 327 329 327 327 326 327 326 324 324 322 320 320 318 317 315 314 313 313 312 312 312 312 311 311 311 311 310 310 309 309 309 310
331 332 331 331 327 334 325 325 325 324 326 325 322 325 325 325 324 325 323 324 323 320 319 317 315 314 313 313 312 311 311 311 311 310 310 309 308 307 307 306 306 306 306 308
329 331 333 331 329 326 323 321 322 324 323 320 321 321 323 324 323 321 321 320 319 317 315 314 313 312 312 310 309 308 308 308 308 307 306 305 304 303 303 303 303 303 303 305
325 326 330 330 329 324 321 320 318 316 325 321 321 320 324 323 325 321 318 317 315 314 312 312 311 310 308 306 304 305 304 304 304 302 301 300 301 301 300 301 301 301 301 304
328 325 328 326 328 327 322 321 320 323 329 325 325 324 325 325 322 318 315 314 312 311 310 309 308 307 304 302 302 302 301 301 299 298 297 297 297 299 299 299 299 300 303 304
324 326 327 325 329 330 320 320 325 328 326 324 323 322 321 319 317 315 314 312 311 309 308 308 307 305 303 301 299 299 298 297 296 296 295 296 297 296 297 299 299 300 303 304
325 322 330 327 330 328 326 328 326 325 323 321 320 319 318 317 315 314 312 310 308 306 306 307 306 305 303 300 297 295 294 294 294 294 294 294 296 296 296 297 298 301 302 302
322 323 327 325 324 324 324 322 321 320 319 318 317 317 316 315 312 310 308 307 306 305 305 304 304 303 303 300 297 294 293 292 292 293 293 294 294 295 296 296 297 298 299 299
320 321 323 325 323 322 321 320 320 318 317 316 315 313 312 310 308 306 306 305 304 304 303 302 302 301 300 299 299 295 293 292 291 292 293 293 293 295 295 295 296 297 298 299
320 321 325 326 323 322 321 320 318 316 315 313 311 308 306 306 305 305 304 303 303 302 301 301 300 299 298 297 296 296 294 293 292 291 291 291 292 293 293 294 295 296 297 298

GFSCGP_925_thetae_117.txt.gz
Theta_e
319 317 318 316 315 315 315 314 316 317 317 316 314 315 315 317 317 317 316 315 315 315 315 319 321 335 346 346 346 343 337 337 336 339 342 339 339 334 336 344 339 334 337 338
319 321 318 317 316 316 315 314 314 317 319 317 317 317 319 319 318 317 317 318 315 316 316 316 333 336 349 346 344 338 333 335 337 339 335 333 337 333 335 346 344 339 333 333
320 321 320 318 315 316 314 313 314 316 318 319 320 320 321 322 321 321 320 319 317 315 315 316 335 342 346 349 350 346 345 342 344 338 343 343 342 347 348 344 346 346 342 339
321 321 320 317 315 314 314 314 316 317 318 320 319 318 321 321 320 321 319 316 317 318 316 316 337 340 348 344 352 354 352 349 348 350 348 347 347 347 346 346 347 347 346 344
324 321 320 316 314 314 314 316 316 317 319 320 319 317 318 321 322 321 319 318 317 316 316 317 331 339 346 347 350 351 349 350 348 347 345 346 345 344 344 344 337 332 330 330
322 319 317 316 315 314 314 316 317 317 316 318 319 320 319 322 322 321 320 319 319 319 317 315 331 336 341 340 343 348 347 348 347 347 347 345 338 334 335 333 332 332 331 328
321 319 319 318 316 314 314 314 320 320 318 319 318 319 318 323 324 323 321 320 319 326 321 324 331 332 342 340 341 340 337 334 336 336 334 333 335 332 330 330 326 325 327 329
322 323 319 319 316 315 313 317 319 321 321 319 319 319 319 321 322 323 323 320 326 328 329 330 332 340 339 336 335 332 329 328 328 326 325 324 326 324 323 323 323 321 320 320
321 322 319 318 317 316 317 318 317 320 325 324 321 319 325 324 325 323 325 324 325 328 329 331 337 336 334 333 331 329 328 326 324 323 322 322 322 322 321 320 318 320 321 320
320 322 320 318 317 319 318 317 319 318 325 327 324 325 329 329 326 327 325 325 331 331 332 333 332 331 330 329 328 326 325 323 322 323 321 321 321 320 320 320 319 319 319 319
323 324 324 323 322 320 319 320 318 318 322 324 327 335 330 330 325 327 328 328 330 330 330 328 326 325 324 325 324 323 322 321 321 319 319 319 319 318 318 318 318 318 318 318
323 324 326 323 322 322 323 317 319 324 325 323 324 334 328 328 328 327 327 329 329 327 328 326 324 324 324 324 323 321 322 320 318 317 317 317 317 317 317 317 317 317 317 317
326 325 326 326 322 321 325 322 319 319 326 328 330 330 327 329 328 331 329 326 327 329 327 326 323 321 320 319 318 316 315 315 315 315 315 314 314 314 315 315 315 315 315 315
324 325 323 325 323 325 325 323 319 320 326 327 328 331 329 329 329 329 328 327 327 326 326 320 317 316 316 315 315 314 314 314 314 313 313 313 313 313 313 314 314 315 315 315
326 328 326 326 327 328 326 324 319 322 327 328 330 329 328 327 328 327 327 326 326 325 323 318 316 315 315 314 314 314 313 313 312 312 312 312 312 312 312 312 313 313 312 312
324 327 325 327 324 328 328 326 323 327 327 328 329 328 326 326 327 328 327 325 325 325 319 317 316 315 314 313 313 312 312 311 311 312 311 311 311 310 309 308 308 308 308 308
324 328 326 331 327 326 328 327 328 329 326 327 329 327 324 326 326 326 327 324 323 319 317 316 314 313 312 311 310 310 309 310 310 309 308 307 306 305 304 304 304 304 304 304
328 328 327 325 322 331 327 326 327 328 328 328 327 327 323 323 322 322 321 319 317 314 313 313 312 310 308 306 306 306 306 305 306 304 303 302 302 302 302 302 302 302 302 303
324 326 330 327 326 328 329 329 327 329 328 326 326 325 323 319 317 317 315 314 313 312 311 309 307 305 303 303 303 303 303 303 302 300 299 299 299 299 300 300 300 300 300 300
319 328 326 327 330 331 324 321 322 322 328 324 323 322 320 319 319 317 314 311 311 310 308 306 304 303 302 301 301 300 300 300 298 298 297 297 296 297 298 299 299 299 300 300
327 327 327 326 329 328 323 322 321 326 328 322 320 320 318 318 315 312 311 310 308 308 307 305 303 302 300 298 297 297 296 295 295 296 295 295 295 296 297 297 298 299 299 300
325 325 325 327 328 327 324 326 328 325 321 319 318 317 315 313 312 311 309 308 307 307 307 305 303 301 299 297 295 294 294 293 293 293 294 294 294 295 296 296 297 297 299 301
324 324 324 326 326 324 323 323 320 319 319 318 317 315 313 312 311 309 306 304 305 306 305 305 303 301 299 298 295 294 293 292 292 293 293 294 294 294 295 296 296 297 298 299
324 324 324 325 324 321 320 318 317 316 315 314 313 312 310 308 306 305 304 304 303 303 303 302 300 300 300 298 296 294 293 293 292 292 292 292 293 293 294 294 295 296 297 298
321 323 324 323 322 320 319 317 316 315 313 311 309 308 306 305 304 304 303 303 302 302 301 299 299 298 297 296 295 295 294 294 293 292 291 291 291 292 293 293 294 295 296 296
321 322 323 324 320 319 318 316 315 312 309 306 305 304 304 303 303 302 301 302 301 301 300 299 298 297 296 295 295 294 294 295 293 291 290 290 291 292 292 293 294 295 296 298